[[{"header":{"parameterUnit":"m.s-1","parameterCategory":1,"la1":30.6,"la2":29.2853,"lo1":-89.7004,"lo2":-87.6739,"dy":0.0162,"dx":0.0183,"nx":112,"ny":82,"refTime":"2025-11-22T12:00:00:Z","depth":0,"parameterNumber":2,"parameterNumberName":"U-component_of_WINDS"},"data":[0.0,0.0,0.0,0.0,0.0,0.0,0.0,0.0,0.0,0.0,0.0,0.0,0.0,0.0,0.0,0.0,0.0,0.0,0.0,0.0,0.0,0.0,0.0,0.0,0.0,0.0,0.0,0.0,0.0,0.0,0.0,0.0,0.0,0.0,0.0,0.0,0.0,0.0,0.0,0.0,0.0,0.0,0.0,0.0,0.0,0.0,0.0,0.0,0.0,0.0,0.0,0.0,0.0,0.0,0.0,0.0,0.0,0.0,0.0,0.0,0.0,0.0,0.0,0.0,0.0,0.0,0.0,0.0,0.0,0.0,0.0,0.0,0.0,0.0,0.0,0.0,0.0,0.0,0.0,0.0,0.0,0.0,0.0,0.0,0.0,0.0,0.0,0.0,0.0,0.0,0.0,4.712,5.2472,5.5359,5.4552,5.3472,5.0046,4.3508,0.0,0.0,0.0,0.0,0.0,0.0,0.0,0.0,0.0,0.0,0.0,0.0,0.0,0.0,0.0,0.0,0.0,0.0,0.0,0.0,0.0,0.0,0.0,0.0,0.0,0.0,0.0,0.0,0.0,0.0,0.0,0.0,0.0,0.0,0.0,0.0,0.0,0.0,0.0,0.0,0.0,0.0,0.0,0.0,0.0,0.0,0.0,0.0,0.0,0.0,0.0,0.0,0.0,0.0,0.0,0.0,0.0,0.0,0.0,0.0,0.0,0.0,0.0,0.0,0.0,0.0,0.0,0.0,0.0,0.0,0.0,0.0,0.0,0.0,0.0,0.0,0.0,0.0,0.0,0.0,0.0,0.0,0.0,0.0,0.0,0.0,0.0,0.0,0.0,0.0,0.0,0.0,0.0,0.0,0.0,0.0,0.0,0.0,0.0,0.0,0.0,0.0,0.0,0.0,4.166,5.0233,5.3895,5.5359,5.4552,5.24,4.8783,4.3431,0.0,0.0,0.0,0.0,0.0,0.0,0.0,0.0,0.0,0.0,0.0,0.0,0.0,0.0,0.0,0.0,0.0,0.0,0.0,0.0,0.0,0.0,0.0,0.0,0.0,0.0,0.0,0.0,0.0,0.0,0.0,0.0,0.0,0.0,0.0,0.0,0.0,0.0,0.0,0.0,0.0,0.0,0.0,0.0,0.0,0.0,0.0,0.0,0.0,0.0,0.0,0.0,0.0,0.0,0.0,0.0,0.0,0.0,0.0,0.0,0.0,0.0,0.0,0.0,0.0,0.0,0.0,0.0,0.0,0.0,0.0,0.0,0.0,0.0,0.0,0.0,0.0,0.0,0.0,0.0,0.0,0.0,0.0,0.0,0.0,0.0,0.0,0.0,0.0,0.0,0.0,0.0,0.0,0.0,0.0,0.0,0.0,0.0,0.0,0.0,0.0,0.0,0.0,4.1275,4.5351,5.189,5.4472,5.5359,5.4552,5.2169,4.8514,4.3431,3.9044,0.0,0.0,0.0,0.0,0.0,0.0,0.0,0.0,0.0,0.0,0.0,0.0,0.0,0.0,0.0,0.0,0.0,0.0,0.0,0.0,0.0,0.0,0.0,0.0,0.0,0.0,0.0,0.0,0.0,0.0,0.0,0.0,0.0,0.0,0.0,0.0,0.0,0.0,0.0,0.0,0.0,0.0,0.0,0.0,0.0,0.0,0.0,0.0,0.0,0.0,0.0,0.0,0.0,0.0,0.0,0.0,0.0,0.0,0.0,0.0,0.0,0.0,0.0,0.0,0.0,0.0,0.0,0.0,0.0,0.0,0.0,0.0,0.0,0.0,0.0,0.0,0.0,0.0,0.0,0.0,0.0,0.0,0.0,0.0,0.0,0.0,0.0,0.0,0.0,0.0,0.0,0.0,0.0,0.0,0.0,0.0,0.0,0.0,0.0,0.0,0.0,0.0,4.597,4.9199,5.2815,5.4511,5.509,5.4241,5.1323,4.7475,4.278,3.7542,0.0,0.0,0.0,0.0,0.0,0.0,0.0,0.0,0.0,0.0,0.0,0.0,0.0,0.0,0.0,0.0,0.0,0.0,0.0,0.0,0.0,0.0,0.0,0.0,0.0,0.0,0.0,0.0,0.0,0.0,0.0,0.0,0.0,0.0,0.0,0.0,0.0,0.0,0.0,0.0,0.0,0.0,0.0,0.0,0.0,0.0,0.0,0.0,0.0,0.0,0.0,0.0,0.0,0.0,0.0,0.0,0.0,0.0,0.0,0.0,0.0,0.0,0.0,0.0,0.0,0.0,0.0,0.0,0.0,0.0,0.0,0.0,0.0,0.0,0.0,0.0,0.0,0.0,0.0,0.0,0.0,0.0,0.0,0.0,0.0,0.0,0.0,0.0,0.0,0.0,0.0,0.0,0.0,0.0,0.0,0.0,0.0,0.0,0.0,0.0,0.0,0.0,4.6439,5.1128,5.3008,5.4049,5.4241,5.3354,4.8781,4.4438,4.0898,3.5201,0.0,0.0,0.0,0.0,0.0,0.0,0.0,0.0,0.0,0.0,0.0,0.0,0.0,0.0,0.0,0.0,0.0,0.0,0.0,0.0,0.0,0.0,0.0,0.0,0.0,0.0,0.0,0.0,0.0,0.0,0.0,0.0,0.0,0.0,0.0,0.0,0.0,0.0,0.0,0.0,0.0,0.0,0.0,0.0,0.0,0.0,0.0,0.0,0.0,0.0,0.0,0.0,0.0,0.0,0.0,0.0,0.0,0.0,0.0,0.0,0.0,0.0,0.0,0.0,0.0,0.0,0.0,0.0,0.0,0.0,0.0,0.0,0.0,0.0,0.0,0.0,0.0,0.0,0.0,0.0,0.0,0.0,0.0,0.0,0.0,0.0,0.0,0.0,0.0,0.0,0.0,0.0,0.0,0.0,0.0,0.0,0.0,0.0,0.0,0.0,0.0,0.0,4.5088,4.9584,0.0,5.3972,5.4164,5.3277,4.9971,4.5821,4.0823,0.0,0.0,0.0,0.0,0.0,0.0,0.0,0.0,0.0,0.0,0.0,0.0,0.0,0.0,0.0,0.0,0.0,0.0,0.0,0.0,0.0,0.0,0.0,0.0,0.0,0.0,0.0,0.0,0.0,0.0,0.0,0.0,0.0,0.0,0.0,0.0,0.0,0.0,0.0,0.0,0.0,0.0,0.0,0.0,0.0,0.0,0.0,0.0,0.0,0.0,0.0,0.0,0.0,0.0,0.0,0.0,0.0,0.0,0.0,0.0,0.0,0.0,0.0,0.0,0.0,0.0,0.0,0.0,0.0,0.0,0.0,0.0,0.0,0.0,0.0,0.0,0.0,0.0,0.0,0.0,0.0,0.0,0.0,0.0,0.0,0.0,0.0,0.0,0.0,0.0,0.0,0.0,0.0,0.0,0.0,0.0,0.0,0.0,0.0,0.0,0.0,0.0,3.9821,4.4934,4.9507,0.0,5.4357,5.4629,5.4049,5.0664,4.628,4.0821,0.0,0.0,0.0,0.0,0.0,0.0,0.0,0.0,0.0,0.0,0.0,0.0,0.0,0.0,0.0,0.0,0.0,0.0,0.0,0.0,0.0,0.0,0.0,0.0,0.0,0.0,0.0,0.0,0.0,0.0,0.0,0.0,0.0,0.0,0.0,0.0,0.0,0.0,0.0,0.0,0.0,0.0,0.0,0.0,0.0,0.0,0.0,0.0,0.0,0.0,0.0,0.0,0.0,0.0,0.0,0.0,0.0,0.0,0.0,0.0,0.0,0.0,0.0,0.0,0.0,0.0,0.0,0.0,0.0,0.0,0.0,0.0,0.0,0.0,0.0,0.0,0.0,0.0,0.0,0.0,0.0,0.0,0.0,0.0,0.0,0.0,0.0,0.0,0.0,0.0,0.0,0.0,0.0,0.0,0.0,0.0,0.0,0.0,0.0,0.0,0.0,0.0,4.009,4.6516,5.1707,5.4244,5.5244,5.5706,5.5706,5.0315,4.5083,0.0,0.0,0.0,0.0,0.0,0.0,0.0,0.0,0.0,0.0,0.0,0.0,0.0,0.0,0.0,0.0,0.0,0.0,0.0,0.0,0.0,0.0,0.0,0.0,0.0,0.0,0.0,0.0,0.0,0.0,0.0,0.0,0.0,0.0,0.0,0.0,0.0,0.0,0.0,0.0,0.0,0.0,0.0,0.0,0.0,0.0,0.0,0.0,0.0,0.0,0.0,0.0,0.0,0.0,0.0,0.0,0.0,0.0,0.0,0.0,0.0,0.0,0.0,0.0,0.0,0.0,0.0,0.0,0.0,0.0,0.0,0.0,0.0,0.0,0.0,0.0,0.0,0.0,0.0,0.0,0.0,0.0,0.0,0.0,0.0,0.0,0.0,0.0,0.0,0.0,0.0,0.0,0.0,0.0,0.0,0.0,0.0,0.0,0.0,0.0,0.0,0.0,0.0,0.0,4.824,5.3436,5.5978,5.6481,5.6362,5.5744,5.1936,4.7242,4.1775,0.0,0.0,0.0,0.0,0.0,0.0,0.0,0.0,0.0,0.0,0.0,0.0,0.0,0.0,0.0,0.0,0.0,0.0,0.0,0.0,0.0,0.0,0.0,0.0,0.0,0.0,0.0,0.0,0.0,0.0,0.0,0.0,0.0,0.0,0.0,0.0,0.0,0.0,0.0,0.0,0.0,0.0,0.0,0.0,0.0,0.0,0.0,0.0,0.0,0.0,0.0,0.0,0.0,0.0,0.0,0.0,0.0,0.0,0.0,0.0,0.0,0.0,0.0,0.0,0.0,0.0,0.0,0.0,0.0,0.0,0.0,0.0,0.0,0.0,0.0,0.0,0.0,0.0,0.0,0.0,0.0,0.0,0.0,0.0,0.0,0.0,0.0,0.0,0.0,0.0,0.0,0.0,0.0,0.0,0.0,0.0,0.0,0.0,0.0,0.0,0.0,0.0,4.286,4.9464,5.4703,5.7247,5.7514,5.717,5.6285,5.3439,4.9009,4.2737,0.0,0.0,0.0,0.0,0.0,0.0,0.0,0.0,0.0,0.0,0.0,0.0,0.0,0.0,0.0,0.0,0.0,0.0,0.0,0.0,0.0,0.0,0.0,0.0,0.0,0.0,0.0,0.0,0.0,0.0,0.0,0.0,0.0,0.0,0.0,0.0,0.0,0.0,0.0,0.0,0.0,0.0,0.0,0.0,0.0,0.0,0.0,0.0,0.0,0.0,0.0,0.0,0.0,0.0,0.0,0.0,0.0,0.0,0.0,0.0,0.0,0.0,0.0,0.0,0.0,0.0,0.0,0.0,0.0,0.0,0.0,0.0,0.0,0.0,0.0,0.0,0.0,0.0,0.0,0.0,0.0,0.0,0.0,0.0,0.0,0.0,0.0,0.0,0.0,0.0,0.0,0.0,0.0,0.0,0.0,0.0,0.0,0.0,0.0,0.0,0.0,0.0,4.3634,5.0369,5.5703,5.8278,5.847,5.8011,5.7096,5.4744,5.0469,4.3778,0.0,0.0,0.0,0.0,0.0,0.0,0.0,0.0,0.0,0.0,0.0,0.0,0.0,0.0,0.0,0.0,0.0,0.0,0.0,0.0,0.0,0.0,0.0,0.0,0.0,0.0,0.0,0.0,0.0,0.0,0.0,0.0,0.0,0.0,0.0,0.0,0.0,0.0,0.0,0.0,0.0,0.0,0.0,0.0,0.0,0.0,0.0,0.0,0.0,0.0,0.0,0.0,0.0,0.0,0.0,0.0,0.0,0.0,0.0,0.0,3.7338,0.0,0.0,0.0,0.0,0.0,0.0,0.0,0.0,0.0,0.0,0.0,0.0,0.0,0.0,0.0,0.0,0.0,0.0,0.0,0.0,0.0,0.0,0.0,0.0,0.0,0.0,0.0,0.0,0.0,0.0,0.0,0.0,0.0,0.0,0.0,0.0,0.0,0.0,0.0,0.0,0.0,4.5627,5.2221,5.744,5.9976,5.9665,5.8627,5.7135,5.5283,5.1589,4.5436,0.0,0.0,0.0,0.0,0.0,0.0,0.0,0.0,0.0,0.0,0.0,0.0,0.0,0.0,0.0,0.0,0.0,0.0,0.0,0.0,0.0,0.0,0.0,0.0,0.0,0.0,0.0,0.0,0.0,0.0,0.0,0.0,0.0,0.0,0.0,0.0,0.0,0.0,0.0,0.0,0.0,0.0,0.0,0.0,0.0,0.0,0.0,0.0,0.0,0.0,0.0,0.0,0.0,0.0,0.0,0.0,0.0,0.0,0.0,0.0,0.0,4.0196,0.0,0.0,0.0,0.0,0.0,0.0,0.0,0.0,0.0,0.0,0.0,0.0,0.0,0.0,0.0,0.0,0.0,0.0,0.0,0.0,0.0,0.0,0.0,0.0,0.0,0.0,0.0,0.0,0.0,0.0,0.0,0.0,0.0,0.0,0.0,0.0,0.0,0.0,0.0,0.0,4.6681,5.3145,5.81,6.0242,5.9536,5.83,5.6853,5.5358,5.2569,4.7997,4.4707,0.0,0.0,0.0,0.0,0.0,0.0,0.0,0.0,0.0,0.0,0.0,0.0,0.0,0.0,0.0,0.0,0.0,0.0,0.0,0.0,0.0,0.0,0.0,0.0,0.0,0.0,0.0,0.0,0.0,0.0,0.0,0.0,0.0,0.0,0.0,0.0,0.0,0.0,0.0,0.0,0.0,0.0,0.0,0.0,0.0,0.0,0.0,0.0,0.0,0.0,0.0,0.0,0.0,5.0986,5.2275,5.2711,5.367,5.4043,5.3686,4.9847,4.7277,4.5567,0.0,0.0,0.0,0.0,0.0,0.0,0.0,0.0,0.0,0.0,0.0,0.0,0.0,0.0,0.0,0.0,0.0,0.0,0.0,0.0,0.0,0.0,0.0,0.0,0.0,4.8004,4.6952,0.0,0.0,0.0,0.0,0.0,0.0,0.0,0.0,0.0,0.0,0.0,0.0,4.7632,5.3671,5.8069,5.9588,5.8749,5.7535,5.6288,5.537,5.3543,5.0518,4.7979,4.5498,0.0,0.0,0.0,0.0,0.0,0.0,0.0,0.0,0.0,0.0,0.0,0.0,0.0,0.0,0.0,0.0,0.0,0.0,0.0,0.0,0.0,0.0,0.0,0.0,0.0,0.0,0.0,0.0,0.0,0.0,0.0,0.0,3.624,3.5866,0.0,0.0,0.0,0.0,0.0,0.0,0.0,0.0,0.0,0.0,0.0,0.0,0.0,0.0,5.0849,5.3849,5.5422,5.5563,6.0058,6.1453,6.0242,6.179,6.2071,6.1331,6.0712,0.0,4.9958,4.9566,0.0,0.0,0.0,0.0,0.0,0.0,0.0,0.0,0.0,0.0,0.0,0.0,0.0,0.0,0.0,0.0,0.0,0.0,0.0,0.0,0.0,0.0,5.2605,5.226,5.2807,5.2936,0.0,4.5349,3.9676,3.74,0.0,0.0,0.0,0.0,0.0,0.0,0.0,0.0,4.954,5.4212,5.7363,5.8366,5.7643,5.6577,5.5357,5.5809,5.4863,5.1856,5.097,4.9543,4.7342,4.225,0.0,0.0,0.0,0.0,0.0,0.0,0.0,0.0,0.0,0.0,0.0,0.0,0.0,0.0,0.0,0.0,0.0,0.0,0.0,0.0,0.0,0.0,0.0,0.0,0.0,0.0,0.0,0.0,0.0,3.5973,3.9203,3.8436,3.9431,3.9243,0.0,0.0,0.0,0.0,0.0,0.0,0.0,0.0,0.0,5.2443,5.3329,5.5128,5.8027,5.9942,6.0896,6.0939,6.3986,6.4824,6.3723,6.4897,6.5007,6.4224,6.4224,6.1955,5.8076,5.5311,5.1531,4.7356,0.0,0.0,0.0,0.0,4.5851,4.6833,4.8742,4.8595,0.0,0.0,0.0,0.0,0.0,0.0,0.0,0.0,0.0,0.0,0.0,0.0,0.0,5.5286,5.5817,5.5963,5.564,5.2092,4.7717,0.0,4.1591,3.9175,3.4281,0.0,0.0,0.0,0.0,0.0,5.0841,5.4824,5.7369,5.7758,5.7269,5.6421,5.5215,5.5242,5.4841,5.3724,5.327,5.2413,5.0957,4.7008,4.3414,0.0,0.0,0.0,0.0,0.0,0.0,0.0,0.0,0.0,0.0,0.0,0.0,0.0,0.0,0.0,0.0,0.0,0.0,0.0,0.0,0.0,0.0,0.0,0.0,0.0,0.0,0.0,0.0,3.9346,4.2498,4.1258,4.3277,4.3754,0.0,0.0,0.0,0.0,0.0,0.0,5.065,5.1798,5.4295,5.8541,5.9245,6.0896,6.3716,6.4383,6.4837,6.5057,6.6225,6.6476,6.5919,6.6512,6.6476,6.5919,6.5919,6.5448,6.439,6.0346,5.6314,5.2611,5.1977,5.1201,5.0603,5.1431,5.2275,5.3329,5.5899,5.6009,5.4803,5.3403,0.0,4.7998,4.4378,0.0,0.0,0.0,0.0,4.7636,5.087,5.2742,5.4396,5.674,5.7146,5.695,5.6986,5.5953,5.3617,0.0,4.7326,4.48,3.9096,0.0,0.0,0.0,0.0,4.8999,5.2464,5.5305,5.6991,5.6991,5.6547,5.5854,5.4853,5.4702,5.4713,5.4842,5.4695,5.4246,5.3507,5.0818,4.7615,0.0,0.0,0.0,0.0,0.0,0.0,0.0,0.0,0.0,0.0,0.0,0.0,0.0,0.0,0.0,0.0,0.0,0.0,0.0,0.0,0.0,0.0,0.0,0.0,0.0,0.0,0.0,0.0,0.0,0.0,4.4737,4.8636,0.0,0.0,0.0,0.0,5.0136,5.2564,5.495,5.7373,5.8988,6.1043,6.3656,6.3772,6.461,6.6292,6.6366,6.6776,6.7517,6.759,6.7627,6.759,6.7627,6.7627,6.759,6.759,6.7106,6.6219,6.4463,6.2664,6.0976,6.0939,6.0419,5.9569,5.8107,5.8101,5.8609,5.7251,5.6743,5.6921,5.8315,5.6108,5.2847,5.259,5.0352,0.0,0.0,5.0954,5.2994,5.3959,5.4845,5.5701,5.6635,5.6242,5.5702,5.5702,5.4427,5.3214,0.0,5.1244,4.9166,4.687,0.0,4.514,4.742,4.8751,5.0927,5.4924,5.5576,5.5708,5.5708,5.4989,5.4353,5.3898,5.4625,5.4909,5.4541,5.4841,5.4885,5.4464,5.2318,5.0302,4.8496,4.3485,0.0,0.0,0.0,0.0,0.0,0.0,0.0,0.0,0.0,0.0,0.0,0.0,0.0,0.0,0.0,0.0,0.0,0.0,0.0,0.0,0.0,0.0,0.0,0.0,0.0,0.0,0.0,0.0,4.9375,5.323,0.0,0.0,5.3985,5.5489,5.6853,5.8725,6.067,6.2579,6.2768,6.3913,6.6342,6.5895,6.6666,6.8795,6.7804,6.7694,6.8458,6.8458,6.8458,6.8495,6.9015,6.9236,6.9236,6.8715,6.8311,6.7974,6.6849,6.5167,6.3215,6.3215,6.3032,6.2701,6.2151,6.2438,6.2976,6.1887,6.1111,6.0517,5.952,5.7875,5.6198,5.5673,5.432,5.3046,5.3382,5.3707,5.4179,5.4955,5.5401,5.5658,5.5946,5.58,5.5585,5.5585,5.5139,5.4735,5.4735,5.2488,5.031,4.9615,4.9439,4.9517,4.9843,5.195,5.3969,5.5401,5.6057,5.5978,5.4955,5.4583,5.4144,5.3452,5.3202,5.3477,5.4375,5.4073,5.4058,5.4417,5.2893,5.1304,4.9688,4.5682,4.149,0.0,0.0,0.0,0.0,0.0,0.0,0.0,0.0,0.0,0.0,0.0,0.0,0.0,0.0,0.0,0.0,0.0,0.0,0.0,0.0,0.0,0.0,0.0,0.0,0.0,0.0,5.2569,5.3162,5.7011,5.9098,5.7751,5.9312,6.0884,6.1955,6.305,6.4261,6.5625,6.5454,6.6152,6.8061,6.7841,6.8495,7.008,6.9052,6.8795,6.9302,6.9302,6.9302,6.9339,6.9853,7.0117,7.008,6.9522,6.9302,6.9229,6.8421,6.718,6.5705,6.5424,6.5314,6.5271,6.5014,6.5264,6.5552,6.4463,6.3729,6.2946,6.1031,5.9863,5.9061,5.8248,5.744,5.6754,5.6497,5.5836,5.5317,5.5873,5.5616,5.5212,5.5212,5.4992,5.4808,5.4808,5.4808,5.4882,5.5139,5.3482,5.2087,5.238,5.2643,5.2716,5.2454,5.4478,5.591,5.5622,5.6057,5.5868,5.4546,5.4179,5.388,5.3623,5.238,5.2386,5.4289,5.2894,5.2344,5.3151,5.2119,5.0805,4.9307,4.6091,4.2555,3.8727,0.0,0.0,0.0,0.0,0.0,0.0,0.0,0.0,0.0,0.0,0.0,0.0,0.0,0.0,0.0,0.0,0.0,0.0,0.0,0.0,0.0,0.0,0.0,4.7369,5.3513,5.7488,5.6025,6.0052,6.2615,6.1894,6.2542,6.3673,6.5325,6.5441,6.5809,6.6586,6.7363,6.8134,6.8965,6.9706,7.0117,7.0183,7.0117,7.011,7.0146,7.0146,7.0146,7.0146,7.0153,7.0183,7.0183,7.0153,7.0146,7.008,6.9265,6.8928,6.8818,6.8024,6.77,6.7627,6.6813,6.6512,6.6292,6.472,6.4176,6.3986,6.3092,6.2285,6.149,6.0639,5.982,5.9049,5.8217,5.7404,5.6774,5.6774,5.5605,5.4436,5.4436,5.3843,5.3287,5.3287,5.3287,5.3513,5.4289,5.4436,5.4693,5.5475,5.4919,5.4656,5.5475,5.6271,0.0,5.5658,5.5548,5.5249,5.4473,5.3697,5.3544,5.4326,5.2228,5.1867,5.4179,5.1363,5.0004,5.0797,5.0078,4.9067,4.7798,4.4898,4.2741,4.1398,0.0,0.0,0.0,0.0,0.0,0.0,0.0,0.0,0.0,0.0,0.0,0.0,0.0,0.0,0.0,0.0,0.0,0.0,0.0,0.0,0.0,0.0,5.4583,5.3445,5.6486,5.9606,6.1526,6.3943,6.5845,6.6806,6.7093,6.7644,6.8715,6.8788,6.8862,6.9082,6.9309,6.9816,7.061,7.0293,7.066,7.1835,7.066,7.0403,7.0984,7.0984,7.0984,7.0984,7.1578,7.1835,7.1798,7.1204,7.0984,7.091,7.011,6.9449,6.8818,6.8024,6.77,6.7664,6.7437,6.6996,6.6439,6.5999,6.5448,6.4744,6.327,6.2646,6.2212,6.0817,5.982,5.9049,5.8217,5.7404,5.6669,5.6093,5.5585,5.5254,5.5254,5.5102,5.4955,5.4955,5.4955,5.4992,5.5212,5.5254,5.5328,5.5548,5.4919,5.4656,5.5475,5.5805,0.0,5.484,5.4735,5.4662,5.4436,5.4216,5.4179,5.4363,5.3256,5.2559,0.0,5.1284,5.0844,5.1651,5.0917,5.0155,4.9444,4.6813,4.4771,0.0,0.0,0.0,0.0,0.0,0.0,0.0,0.0,0.0,0.0,0.0,0.0,0.0,0.0,0.0,0.0,0.0,0.0,0.0,0.0,0.0,0.0,5.6675,6.0572,6.0651,6.1594,6.2982,6.4867,6.6512,6.7871,6.8818,6.9185,6.9596,7.0073,7.0117,7.0117,7.0117,7.0403,7.0837,7.1307,7.1167,7.1541,7.2488,7.1578,7.1358,7.1784,7.1784,7.1784,7.1828,7.2305,7.2488,0.0,7.2011,7.1784,7.1754,7.0947,7.0323,0.0,0.0,0.0,0.0,0.0,6.7407,6.6923,6.6219,6.5698,6.5031,6.3343,6.2579,6.2065,6.078,5.982,5.9049,5.8217,5.7404,5.6701,5.6235,5.5836,5.5585,5.5585,5.5585,5.5585,5.5585,5.5585,5.5585,5.5585,0.0,0.0,5.5585,5.55,5.5684,5.6497,5.6607,5.6314,5.55,5.5422,5.528,5.4955,5.4919,5.5176,5.5831,5.4247,0.0,0.0,0.0,5.1022,5.1463,5.0734,0.0,0.0,0.0,0.0,0.0,0.0,0.0,0.0,4.6499,4.6117,0.0,0.0,0.0,0.0,0.0,0.0,0.0,0.0,0.0,0.0,0.0,0.0,0.0,0.0,0.0,0.0,6.1894,6.5344,6.7407,6.718,6.6733,6.6659,6.7981,6.8928,6.9038,6.9743,7.0257,7.0367,7.0374,7.0374,7.0374,0.0,0.0,0.0,0.0,7.2488,7.2488,7.2488,7.2488,7.2488,7.2488,7.2488,7.2488,7.2488,7.2488,7.2488,7.2488,7.2488,7.2452,7.1718,7.138,7.116,6.9626,6.8605,6.7958,6.7884,6.7774,6.7474,6.5955,0.0,0.0,6.3343,6.2254,6.1416,6.0523,5.971,5.8902,5.8217,5.7483,5.6926,5.6926,5.6424,5.5879,5.5879,5.5879,5.5879,5.5879,5.5879,5.5879,5.5879,5.5879,5.5879,5.5879,5.6308,5.6895,5.7635,5.7745,5.7483,5.6743,5.6669,5.6418,5.5805,0.0,0.0,5.7855,5.5385,5.4908,5.7703,5.3849,5.1494,5.1494,5.0886,5.0849,5.1458,5.2275,5.3511,5.5217,5.6016,5.7064,5.8128,4.9525,4.8913,0.0,0.0,0.0,0.0,0.0,0.0,0.0,0.0,0.0,0.0,0.0,0.0,0.0,0.0,0.0,6.0388,6.4861,6.7907,6.7737,6.8128,6.8201,6.7554,6.8311,6.9148,6.9816,7.058,7.1351,7.1982,7.2055,7.2055,7.2055,7.2195,0.0,7.2268,7.2415,7.2488,7.2488,7.2488,7.2488,7.2488,0.0,0.0,7.2488,7.2488,7.2488,7.2488,7.2488,7.2488,7.2488,7.2342,7.1894,7.1197,7.0257,6.9786,6.9566,6.8898,6.8244,6.7554,6.6592,6.5845,6.5031,6.3343,6.2254,6.1343,5.9857,5.8872,0.0,5.8033,5.7892,5.7776,5.7776,5.7635,5.7525,5.7525,5.7525,5.7525,5.7525,5.7525,5.7525,5.7525,5.7525,5.7525,5.7525,5.6607,5.5879,5.6025,5.6062,5.6025,5.5842,5.5836,5.602,5.6528,5.6559,5.6969,5.7929,5.7446,5.7042,5.7036,5.6156,5.5642,5.5642,5.6124,5.6124,5.5642,5.6418,5.6694,5.6463,5.7273,5.8634,6.0423,5.7972,5.7267,0.0,0.0,0.0,0.0,0.0,0.0,0.0,0.0,0.0,0.0,0.0,5.0183,0.0,0.0,6.1734,6.5772,6.8855,7.0433,6.9596,6.9846,6.9516,6.7877,6.8758,6.9669,7.0073,7.1211,7.2085,7.2452,7.2488,7.2488,7.2488,7.2488,7.2488,7.2488,7.2488,7.2488,7.2488,7.2488,7.2488,7.2488,7.2488,7.2488,7.2488,7.2488,7.2488,7.2488,7.2488,7.2488,7.2488,7.2488,7.2268,7.1865,7.1468,7.0807,6.9963,6.8752,6.8061,6.748,6.5858,6.5051,6.4494,6.3196,6.2254,6.1453,6.0639,5.9826,5.9134,5.8725,5.8615,5.8615,5.8615,5.8615,5.8688,5.9098,5.9208,5.9208,5.9208,5.9208,5.9208,5.9208,5.9208,5.9055,5.8651,5.7917,5.7409,5.7409,5.7042,5.6938,5.7336,5.7048,5.6974,5.7373,5.7409,5.8033,5.9654,6.0162,5.9899,5.8688,5.8205,5.7985,5.7985,5.8389,5.8798,5.9208,5.9973,6.0419,6.0456,6.1263,6.2187,6.3191,6.306,6.2856,0.0,0.0,0.0,0.0,0.0,0.0,0.0,0.0,4.7567,5.0136,5.2747,5.602,6.0707,6.316,6.6022,7.0756,7.2342,7.2562,7.1454,7.1307,7.0396,6.7994,6.8979,6.9933,7.008,7.1394,7.2342,7.2488,7.2488,7.2488,7.2488,7.2488,7.2488,7.2488,7.2488,7.2488,7.2488,7.2488,7.2488,7.2488,7.2488,7.2488,7.2488,7.2488,7.2488,7.2488,7.2488,7.2488,7.2488,7.2488,7.2488,7.2488,7.2488,7.1615,7.0146,6.8685,6.7958,6.737,6.5124,6.4133,6.3723,6.3019,6.2254,6.16,6.16,6.1043,6.0266,5.9636,5.941,5.941,5.941,5.941,5.96,6.0266,6.0413,6.0413,6.0413,6.0413,6.0413,6.0413,6.0413,6.0193,5.9526,5.941,5.9343,5.9013,5.8437,5.8217,5.8866,5.8541,5.8217,5.8217,5.8364,5.9391,6.163,6.2725,6.2719,6.1441,6.0737,6.0401,6.0401,6.0401,6.0994,6.2297,6.2946,6.3643,6.4316,6.4964,6.5362,6.5528,6.6041,6.626,3.6123,3.6927,0.0,4.2074,4.3497,4.5879,0.0,0.0,5.5286,5.8394,6.1588,6.423,6.5558,6.8304,7.0793,7.2158,7.3626,7.3839,7.16,7.1307,7.0396,6.7994,6.8495,6.9295,7.0036,7.091,7.1718,7.2459,7.2488,7.2488,7.2488,7.2488,7.2488,7.2488,7.2488,7.2488,7.2488,7.2488,7.2488,7.2488,7.2488,7.2488,7.2488,7.2488,7.2488,7.2488,7.2488,7.2488,7.2488,7.2488,7.2488,7.2488,7.2488,7.1938,7.105,7.0146,6.8942,6.748,6.5778,6.4194,6.2939,6.2829,6.2254,6.16,6.16,6.1043,6.0376,6.0303,6.0266,6.0266,6.0266,6.0266,6.0303,6.0376,6.0413,6.0413,6.0413,6.0413,6.0413,6.0413,6.0413,6.0376,6.0266,6.0266,5.9789,5.8364,5.8076,5.8039,5.8107,5.8688,5.9086,5.9086,5.9716,6.0817,6.2536,6.4114,6.4921,6.4781,6.4664,6.4628,6.4628,6.4628,6.4701,6.4891,6.4958,6.5074,6.5185,6.5258,6.5662,6.6379,6.6912,6.6748,4.1699,0.0,0.0,0.0,5.0802,5.3482,5.7483,5.9134,6.056,6.3392,6.5411,6.7247,6.8965,7.08,7.2415,0.0,7.4463,7.4206,7.2268,7.16,7.025,6.732,6.7694,6.8685,6.9963,7.0837,7.1637,7.2452,7.2488,7.2488,7.2488,7.2488,7.2488,7.2488,7.2488,7.2488,7.2488,7.2488,7.2488,7.2496,7.2973,7.2936,7.2525,7.2973,7.2936,7.2488,7.2488,7.2488,7.2488,7.2488,7.2488,7.2488,7.2488,7.2011,7.116,6.9883,6.8685,6.7407,6.5308,6.4127,6.3466,6.2976,6.2572,6.2285,6.2285,6.2065,6.1698,6.1227,6.108,6.108,6.108,6.108,6.1227,6.1698,6.1808,6.1808,6.1808,6.1808,6.1808,6.1808,6.1808,6.1661,6.119,6.108,6.0713,5.9575,5.9391,5.9391,5.9391,5.9679,5.9893,5.9893,6.1031,6.2059,6.2756,6.3906,6.4787,6.5251,6.4854,6.4604,6.4604,6.5038,6.5515,6.5992,6.5999,6.6696,6.8091,6.7607,6.7797,6.8612,6.8832,6.8735,4.5369,0.0,0.0,5.3434,5.678,5.9795,6.1667,6.2982,6.445,6.6696,6.762,6.8641,7.0617,7.1828,0.0,7.4654,7.5094,7.4581,7.2745,7.1821,7.0103,6.688,6.6813,6.7657,6.9272,7.0367,7.1314,7.2121,7.2378,7.2488,7.2488,7.2488,7.2488,7.2488,7.2716,7.2716,7.2488,7.2716,7.2716,7.2496,7.331,7.3384,7.2863,7.3421,7.3384,7.2826,7.2826,7.2826,7.2826,7.2826,7.2716,7.2488,7.2488,7.1865,7.0837,6.9662,6.8575,6.7407,6.5197,6.428,6.3949,6.3086,6.2793,6.2793,6.2793,6.2793,6.2683,6.2101,6.1924,6.1924,6.1924,6.1924,6.2071,6.2646,6.2793,6.2793,6.2793,6.2793,6.2793,6.2793,6.2793,6.2609,6.2034,6.1924,6.1741,6.1147,6.1074,6.089,6.045,6.0603,6.0817,6.1037,6.2322,6.3166,6.3166,6.3943,6.4677,6.5258,6.4751,6.4647,6.5057,6.5632,6.6439,6.7467,6.7504,6.8348,7.0117,6.9522,6.9522,7.0117,7.0117,7.022,0.0,0.0,5.3654,5.6077,5.971,6.3306,6.5778,6.6366,6.6843,6.8488,6.8855,6.9112,6.9963,7.1431,7.3039,7.4654,7.5535,7.5249,7.2826,7.1821,7.0103,6.688,6.5845,6.5992,0.0,6.9199,7.0477,7.127,7.2048,7.2488,7.2488,7.2488,7.2488,7.2488,7.3274,7.331,7.2496,7.3266,7.3266,7.2496,7.331,7.3678,7.3678,7.3678,7.3678,7.3678,7.3678,7.3678,7.3678,7.3678,7.32,7.2488,7.2488,7.1541,7.0117,7.008,6.9052,6.748,6.5815,6.4751,6.3949,6.3086,6.2793,6.2793,6.2793,6.2793,6.2793,6.2756,6.2756,6.2756,6.2756,6.2756,6.2756,6.2793,6.2793,6.2793,6.2793,6.2793,6.2793,6.2793,6.2793,6.2793,6.2756,6.2756,6.2756,6.2719,6.2719,6.2169,6.0597,6.108,6.1851,6.2646,6.3539,6.4059,6.4059,6.4787,6.5251,6.5288,6.5295,6.5955,6.7517,6.7627,6.8361,6.997,7.0007,7.0043,7.0117,7.008,7.008,7.0117,7.0117,7.0513,0.0,0.0,5.7912,6.0896,6.3466,6.5742,6.7644,6.7687,6.7767,6.9376,6.8017,6.6763,6.7577,6.8575,6.9823,7.1468,7.3303,7.4404,7.414,7.3406,7.1908,6.9192,6.8641,0.0,0.0,0.0,0.0,7.116,7.1564,7.1938,7.2452,7.2488,7.2488,7.2488,7.2753,7.3046,7.331,7.3046,7.3046,7.3303,7.3567,7.4265,7.5285,7.4735,7.4507,7.447,7.3927,7.3714,7.3678,7.312,7.2753,7.2488,7.2488,7.1505,7.0117,7.0117,6.9089,6.7554,6.6476,6.5552,6.4751,6.3943,6.3276,6.2793,6.2793,6.2793,6.2793,6.2793,6.2793,6.2793,6.2793,6.2793,6.2793,6.2793,6.2793,6.2793,6.2793,6.2793,6.2793,6.2793,6.2793,6.2793,6.2793,6.3276,6.3649,6.3649,6.3166,6.2609,6.2059,6.2242,6.2505,6.2756,6.3056,6.368,6.4781,6.5141,6.5772,6.6813,6.6886,6.6886,6.6886,6.74,6.8208,6.9295,6.9302,7.011,7.1688,7.1167,7.1167,7.1688,7.1688,7.1828,0.0,5.8242,6.1288,6.4573,6.6372,6.7687,6.9045,6.8465,6.7921,6.8641,6.5999,6.379,6.4604,6.4463,6.5418,6.9082,7.0954,7.2679,7.461,7.4221,7.2907,7.077,7.0036,0.0,0.0,0.0,0.0,7.0727,7.1387,7.2085,7.2899,7.2936,7.3046,7.3333,7.3634,7.3891,7.4147,7.3891,7.4037,7.4559,7.4559,7.5109,7.6093,7.5572,7.5315,7.5278,7.4478,7.4147,7.4074,7.3266,7.2753,7.2488,7.2488,7.1505,7.0117,7.0117,6.9089,6.759,6.6776,6.5962,6.5185,6.4353,6.3503,6.2793,6.2793,6.2793,6.2866,6.3166,6.3276,6.3276,6.3276,6.3276,6.3276,6.3276,6.3276,6.3349,6.3637,6.3673,6.3673,6.3673,6.3673,6.3673,6.3673,6.4163,6.453,6.453,6.4047,6.349,6.2866,6.2793,6.2793,6.2793,6.3086,6.3827,6.5178,6.5288,6.5992,6.759,6.7143,6.699,6.7357,6.7584,6.8465,7.0139,7.0176,7.1241,7.3369,7.2848,7.2848,7.3369,7.3369,7.3369,5.8273,6.1141,6.3753,6.6923,6.8274,6.9038,6.9816,6.8722,6.7327,6.6482,6.3,6.0352,0.0,0.0,6.0322,6.7497,6.8892,7.047,7.4463,7.4368,7.3303,0.0,0.0,0.0,0.0,0.0,0.0,7.011,0.0,7.2789,7.3604,7.3678,7.4037,7.4801,7.5608,7.5689,7.4984,7.5726,7.6093,7.6093,7.6093,7.613,7.6166,7.6166,7.6166,7.613,7.5315,7.4948,7.4837,7.4037,7.3237,7.2488,7.2459,7.1468,7.0117,7.0043,6.9052,6.759,6.6849,6.6035,6.5258,6.4463,6.3613,6.2866,6.2903,6.2903,6.305,6.3913,6.417,6.417,6.417,6.417,6.417,6.417,6.417,6.4353,6.5148,6.5288,6.5288,6.5288,6.5288,6.5295,6.5362,6.5362,6.5362,6.5362,6.5362,6.4774,6.3123,6.2939,6.2939,6.2939,6.3686,6.4494,6.5368,6.5405,6.6102,6.7664,6.6329,6.6506,6.8745,6.8171,6.9272,7.2378,7.2525,7.3333,7.4903,7.4903,7.4903,7.4903,7.4903,7.4903,6.0774,6.368,6.5888,6.7327,6.7847,6.8061,6.8288,6.707,6.5515,6.404,5.9688,5.6174,0.0,0.0,0.0,6.4442,6.8825,0.0,7.6225,7.6518,0.0,0.0,0.0,7.2092,7.1094,7.0793,0.0,0.0,7.138,7.1975,7.2753,7.3384,7.3788,7.4008,7.4801,7.5388,7.5792,7.6019,7.6093,7.6093,7.6093,7.6416,7.6995,7.6995,7.6995,7.6959,7.6159,7.5461,7.4837,7.4037,7.3237,7.2452,7.1828,7.0984,7.0036,6.9449,6.8568,6.7664,6.748,6.6886,6.6145,6.5962,6.4941,6.3876,6.4487,6.423,6.3949,6.4751,6.5001,6.5001,6.5001,6.5001,6.5001,6.5001,6.5001,6.5038,6.5258,6.5288,6.5288,6.5288,6.5288,6.5478,6.6109,6.6182,6.6182,6.6182,6.6182,6.5809,6.4774,6.4664,6.4664,6.4664,6.4854,6.5558,6.696,6.7106,6.751,6.8531,6.8194,6.7974,6.8024,6.8979,7.0146,7.1564,7.2789,7.3891,7.4903,7.4903,7.4903,7.4903,7.4903,7.4903,6.3606,6.5705,6.7143,6.7558,6.7379,6.6703,6.5008,6.3587,6.1632,5.8078,5.4448,0.0,0.0,0.0,0.0,0.0,0.0,0.0,7.5131,7.6004,7.5765,0.0,7.3947,0.0,7.129,7.1176,7.1206,0.0,7.1597,7.2334,7.3479,7.3993,7.4551,7.5241,7.5711,7.6188,7.6636,7.6636,7.6636,7.6636,7.6636,7.6848,7.7281,7.7281,7.7281,7.7244,0.0,7.5836,7.5351,7.4184,7.3237,7.2415,7.16,7.058,6.9522,6.9075,6.8385,6.77,6.77,6.7407,6.696,6.6623,6.5632,6.4714,6.5148,6.4964,6.4787,6.5588,6.5845,6.5845,6.5845,6.5845,6.5845,6.5845,6.5845,6.5919,6.6292,6.6366,6.6366,6.6366,6.6366,6.6512,6.696,6.7033,6.7033,6.7033,6.732,6.7247,6.6476,6.5735,6.5288,6.5288,6.5625,6.6329,6.759,6.77,6.8501,7.036,6.9479,6.9185,6.9786,7.0007,7.0807,7.2305,7.323,7.4441,7.5968,7.5968,7.5968,7.5968,7.5968,7.5747,6.6093,6.721,6.79,6.7505,6.6814,6.5204,6.127,5.9394,5.6855,5.1104,0.0,0.0,4.6303,0.0,5.1742,5.8179,0.0,6.753,7.3039,7.4482,7.4704,7.3882,7.3782,7.3134,7.1585,7.1427,7.1392,7.1392,7.2167,7.3259,7.4647,7.483,7.5637,7.7244,7.7281,7.7281,7.7281,7.7281,7.7281,7.7281,7.7281,7.7281,7.7281,7.7281,7.7281,7.7244,0.0,0.0,7.5983,7.4588,7.3487,7.2569,7.1674,7.0389,6.9038,6.8818,6.8311,6.77,6.77,6.77,6.759,6.6886,6.6109,6.5478,6.5588,6.5552,6.5625,6.6439,6.6666,6.6666,6.6666,6.6666,6.6666,6.6666,6.6666,6.6849,6.7554,6.77,6.77,6.77,6.7811,6.7841,6.7841,6.7958,6.8031,6.8031,6.8605,6.8825,6.8098,6.6806,6.5845,6.5625,6.6329,6.7063,6.7664,6.7811,6.9052,7.1835,7.0139,6.9993,7.2085,7.1064,7.1438,7.3641,7.3898,7.5102,7.7281,7.7281,7.7244,7.7142,7.7244,7.6885,6.6294,6.7963,6.9156,6.6903,6.5909,6.431,5.9678,5.6565,0.0,0.0,0.0,4.4125,4.4525,4.7482,0.0,5.8415,0.0,0.0,0.0,0.0,7.5492,0.0,0.0,0.0,0.0,0.0,0.0,0.0,0.0,7.3452,7.3898,7.4544,7.5637,7.7244,7.7281,7.7281,7.7281,7.7281,7.7281,7.7281,7.7281,7.7281,7.7281,7.7281,7.7281,7.7281,7.7134,0.0,7.6093,7.5799,7.4816,7.3347,7.1865,7.0727,6.9743,6.8391,6.7811,6.77,6.77,6.77,6.7664,6.7554,6.696,6.6402,6.707,6.6813,6.6476,6.7253,6.748,6.748,6.748,6.748,6.748,6.748,6.748,6.7517,6.7664,6.77,6.77,6.77,6.8244,6.8678,6.8678,6.9229,6.9676,6.9676,6.9786,6.9853,6.9713,6.9456,6.8758,6.7444,6.8017,6.8274,6.7737,6.8318,6.8928,6.9479,6.9743,7.0073,7.0513,7.1541,7.2606,7.3678,7.4992,7.6232,7.7281,7.7281,7.6959,7.6306,7.6995,7.6885,6.6891,6.8079,6.8746,6.609,6.4374,6.1785,5.5901,0.0,0.0,0.0,0.0,4.1169,4.0821,0.0,0.0,0.0,0.0,0.0,0.0,0.0,0.0,0.0,0.0,0.0,0.0,0.0,0.0,0.0,0.0,7.2335,7.3344,7.4635,7.5966,7.7266,7.7281,7.7281,7.7281,7.7281,7.7281,7.7281,7.7281,7.7281,7.7281,7.7281,7.7281,7.7281,7.7281,0.0,7.6702,7.6276,7.4918,7.2973,7.1754,7.0286,6.8758,6.7994,6.77,6.77,6.77,6.77,6.77,6.77,6.7444,6.718,6.759,6.7444,6.718,6.759,6.77,6.77,6.77,6.8024,6.8201,6.7811,6.8024,6.8421,6.8869,6.8942,6.8942,6.8942,6.9265,6.9522,6.9522,6.9853,7.0117,7.0117,7.0477,7.058,7.0153,7.1218,7.1365,6.9743,7.0286,7.044,6.9633,6.9919,7.0323,7.0763,7.0727,7.1094,7.1952,7.2723,7.3707,7.4926,7.6122,7.7333,7.8589,7.8589,7.8405,7.8046,7.8405,7.8185,6.7029,6.7934,6.8244,6.5435,6.3133,5.9719,5.2792,4.9005,0.0,0.0,0.0,3.8651,3.7815,0.0,0.0,0.0,0.0,0.0,0.0,0.0,0.0,0.0,0.0,0.0,0.0,0.0,0.0,0.0,0.0,0.0,7.2994,7.4806,7.6052,7.6656,7.6856,7.6864,7.6672,7.7066,7.7196,7.6988,7.7204,7.7281,7.7281,7.7281,7.7281,7.7281,7.7281,0.0,0.0,7.6636,7.5139,7.3156,7.2195,7.0433,6.8428,6.8061,6.7951,6.7951,6.7951,6.8068,6.8214,6.8214,6.7994,6.77,6.77,6.77,6.7737,6.7914,6.7841,6.7774,6.8104,6.8568,6.8781,6.8318,6.8685,6.9339,6.997,7.0117,7.0117,7.0117,7.022,7.0367,7.0367,7.0513,7.0624,7.0624,7.1167,7.1314,7.0697,7.2429,7.323,7.1938,7.2232,7.2085,7.113,7.1197,7.1564,7.2195,7.1821,7.2195,7.3641,7.3861,7.4698,7.6342,7.7142,7.8324,7.9816,7.9816,7.9706,7.9551,7.9706,7.9368,6.5869,6.7767,6.8812,6.5441,6.3102,5.9779,5.2775,0.0,0.0,0.0,3.7248,3.6934,3.7744,4.0312,0.0,0.0,0.0,0.0,0.0,0.0,0.0,0.0,0.0,0.0,0.0,0.0,0.0,0.0,0.0,0.0,7.3028,7.4806,7.5431,7.4591,7.5466,7.5501,7.4572,7.6399,7.6832,7.5959,7.6856,7.7281,7.7281,7.7281,7.7281,7.7281,7.7281,0.0,0.0,7.7208,7.6628,7.5616,7.4081,7.2459,7.0793,6.9332,6.8781,6.8781,6.8781,6.9265,6.9896,6.9896,6.8905,6.77,6.77,6.77,6.7847,6.8568,6.8244,6.8031,6.9493,6.9376,6.9082,6.9706,6.9933,7.0007,7.008,7.0117,7.0117,7.0117,7.069,7.1197,7.1197,7.1791,7.2268,7.2268,7.2349,7.2342,7.2275,7.312,7.3641,7.3494,7.2899,7.1872,7.0337,7.0874,7.1344,7.1417,7.2048,7.2789,7.3678,7.4404,7.5564,7.7179,7.8031,7.8927,7.9816,7.9816,7.9404,7.8744,7.9441,7.9368,6.46,6.6933,6.8119,6.5303,6.2644,5.9026,5.2653,0.0,4.3315,3.883,3.6843,3.6195,3.7055,3.8386,4.0205,4.2927,4.4777,4.8157,5.473,0.0,0.0,0.0,0.0,0.0,0.0,0.0,0.0,0.0,0.0,0.0,7.2021,7.3277,7.4091,7.4282,7.4684,7.4985,7.5183,7.5993,7.6506,7.672,7.7126,7.7281,7.7281,7.7281,7.7281,7.7281,7.7281,0.0,0.0,7.7281,7.6269,7.4595,7.3935,7.2422,7.0513,6.9853,6.9633,6.9633,6.9633,6.9816,7.0117,7.0117,6.9676,6.9125,6.9125,6.8795,6.8605,6.9412,6.9382,6.9272,6.9933,6.9853,6.9963,7.1248,7.1167,7.0947,7.1431,7.1541,7.1541,7.1541,7.1791,7.2334,7.3289,7.334,7.356,7.4515,7.3854,7.323,7.323,7.3494,7.3494,7.3046,7.3553,7.3479,7.2356,7.3002,7.3472,7.3472,7.4213,7.5028,7.5828,7.6673,7.7671,7.8772,7.9617,8.0424,8.124,8.124,8.1093,8.0755,8.1093,8.1056,6.2813,6.5356,6.6632,6.4477,6.1366,5.7399,0.0,0.0,4.2496,3.8694,3.6653,3.5774,3.6338,3.712,3.8216,3.9819,4.1088,4.3959,4.9956,0.0,0.0,0.0,0.0,0.0,0.0,0.0,0.0,0.0,0.0,0.0,0.0,7.1959,7.2686,7.3382,7.3709,7.4043,7.447,7.5334,7.6002,7.6432,7.7011,7.7281,7.7281,7.7281,7.7281,7.7281,0.0,0.0,0.0,7.7281,7.6298,7.4735,7.4258,7.287,7.1108,7.0624,7.044,7.044,7.044,7.0624,7.0807,7.0807,7.066,7.0513,7.0734,7.0073,6.9405,7.022,7.0624,7.077,7.0513,7.0624,7.1101,7.2239,7.2085,7.1821,7.2378,7.2488,7.2642,7.3112,7.3223,7.3736,7.5344,7.5131,7.5139,7.6269,7.5498,7.4588,7.4111,7.4478,7.4184,7.2672,7.414,7.4727,7.3457,7.4074,7.4654,7.4867,7.5645,7.6562,7.7656,7.8516,7.9331,8.0139,8.0938,8.1636,8.2194,8.2443,8.2443,8.2194,8.2708,8.2774,6.0306,6.2966,6.4285,6.2797,5.9066,5.4761,0.0,4.55,4.0588,3.835,3.6653,3.56,3.56,3.6868,3.7889,3.7928,4.167,4.5874,4.9583,5.3323,0.0,0.0,0.0,0.0,0.0,0.0,0.0,0.0,0.0,0.0,0.0,7.1312,7.1323,7.1334,7.23,7.2342,7.1368,7.431,7.5316,7.4348,7.633,7.7281,7.7281,7.7281,7.7281,0.0,0.0,0.0,0.0,7.7281,7.7289,7.7098,7.5527,7.4397,7.3457,7.1865,7.1307,7.1307,7.1307,7.1821,7.2496,7.2496,7.1938,7.1454,7.2232,7.1358,7.0257,7.105,7.1857,7.2305,7.149,7.1865,7.2496,7.2488,7.2488,7.2488,7.2488,7.2488,7.2966,7.4581,7.4867,7.538,7.6988,7.7281,7.7281,7.7289,7.7281,7.6702,7.5087,7.6298,7.6041,7.2855,7.4661,7.5139,7.2709,7.323,7.4037,7.483,7.5645,7.6864,7.8516,7.9368,8.0175,8.0967,8.1782,8.2194,8.2194,8.2986,8.2986,8.2231,8.3838,8.416,5.3373,5.5674,5.6765,5.575,5.3653,5.1014,4.7834,4.4418,4.1305,3.9113,3.7849,3.7166,3.7166,3.7144,3.847,4.2584,4.3985,0.0,0.0,0.0,0.0,0.0,0.0,0.0,0.0,0.0,0.0,0.0,0.0,0.0,0.0,7.13,7.13,7.13,7.16,7.196,7.2321,7.3272,7.3928,7.4301,7.4966,7.5254,7.5281,7.5959,0.0,0.0,0.0,0.0,0.0,7.7281,7.6995,7.6379,7.5307,7.4397,7.3567,7.2496,7.2121,7.2121,7.2121,7.2305,7.2488,7.2488,7.2342,7.2158,7.2415,7.1754,7.1094,7.1901,7.2305,7.2452,7.2195,7.2305,7.2488,7.2488,7.2488,7.2488,7.2488,7.3369,7.4287,7.4793,7.5351,7.6423,7.8626,7.8067,7.7876,7.9564,7.8875,7.8002,7.7488,7.7362,7.6702,7.5139,7.5652,7.5359,7.3494,7.4551,7.5682,7.6481,7.7855,7.9111,8.0204,8.1525,8.2398,8.2655,8.3426,8.3838,8.3838,8.4095,8.4087,8.3838,8.4352,8.4462,0.0,5.1269,5.2461,5.1657,4.9932,4.7909,4.5778,4.3105,4.0669,3.9282,3.8396,3.7815,3.755,3.7556,3.8746,4.2219,4.4019,0.0,0.0,0.0,0.0,0.0,0.0,0.0,0.0,0.0,0.0,0.0,0.0,0.0,0.0,7.1436,7.13,7.13,7.13,7.1589,7.2215,7.2613,7.31,7.3758,7.411,7.4291,7.4329,7.5352,0.0,0.0,0.0,0.0,0.0,7.7281,7.6812,7.6019,7.5204,7.4397,7.3604,7.2789,7.2488,7.2488,7.2488,7.2488,7.2488,7.2488,7.2488,7.2488,7.2488,7.2158,7.1857,7.2342,7.2488,7.2488,7.2488,7.2488,7.2488,7.2488,7.2488,7.2488,7.2488,7.3523,7.4617,7.5241,7.6012,7.7333,7.9845,7.914,7.8985,8.1122,8.0351,7.9396,7.9111,7.9103,7.8471,7.6746,7.737,7.7304,7.5697,7.6166,7.704,7.8177,7.98,8.1056,8.1884,8.3169,8.3866,8.3866,8.4352,8.4609,8.4609,8.4609,8.4894,8.5481,8.4894,8.4756,0.0,4.8665,5.0085,4.9398,4.7158,4.4993,4.4364,4.1454,0.0,3.8977,3.8464,3.7781,3.7156,3.8103,3.8903,3.8661,0.0,0.0,0.0,0.0,0.0,0.0,0.0,0.0,0.0,0.0,0.0,0.0,0.0,0.0,0.0,7.1808,7.1402,7.13,7.1368,7.1368,7.13,7.2215,7.2683,7.2693,7.365,7.4072,7.411,7.512,0.0,0.0,0.0,0.0,0.0,7.7281,7.6848,7.6085,7.5241,7.4434,7.3678,7.2826,7.2488,7.2488,7.2488,7.2488,7.2488,7.2488,7.2488,7.2488,7.2488,7.2488,7.2496,7.2569,7.2532,7.2496,7.2569,7.2532,7.2488,7.2488,7.2532,7.2569,7.2496,7.3266,7.4375,7.5836,7.6812,7.8133,8.049,8.0249,8.0249,8.1864,8.1489,8.0755,8.0073,8.1277,8.1012,7.7913,7.9638,8.0388,7.8883,7.7994,7.8177,7.9779,8.135,8.2553,8.3381,8.4233,8.4682,8.4682,8.4756,8.4756,8.4756,8.4756,8.5555,8.6949,8.5481,8.5159,3.8916,0.0,4.0994,4.0791,4.025,3.9844,0.0,3.9214,3.8328,0.0,0.0,3.887,3.9236,3.914,4.0432,0.0,0.0,0.0,0.0,0.0,0.0,0.0,0.0,0.0,0.0,0.0,0.0,0.0,0.0,0.0,7.2428,7.2778,7.2462,7.1334,7.1842,7.1875,7.13,7.1546,7.1655,7.1655,7.1895,7.2025,7.2023,7.3064,0.0,0.0,0.0,0.0,7.7281,7.7281,7.7179,7.6885,7.5454,7.4801,7.4434,7.3002,7.2488,7.2488,7.2488,7.2488,7.2488,7.2488,7.2488,7.2488,7.2488,7.2488,7.2642,7.323,7.2973,7.2642,7.3274,7.2973,7.2488,7.2488,7.2973,7.323,7.2642,7.4581,7.6371,7.6166,7.7304,7.8699,7.9882,7.9404,7.9433,8.1048,8.1114,8.115,8.157,8.1974,8.1672,8.0269,8.0637,8.0857,8.0461,7.969,7.9653,8.0645,8.1636,8.2553,8.3381,8.4756,8.5535,8.5535,8.6105,8.6436,8.6436,8.6436,8.6619,8.6986,8.6619,8.6546,3.6237,3.7544,3.8925,3.8903,3.8903,3.9026,3.9405,0.0,0.0,0.0,0.0,0.0,3.9094,0.0,0.0,0.0,0.0,0.0,0.0,0.0,0.0,0.0,0.0,0.0,0.0,0.0,0.0,0.0,0.0,7.3815,7.3431,7.3488,7.2981,7.1842,7.2191,7.2056,7.13,7.13,7.13,7.13,7.13,7.13,7.1356,7.2807,7.3807,0.0,0.0,0.0,7.7281,7.7281,7.6841,7.6114,7.5234,7.447,7.37,7.2819,7.2488,7.2488,7.2488,7.2488,7.2488,7.2488,7.2488,7.2488,7.2488,7.2488,7.2606,7.3046,7.2826,7.2606,7.3046,7.2826,7.2606,7.2973,7.3384,7.3678,7.3626,7.5278,7.6636,7.6159,7.7113,7.8259,7.9111,7.8552,7.8691,8.071,8.0388,8.0461,8.2011,8.1893,8.1636,8.1562,8.1562,8.1701,8.2068,8.1701,8.1636,8.2068,8.3214,8.4058,8.4499,8.5673,8.6334,8.6334,8.6766,8.6986,8.6986,8.6986,8.6986,8.6986,8.6986,8.6986,3.5876,3.8073,4.0142,3.97,3.9755,3.9933,3.9933,0.0,0.0,0.0,0.0,0.0,0.0,0.0,0.0,0.0,0.0,0.0,0.0,0.0,0.0,0.0,0.0,0.0,0.0,0.0,0.0,0.0,0.0,7.4717,7.4615,7.4119,7.3454,7.2597,7.2665,7.2326,7.147,7.1368,7.13,7.13,7.13,7.13,7.1368,7.3236,7.4139,0.0,0.0,0.0,7.7281,7.7281,7.6518,7.5234,7.5014,7.4067,7.2855,7.2606,7.2488,7.2488,7.2488,7.2488,7.2488,7.2488,7.2488,7.2525,7.2642,7.2679,7.2716,7.2819,7.2672,7.2562,7.2936,7.2863,7.2899,7.367,7.3971,7.4228,7.4801,7.5645,7.624,7.613,7.6746,7.7546,7.8259,7.7803,7.806,8.0306,7.969,7.969,8.1754,8.1525,8.1489,8.2296,8.2268,8.259,8.3499,8.372,8.3756,8.3756,8.5049,8.5865,8.5976,8.6619,8.6986,8.6986,8.6986,8.6986,8.6986,8.6986,8.706,8.717,8.706,8.706,3.72,3.9236,4.0419,3.794,3.8239,3.9174,0.0,0.0,0.0,0.0,0.0,0.0,0.0,0.0,0.0,0.0,0.0,0.0,0.0,0.0,0.0,0.0,0.0,0.0,0.0,0.0,0.0,0.0,0.0,0.0,7.4649,7.5067,7.474,7.3353,7.395,7.36,7.2259,7.1605,7.13,7.13,7.13,7.13,7.1345,7.2488,7.3502,0.0,0.0,7.6522,7.7281,7.7281,7.7134,7.6812,7.5417,7.4764,7.436,7.3002,7.2488,7.2488,7.2488,7.2488,7.2488,7.2488,7.2488,7.2642,7.331,7.3531,7.367,7.4324,7.3553,7.2973,7.5028,7.4551,7.3714,7.4507,7.5241,7.5579,7.5014,7.6078,7.6922,7.6232,7.6746,7.7355,7.7472,7.7391,7.7693,7.8809,7.991,8.0791,8.1158,8.1672,8.2333,8.3132,8.2627,8.281,8.4278,8.5049,8.5425,8.5425,8.5645,8.6114,8.6803,8.6913,8.6986,8.6986,8.6986,8.6986,8.6986,8.6986,8.7353,8.7986,8.7316,8.7353,3.5988,3.7996,3.9952,3.9795,4.0919,4.1927,0.0,0.0,0.0,0.0,0.0,0.0,0.0,0.0,0.0,0.0,0.0,0.0,0.0,0.0,0.0,0.0,0.0,0.0,0.0,0.0,0.0,0.0,0.0,0.0,7.5202,7.5506,7.5202,7.4119,7.4412,7.3871,7.2428,7.2462,7.209,7.13,7.13,7.13,7.1334,7.2342,7.3029,7.3552,0.0,7.5469,7.6279,7.6437,7.6481,7.6324,7.5309,7.4617,7.4147,7.3413,7.3413,7.381,7.381,7.381,7.381,7.381,7.381,7.3883,7.4258,7.4368,7.4515,7.5315,7.4691,7.4067,7.5168,7.4911,7.4544,7.5351,7.5836,7.6122,7.6188,7.6775,7.7179,7.6812,7.7032,7.7281,7.7281,7.7281,7.7582,7.8479,7.8838,7.9646,8.1415,8.1599,8.2186,8.3866,8.3728,8.3985,8.5159,8.5608,8.5976,8.6407,8.6444,8.6619,8.6986,8.6986,8.6986,8.6986,8.6986,8.7206,8.7647,8.7206,8.7647,8.8821,8.7573,8.7427,3.5284,3.7116,3.9519,0.0,0.0,0.0,0.0,0.0,0.0,0.0,0.0,0.0,0.0,0.0,0.0,0.0,0.0,0.0,0.0,0.0,0.0,0.0,0.0,0.0,0.0,0.0,0.0,0.0,0.0,0.0,7.5709,7.5709,7.5439,7.4886,7.4852,7.4153,7.2665,7.3375,7.3003,7.1571,7.1571,7.1571,7.1571,7.2583,7.3074,7.3126,7.4298,7.5147,7.5655,7.5701,7.5566,7.5287,7.453,7.3878,7.3426,7.3824,7.436,7.4903,7.4903,7.4903,7.4903,7.4903,7.4903,7.4948,7.5131,7.5168,7.5351,7.6159,7.5939,7.5454,7.5454,7.5307,7.5388,7.6195,7.6379,7.6562,7.7179,7.7281,7.7281,7.7281,7.7281,7.7281,7.7281,7.7281,7.7546,7.8214,7.8067,7.8875,8.1562,8.1562,8.2223,8.4609,8.4719,8.5013,8.6004,8.6077,8.6334,8.6949,8.6986,8.6986,8.6986,8.6986,8.6986,8.6986,8.7206,8.7582,8.8206,8.7757,8.8299,8.9657,8.8225,8.7977,3.7105,3.8294,3.9519,4.1758,0.0,0.0,0.0,0.0,0.0,0.0,0.0,0.0,0.0,0.0,0.0,0.0,0.0,0.0,0.0,0.0,0.0,0.0,0.0,0.0,0.0,0.0,0.0,0.0,0.0,0.0,7.5709,7.5709,7.5676,7.5608,7.5608,7.4897,7.3454,7.4153,7.3781,7.2326,7.2326,7.2326,7.2361,7.3374,7.3826,7.3913,7.5605,7.6382,7.6356,7.571,7.5014,7.4253,7.2785,7.2285,7.2605,7.4201,7.483,7.4903,7.4903,7.4903,7.4903,7.4903,7.4903,7.505,7.5792,7.6019,7.6159,7.6995,7.7171,7.7134,7.7134,7.6562,7.624,7.7032,7.7215,7.7244,7.7289,7.7281,7.7281,7.7281,7.7281,7.7281,7.7281,7.7281,7.7318,7.7391,7.8662,7.9992,8.0967,8.1672,8.3039,8.5462,8.5049,8.5233,8.6766,8.6913,8.6949,8.6986,8.6986,8.6986,8.6986,8.6986,8.6986,8.6986,8.7729,8.8133,8.8206,8.8895,8.9657,9.0473,8.962,8.9657,3.5554,3.768,4.0453,4.3606,0.0,0.0,0.0,0.0,0.0,0.0,0.0,0.0,0.0,0.0,0.0,0.0,0.0,0.0,0.0,0.0,0.0,0.0,0.0,0.0,0.0,0.0,0.0,0.0,0.0,0.0,0.0,7.527,7.5236,7.5676,7.5709,7.5202,7.4187,7.4931,7.4762,7.377,7.3308,7.3082,7.3094,7.3481,7.3649,7.3671,7.4342,7.4896,7.5319,7.5185,7.5267,7.5294,7.3905,7.3396,7.3592,7.4405,7.5031,7.5556,7.6195,7.6408,7.6408,7.6408,7.6408,7.6445,7.6738,7.6848,7.6922,7.7215,7.7281,7.7281,7.7281,7.7069,7.6922,7.7244,7.7281,7.7281,7.7281,7.7281,7.7281,7.7281,7.7281,7.7281,7.7281,7.7281,7.7472,7.8031,7.9074,8.0469,8.2251,8.3177,8.4425,8.6325,8.582,8.56,8.6187,8.6261,8.6481,8.6986,8.6986,8.6986,8.6986,8.6986,8.6986,8.6986,8.7802,8.8463,8.8968,8.9253,9.0069,9.1326,8.9996,8.984,3.5227,3.7449,4.0656,0.0,0.0,0.0,0.0,0.0,0.0,0.0,0.0,0.0,0.0,0.0,0.0,0.0,0.0,0.0,0.0,0.0,0.0,0.0,0.0,0.0,0.0,0.0,0.0,0.0,0.0,0.0,0.0,7.4987,7.4931,7.5676,7.5473,7.5089,7.4615,7.51,7.51,7.4615,7.4322,7.4063,7.386,7.386,7.386,7.3849,7.4097,7.4492,7.4956,7.4876,7.4902,7.4885,7.4341,7.4299,7.4685,7.5145,7.5912,7.6735,7.7168,7.7281,7.7281,7.7281,7.7281,7.7281,7.7281,7.7281,7.7281,7.7281,7.7281,7.7281,7.7281,7.7281,7.7281,7.7281,7.7281,7.7281,7.7281,7.7281,7.7281,7.7281,7.7281,7.7281,7.7281,7.7546,7.7921,7.8516,7.9515,8.0975,8.3132,8.4087,8.5123,8.6472,8.5894,8.5535,8.5792,8.5792,8.6151,8.6949,8.6986,8.6986,8.6986,8.6986,8.7133,8.7353,8.8161,8.8968,8.9767,9.0024,9.073,9.1767,9.0656,9.0436,3.679,3.79,0.0,0.0,0.0,0.0,0.0,0.0,0.0,0.0,0.0,0.0,0.0,0.0,0.0,0.0,0.0,0.0,0.0,0.0,0.0,0.0,0.0,0.0,0.0,0.0,0.0,0.0,0.0,0.0,0.0,7.4987,7.492,7.5642,7.4953,7.4581,7.4615,7.4615,7.4615,7.4615,7.5337,7.5303,7.4615,7.4615,7.4615,7.4649,7.5371,7.5676,7.5642,7.492,7.3747,7.2519,7.3508,7.4531,7.5567,7.6545,7.7587,7.8427,7.7575,7.7281,7.7281,7.7281,7.7281,7.7281,7.7281,7.7281,7.7281,7.7281,7.7281,7.7281,7.7281,7.7281,7.7281,7.7281,7.7281,7.7281,7.7281,7.7281,7.7281,7.7281,7.7281,7.7281,7.7318,7.8031,7.8589,7.8626,7.9984,8.1628,8.3242,8.4123,8.4903,8.5719,8.5086,8.4903,8.5719,8.5792,8.6114,8.6949,8.6986,8.6986,8.6986,8.6986,8.7353,8.8169,8.9005,8.9803,9.0583,9.14,9.1803,9.1803,9.1803,9.1803,3.679,3.9383,0.0,0.0,0.0,0.0,0.0,0.0,0.0,0.0,0.0,0.0,0.0,0.0,0.0,0.0,0.0,0.0,0.0,0.0,0.0,0.0,0.0,0.0,0.0,0.0,0.0,0.0,0.0,0.0,0.0,7.3443,7.3375,7.4131,7.3928,7.4086,7.4581,7.4615,7.4852,7.5371,7.5608,7.5303,7.4615,7.4615,7.4615,7.4615,7.4818,7.5236,7.5676,7.5473,7.483,7.394,7.3708,7.3487,7.345,7.463,7.5279,7.5728,7.6918,7.7281,7.7281,7.7281,7.7281,7.7281,7.7281,7.7281,7.7281,7.7281,7.7281,7.7281,7.7281,7.7281,7.7281,7.7281,7.7281,7.7281,7.7281,7.7281,7.7281,7.7281,7.7281,7.7509,7.8104,7.8442,7.9176,8.0873,8.2031,8.3454,8.5665,8.5637,8.5315,8.4976,8.4233,8.3866,8.4087,8.4646,8.5306,8.6114,8.6693,8.6986,8.6986,8.6986,8.7096,8.7353,8.8702,8.951,8.9767,9.1143,9.1803,9.1803,9.1803,9.1803,3.9666,0.0,0.0,0.0,0.0,0.0,0.0,0.0,0.0,0.0,0.0,0.0,0.0,0.0,0.0,0.0,0.0,0.0,0.0,0.0,0.0,0.0,0.0,0.0,0.0,0.0,0.0,0.0,0.0,0.0,0.0,7.28,7.2744,7.3488,7.3218,7.3421,7.4153,7.3883,7.4119,7.4842,7.4842,7.4424,7.3736,7.4345,7.475,7.5021,7.5021,7.5303,7.5709,7.5709,7.527,7.4547,7.4119,7.3753,7.3594,7.4401,7.5006,7.555,7.6854,7.7281,7.7281,7.7281,7.7281,7.7281,7.7281,7.7281,7.7281,7.7281,7.7281,7.7281,7.7281,7.7281,7.7281,7.7281,7.7281,7.7281,7.7281,7.7281,7.7399,7.7766,7.781,7.8067,7.8927,7.9323,8.0057,8.1489,8.2692,8.4042,8.5812,8.5343,8.4646,8.416,8.3389,8.3059,8.3381,8.383,8.4609,8.5719,8.5967,8.6325,8.6986,8.6986,8.7316,8.7932,8.8923,8.9693,9.0363,9.1326,9.1803,9.1803,9.1803,9.1803,0.0,0.0,0.0,0.0,0.0,0.0,0.0,0.0,0.0,0.0,0.0,0.0,0.0,0.0,0.0,0.0,0.0,0.0,0.0,0.0,0.0,0.0,0.0,0.0,0.0,0.0,0.0,0.0,0.0,0.0,0.0,7.2665,7.2597,7.3285,7.2665,7.2665,7.3387,7.2732,7.2778,7.3488,7.3488,7.315,7.2529,7.3803,7.4762,7.5405,7.5473,7.5473,7.5371,7.5337,7.4864,7.4209,7.4277,7.4434,7.47,7.5127,7.5937,7.6805,7.716,7.7281,7.7281,7.7281,7.7281,7.7281,7.7281,7.7281,7.7281,7.7281,7.7281,7.7281,7.7281,7.7281,7.7281,7.7281,7.7281,7.7281,7.7281,7.7355,7.7656,7.8442,7.8662,7.8964,7.9771,8.0534,8.104,8.1187,8.2545,8.3756,8.4499,8.3903,8.3381,8.3381,8.27,8.248,8.3242,8.3344,8.4013,8.5498,8.4976,8.5261,8.6729,8.6766,8.7573,8.9253,8.929,9.0069,9.1693,9.1767,9.1803,9.1803,9.1803,9.1803,0.0,0.0,0.0,0.0,0.0,0.0,0.0,0.0,0.0,0.0,0.0,0.0,0.0,0.0,0.0,0.0,0.0,0.0,0.0,0.0,0.0,0.0,0.0,0.0,0.0,0.0,0.0,0.0,0.0,0.0,7.174,7.1605,7.1605,7.1774,7.1605,7.1875,7.2631,7.2462,7.2778,0.0,7.3488,7.3421,7.3251,7.3003,7.2969,7.3138,7.3725,7.3657,7.3071,7.2484,7.1819,7.121,7.1774,7.1706,7.1532,7.3721,7.4681,7.5126,7.6725,7.7281,7.7281,7.7281,7.7281,7.7281,7.7281,7.7281,7.7281,7.7281,7.7281,7.7281,7.7281,7.7281,7.7281,7.7281,7.7281,7.7281,7.7281,7.7839,7.8369,7.8552,7.9111,7.9808,8.0608,8.0901,8.1444,8.2684,8.372,8.4389,8.4572,8.3903,8.3381,8.3381,8.27,8.2268,8.2443,8.3022,8.3564,8.3903,8.4344,8.4756,8.5114,8.5123,8.6179,8.8426,8.8463,8.9262,9.084,9.1473,9.1803,9.1803,9.1803,9.1803,0.0,0.0,0.0,0.0,0.0,0.0,0.0,0.0,0.0,0.0,0.0,0.0,0.0,0.0,0.0,0.0,0.0,0.0,0.0,0.0,0.0,0.0,0.0,0.0,0.0,0.0,0.0,0.0,0.0,7.13,7.13,7.13,7.13,7.13,7.13,7.147,7.1875,7.1875,7.209,7.2462,7.2462,7.2462,7.2462,7.2766,7.2529,7.1909,7.2665,7.2563,7.1842,7.147,7.0872,7.0274,7.0996,7.0838,7.046,7.2755,7.3869,7.4507,7.6035,7.6917,7.7281,7.7281,7.7281,7.7281,7.7281,7.7281,7.7281,7.7281,7.7281,7.7281,7.7281,7.7281,7.7281,7.7281,7.7281,7.7391,7.7847,7.8295,7.8846,7.9617,8.0094,8.0645,8.1452,8.1562,8.1856,8.27,8.3177,8.3434,8.3434,8.3067,8.2847,8.2847,8.2443,8.2194,8.2194,8.259,8.2986,8.3381,8.3426,8.3801,8.4572,8.3875,8.4939,8.8133,8.8206,8.8977,9.0583,9.14,9.1583,9.1216,9.162,9.1803,0.0,0.0,0.0,0.0,0.0,0.0,0.0,0.0,0.0,0.0,0.0,0.0,0.0,0.0,0.0,0.0,0.0,0.0,0.0,0.0,0.0,0.0,0.0,0.0,0.0,0.0,0.0,0.0,0.0,7.13,7.13,7.13,7.13,7.13,7.13,7.13,7.13,7.13,7.13,7.13,7.13,7.1233,7.1131,7.236,7.2259,7.1131,7.1616,7.1413,7.0692,7.059,7.015,6.9688,7.059,7.0567,7.0248,7.2114,7.3322,7.4206,7.5405,7.6239,7.6824,7.7196,7.7188,7.7066,7.7243,7.7281,7.7281,7.7281,7.7281,7.7281,7.7281,7.7281,7.7281,7.7281,7.7281,7.7509,7.8222,7.8589,7.9213,8.0534,8.1012,8.1415,8.2084,8.2194,8.2194,8.2194,8.2194,8.2194,8.2194,8.2194,8.2194,8.2194,8.2194,8.2194,8.2194,8.2194,8.248,8.3169,8.2553,8.2818,8.4132,8.292,8.392,8.7509,8.7839,8.8904,9.0803,9.1326,9.1179,9.04,9.0922,9.1106,0.0,0.0,0.0,0.0,0.0,0.0,0.0,0.0,0.0,0.0,0.0,0.0,0.0,0.0,0.0,0.0,0.0,0.0,0.0,0.0,0.0,0.0,0.0,0.0,0.0,0.0,0.0,0.0,7.0939,7.13,7.13,7.13,7.13,7.13,7.13,7.13,7.13,7.13,7.13,7.13,7.13,7.0962,7.0342,7.0545,7.0545,7.0308,6.9789,6.9079,6.8301,6.7647,6.7343,6.7411,6.8842,6.935,6.9525,7.1908,7.289,7.3272,7.5147,7.5325,7.5003,7.6736,7.672,7.6144,7.7035,7.7281,7.7281,7.7281,7.7281,7.7281,7.7281,7.7281,7.7281,7.7281,7.7281,7.7318,7.7428,7.8626,7.9706,7.9926,8.1093,8.2076,8.2194,8.2194,8.2194,8.2194,8.2194,8.2194,8.2194,8.2194,8.2194,8.2194,8.2194,8.2194,8.2194,8.2194,8.2268,8.2341,8.2268,8.2304,8.2517,8.2304,8.3104,8.5049,8.6436,8.8638,9.1657,9.1069,9.0363,8.9546,8.8977,8.8316,4.1684,0.0,0.0,0.0,0.0,0.0,0.0,0.0,0.0,0.0,0.0,0.0,0.0,0.0,0.0,0.0,0.0,0.0,0.0,0.0,0.0,0.0,0.0,0.0,0.0,0.0,0.0,0.0,7.0872,7.13,7.13,7.13,7.13,7.13,7.13,7.13,7.13,7.13,7.13,7.13,7.13,7.0906,7.0172,6.9755,6.936,6.8887,6.8571,6.7996,6.7242,6.6937,6.7039,6.7523,6.8673,6.935,6.9889,7.1422,7.2321,7.2931,7.3811,7.4196,7.4526,7.5985,7.6144,7.5993,7.6996,7.7281,7.7281,7.7281,7.7281,7.7281,7.7281,7.7281,7.7281,7.7281,7.7281,7.7281,7.7281,7.8626,8.0073,8.0983,8.1717,8.2194,8.2194,8.2194,8.2194,8.2194,8.2194,8.2194,8.2194,8.2194,8.2194,8.2194,8.2194,8.2194,8.2194,8.2194,8.2194,8.2194,8.2194,8.2194,8.2194,8.2194,8.2965,8.4572,8.5298,8.6591,8.8435,8.9445,8.9042,8.7399,8.8418,8.8197,0.0,0.0,0.0,0.0,0.0,0.0,0.0,0.0,0.0,0.0,0.0,0.0,0.0,0.0,0.0,0.0,0.0,0.0,0.0,0.0,0.0,0.0,0.0,0.0,0.0,0.0,0.0,0.0,7.05,7.0928,7.0759,7.1097,7.1199,7.103,7.1199,7.1199,7.103,7.103,7.103,7.103,7.1199,7.0838,6.9902,6.935,6.8571,6.7624,6.7624,6.7309,6.6802,6.6802,6.7106,6.7726,6.8707,6.9451,7.0026,7.0962,7.1753,7.2445,7.2693,7.31,7.3758,7.4994,7.5263,7.5209,7.6231,7.653,7.6579,7.684,7.694,7.698,7.7227,7.7281,7.7281,7.7281,7.7281,7.7355,7.7582,7.8626,7.9955,8.157,8.1893,8.1966,8.2158,8.2194,8.2194,8.2194,8.2194,8.2194,8.2194,8.2194,8.2194,8.2194,8.2194,8.2194,8.2194,8.2194,8.2194,8.2194,8.2194,8.2194,8.2194,8.2194,8.2774,8.3985,8.3985,8.4682,8.6114,8.772,8.7463,8.5535,8.7133,8.7124,0.0,0.0,0.0,4.9263,0.0,0.0,0.0,0.0,0.0,0.0,0.0,0.0,0.0,0.0,0.0,0.0,0.0,0.0,0.0,0.0,0.0,0.0,0.0,0.0,0.0,0.0,0.0,0.0,6.9428,6.9969,6.9248,7.0522,7.0962,7.0274,7.0939,7.0962,7.0274,7.0274,7.0274,7.0274,7.0962,7.0556,6.9147,6.9113,6.829,6.6869,6.6869,6.6836,6.6802,6.6802,6.6836,6.7005,6.8493,6.9113,6.9316,7.0759,7.1334,7.1512,7.2456,7.2193,7.1798,7.3749,7.3714,7.3131,7.4139,7.4451,7.4647,7.5606,7.5891,7.6086,7.7043,7.7281,7.7281,7.7281,7.7281,7.7546,7.8369,7.8589,7.914,8.0755,8.104,8.1305,8.2076,8.2194,8.2194,8.2194,8.2194,8.2194,8.2194,8.2194,8.2194,8.2194,8.2194,8.2194,8.2194,8.2194,8.2194,8.2194,8.2194,8.2194,8.2194,8.2194,8.2231,8.2333,8.2333,8.3838,8.6949,8.6297,8.5527,8.4646,8.4013,8.3242,0.0,0.0,0.0,4.6928,5.0431,5.3534,0.0,0.0,0.0,0.0,0.0,0.0,0.0,0.0,0.0,0.0,0.0,0.0,0.0,0.0,0.0,0.0,0.0,0.0,0.0,0.0,0.0,0.0,0.0,6.9597,6.98,7.0308,7.0703,7.0894,7.1165,7.0725,6.9519,6.9969,6.9699,6.8751,6.9992,6.9789,6.8335,6.8335,6.7749,6.6802,6.6802,6.6802,6.6802,6.6802,6.7072,6.7614,6.8673,6.9383,6.9936,7.0928,7.13,7.1356,7.1721,7.1589,7.1534,7.289,7.308,7.3003,7.3986,7.4291,7.4367,7.473,7.5316,7.59,7.6255,7.6816,7.7281,7.7281,7.7281,7.7391,7.7693,7.8626,7.9698,8.0783,8.1004,8.126,8.2048,8.2194,8.2011,8.1525,8.1856,8.2003,8.1489,8.1893,8.2194,8.2194,8.2194,8.2194,8.2194,8.2194,8.2194,8.2194,8.2194,8.2194,8.2194,8.2194,8.2194,8.2194,8.2194,8.2782,8.3911,8.4682,8.4352,8.3067,8.3838,8.3471,0.0,0.0,0.0,0.0,0.0,4.907,5.3873,0.0,5.8457,0.0,0.0,0.0,0.0,0.0,0.0,0.0,0.0,0.0,0.0,0.0,0.0,0.0,0.0,0.0,0.0,0.0,0.0,0.0,0.0,0.0,6.9045,6.9766,7.0534,7.13,7.0827,6.9947,6.8707,6.9451,6.918,6.7929,6.9462,6.953,6.8301,6.803,6.7489,6.6802,6.6802,6.6802,6.6836,6.7072,6.7309,6.7658,6.8944,6.9631,6.9969,7.0928,7.13,7.13,7.13,7.13,7.139,7.2077,7.23,7.2438,7.3095,7.3272,7.3352,7.3719,7.4282,7.4867,7.5201,7.5806,7.628,7.628,7.628,7.6353,7.6599,7.7883,7.9213,8.0021,8.0424,8.0865,8.1672,8.2011,8.2011,8.1489,8.1856,8.2003,8.1489,8.1856,8.2194,8.2194,8.2194,8.2194,8.2194,8.2194,8.2194,8.2194,8.2194,8.2194,8.2194,8.2194,8.2194,8.2194,8.2194,8.2194,8.2194,8.3251,8.3251,8.2231,8.3287,8.3214,0.0,0.0,0.0,0.0,0.0,0.0,5.1311,0.0,5.4566,5.9032,6.1173,0.0,0.0,0.0,0.0,0.0,0.0,0.0,0.0,0.0,0.0,0.0,0.0,0.0,0.0,0.0,0.0,0.0,6.7489,6.7546,6.6869,6.8977,7.0534,7.1233,6.988,6.8741,6.7929,6.8741,6.8707,6.7929,6.9428,6.9766,6.9045,6.8233,6.7489,6.6802,6.6836,6.6836,6.6903,6.759,6.7478,6.7106,6.9327,6.9766,6.9316,7.0759,7.13,7.13,7.13,7.13,7.13,7.13,7.13,7.13,7.13,7.13,7.1501,7.2477,7.2766,7.3044,7.4024,7.4291,7.4291,7.4291,7.4291,7.4494,7.5218,7.6356,7.7468,7.8401,7.9187,7.9957,8.0784,8.1599,8.2121,8.2117,8.2117,8.2125,8.215,8.2158,8.2158,8.2194,8.2194,8.2194,8.2194,8.2194,8.2194,8.2194,8.2194,8.2194,8.2194,8.2194,8.2194,8.2194,8.2194,8.2194,8.2194,8.2194,8.2194,8.2194,8.2194,8.2194,3.1026,0.0,0.0,0.0,0.0,0.0,0.0,0.0,0.0,5.5082,5.7721,5.9853,0.0,0.0,0.0,0.0,0.0,0.0,0.0,0.0,0.0,0.0,0.0,0.0,0.0,0.0,0.0,0.0,6.7275,6.7242,6.759,6.9248,7.0308,7.0511,7.0105,6.953,6.8774,6.953,6.9225,6.7895,6.891,6.8977,6.8199,6.7444,6.7005,6.6836,6.7343,6.759,6.7624,6.7827,6.8132,6.8571,6.9766,7.0071,7.0003,7.0962,7.13,7.13,7.13,7.13,7.13,7.13,7.13,7.13,7.13,7.13,7.1368,7.1633,7.2236,7.3044,7.4024,7.4291,7.4291,7.4291,7.4291,7.4362,7.4565,7.4863,7.571,7.766,7.7723,7.7921,7.9317,7.9756,7.9965,8.0159,8.0156,8.0435,8.1224,8.1342,8.1562,8.2158,8.2194,8.2194,8.2194,8.2194,8.2194,8.2194,8.2194,8.2194,8.2194,8.2194,8.2194,8.2194,8.2194,8.2194,8.2194,8.2194,8.2194,8.2194,8.2194,8.2194,0.0,0.0,0.0,0.0,0.0,0.0,0.0,4.412,0.0,0.0,5.4735,5.6867,5.9582,6.1264,0.0,0.0,0.0,0.0,0.0,0.0,0.0,0.0,0.0,0.0,0.0,6.7039,6.6971,6.7421,6.7039,6.7106,6.7861,6.8751,6.9383,6.9733,6.9428,6.9011,6.8605,6.936,6.9293,6.8402,6.918,6.9147,6.8402,6.7952,6.7411,6.6836,6.758,6.8098,6.8402,6.8402,6.8673,6.9214,7.0263,7.0477,7.0308,7.103,7.13,7.13,7.13,7.13,7.13,7.13,7.13,7.13,7.13,7.13,7.13,7.13,7.1732,7.2311,7.288,7.3044,7.3044,7.3044,7.3044,7.3113,7.3426,7.3496,7.4085,7.5982,7.6495,7.6904,7.7825,7.8568,7.9208,7.9819,7.9892,8.0285,8.1375,8.1489,8.1672,8.2158,8.2194,8.2194,8.2194,8.2194,8.2194,8.2194,8.2194,8.2194,8.2194,8.2194,8.2194,8.2194,8.2194,8.2194,8.2194,8.2194,8.2194,8.2194,8.2194,8.2194,0.0,0.0,0.0,0.0,0.0,0.0,4.1894,4.2503,4.3267,0.0,5.1209,5.2968,5.5369,5.7094,5.8583,5.9969,0.0,0.0,0.0,0.0,0.0,0.0,0.0,0.0,6.6802,6.6802,6.6802,6.6802,6.6802,6.7106,6.7726,6.7861,6.8233,6.8944,6.8368,6.803,6.803,6.8808,6.9214,6.9214,6.9902,6.9868,6.9214,6.9214,6.847,6.7208,6.7963,6.8673,6.935,6.935,6.935,6.9485,7.0793,7.0894,7.0409,7.1064,7.13,7.13,7.13,7.13,7.13,7.13,7.13,7.13,7.13,7.13,7.13,7.13,7.13,7.13,7.13,7.13,7.13,7.13,7.13,7.147,7.2157,7.2326,7.274,7.3866,7.5331,7.6398,7.6503,7.7676,7.9003,8.0069,8.0276,8.0704,8.1857,8.2056,8.2113,8.2194,8.2194,8.2194,8.2194,8.2194,8.2194,8.2194,8.2194,8.2194,8.2194,8.2194,8.2194,8.2194,8.2194,8.2194,8.2194,8.2194,8.2194,8.2194,8.2194,8.2194,0.0,0.0,0.0,0.0,0.0,0.0,0.0,3.6778,3.8713,0.0,4.3463,4.5534,4.9003,5.1336,5.2824,5.3129,5.695,6.1042,0.0,0.0,0.0,0.0,0.0,0.0,6.6802,6.6802,6.6802,6.6802,6.6802,6.6869,6.7005,6.759,6.7963,6.8132,6.8605,6.8876,6.8876,6.962,7.0003,7.0003,7.0139,7.0105,7.0003,7.0003,6.9834,6.9597,7.0331,7.0725,7.0861,7.0861,7.0861,7.0894,7.1199,7.1199,7.1097,7.1267,7.13,7.13,7.13,7.13,7.13,7.13,7.13,7.13,7.13,7.13,7.13,7.13,7.13,7.13,7.13,7.13,7.13,7.13,7.13,7.1334,7.147,7.1988,7.2463,7.2718,7.3967,7.5197,7.5777,7.613,7.6724,7.7779,7.8181,7.8974,8.0704,8.1116,8.1489,8.2121,8.2194,8.2194,8.2194,8.2194,8.2194,8.2194,8.2194,8.2194,8.2194,8.2194,8.2194,8.2194,8.2194,8.2194,8.2194,8.2194,8.2194,8.2194,8.2194,8.2194,0.0,0.0,0.0,3.7403,0.0,0.0,0.0,0.0,0.0,4.0041,4.0663,4.1677,4.5046,4.688,4.8274,4.9375,5.3332,5.6756,5.8254,0.0,0.0,0.0,0.0,0.0,6.6203,6.6237,6.6396,6.6768,6.6802,6.6802,6.6802,6.714,6.7343,6.7343,6.7749,6.8324,6.9079,6.9451,7.0026,7.0737,7.0737,7.0737,7.077,7.1142,7.1109,7.0804,7.1548,7.1639,7.13,7.13,7.13,7.13,7.13,7.13,7.13,7.13,7.13,7.13,7.13,7.13,7.13,7.13,7.13,7.13,7.13,7.13,7.13,7.13,7.13,7.13,7.13,7.13,7.13,7.13,7.13,7.13,7.13,7.2157,7.2947,7.2947,7.4153,7.5168,7.5168,7.5473,7.6067,7.7138,7.794,7.8934,8.0423,8.1188,8.1746,8.2158,8.2194,8.2194,8.2194,8.2194,8.2194,8.2194,8.2194,8.2194,8.2194,8.2194,8.2194,8.2194,8.2194,8.2194,8.2194,8.2194,8.2194,8.2194,8.2194,8.2194,0.0,0.0,0.0,0.0,0.0,3.7437,0.0,0.0,0.0,0.0,0.0,0.0,0.0,0.0,0.0,0.0,0.0,0.0,0.0,0.0,0.0,0.0,0.0,0.0,6.4793,6.459,6.4952,6.6294,6.5855,6.5821,6.6531,6.6734,6.6802,6.6802,6.6802,6.7411,6.8639,6.8944,6.9688,7.0894,7.1165,7.1368,7.1537,7.2293,7.236,7.1977,7.2563,7.2428,7.1706,7.1436,7.1233,7.1097,7.1233,7.1199,7.1097,7.1267,7.1199,7.1097,7.1267,7.13,7.13,7.13,7.13,7.13,7.13,7.13,7.13,7.13,7.13,7.13,7.13,7.13,7.13,7.13,7.13,7.13,7.13,7.2462,7.3488,7.3488,7.4571,7.5337,7.4886,7.5303,7.5985,7.6871,7.7949,7.9063,8.0135,8.1221,8.1969,8.217,8.2194,8.2194,8.2194,8.2194,8.2194,8.2194,8.2194,8.2194,8.2194,8.2194,8.2194,8.2194,8.2194,8.2194,8.2194,8.2194,8.2194,8.2194,8.2194,8.2194,0.0,0.0,0.0,0.0,4.1386,0.0,0.0,0.0,0.0,0.0,0.0,0.0,0.0,0.0,0.0,0.0,0.0,0.0,0.0,4.9101,0.0,0.0,0.0,0.0,0.0,6.0578,6.1187,6.458,6.2381,6.2313,6.5639,6.644,6.6802,6.6802,6.6802,6.6859,6.7072,6.8436,6.918,6.9383,7.0692,7.1639,7.2293,7.3048,7.3691,7.4243,7.4311,7.3916,7.315,7.1842,7.0906,7.0409,7.103,7.0894,7.0409,7.1064,7.0906,7.0409,7.1064,7.13,7.13,7.13,7.13,7.13,7.13,7.13,7.13,7.13,7.13,7.13,7.13,7.13,7.13,7.13,7.13,7.13,7.13,7.2462,7.3488,7.3488,7.4153,7.492,7.5473,7.5642,7.5723,7.5865,7.6792,7.7907,7.9043,8.0107,8.1142,8.2113,8.2194,8.2194,8.2194,8.2194,8.2194,8.2194,8.2194,8.2194,8.2194,8.2194,8.2194,8.2194,8.2194,8.2194,8.2194,8.2194,8.2194,8.2194,8.2194,8.2194,0.0,0.0,0.0,0.0,0.0,0.0,0.0,0.0,3.5464,0.0,0.0,0.0,0.0,0.0,0.0,0.0,0.0,0.0,0.0,0.0,0.0,0.0,0.0,0.0,0.0,0.0,0.0,0.0,6.0409,6.1086,6.485,6.5764,6.6373,6.6802,6.6802,6.7242,6.8121,6.8774,6.9519,7.0387,7.0996,7.1921,7.3048,7.3353,7.4131,7.519,7.4784,7.4187,7.3421,7.236,7.1244,7.024,7.0534,7.0195,6.9586,6.9925,7.0094,7.024,7.0534,7.0939,7.13,7.13,7.13,7.13,7.13,7.13,7.13,7.13,7.13,7.13,7.13,7.13,7.13,7.13,7.13,7.1436,7.1842,7.2766,7.3624,7.4052,7.4378,7.4818,7.5574,7.5337,7.5202,7.5642,7.7194,7.8474,7.8933,8.0486,8.1706,8.2154,8.2194,8.2194,8.2194,8.2194,8.2194,8.2194,8.2194,8.2194,8.2194,8.2194,8.2194,8.2194,8.2194,8.2194,8.2194,8.2194,8.2194,8.2194,8.2194,8.2194,4.6027,0.0,0.0,0.0,0.0,0.0,0.0,0.0,0.0,0.0,0.0,0.0,0.0,0.0,0.0,0.0,0.0,0.0,0.0,0.0,0.0,0.0,0.0,0.0,0.0,5.3585,0.0,0.0,0.0,5.8549,6.3125,6.4285,6.5131,6.5889,6.6294,6.714,6.8459,6.8876,6.9755,7.0996,7.1199,7.1988,7.3218,7.3218,7.3793,7.4762,7.4221,7.3443,7.2541,7.1785,7.0737,6.9563,6.936,6.8944,6.8538,6.8944,6.9282,6.9631,7.0037,7.0669,7.13,7.13,7.13,7.13,7.13,7.13,7.13,7.13,7.13,7.13,7.13,7.13,7.13,7.13,7.1436,7.174,7.2293,7.3138,7.395,7.448,7.4446,7.4593,7.554,7.5089,7.4852,7.5574,7.7072,7.8318,7.8923,8.034,8.1542,8.2137,8.2194,8.2194,8.2194,8.2194,8.2194,8.2194,8.2194,8.2194,8.2194,8.2194,8.2194,8.2194,8.2194,8.2194,8.2194,8.2194,8.2194,8.2194,8.2194,8.2194,0.0,0.0,0.0,0.0,0.0,0.0,0.0,0.0,3.9331,0.0,0.0,0.0,0.0,0.0,0.0,0.0,0.0,0.0,0.0,0.0,0.0,0.0,0.0,0.0,0.0,4.7699,4.8477,0.0,5.2037,0.0,5.9877,6.167,6.2854,6.3579,6.4986,6.6112,6.6869,6.8358,6.9485,7.024,7.0973,7.1706,7.2428,7.2428,7.2462,7.2496,7.2496,7.1661,7.024,6.9519,6.8707,6.7895,6.7174,6.6903,6.7039,6.8561,6.8605,6.8199,6.9699,7.0669,7.13,7.13,7.13,7.13,7.13,7.13,7.13,7.13,7.13,7.13,7.13,7.13,7.13,7.13,7.1842,7.236,7.2394,7.3544,7.4581,7.4615,7.4018,7.3996,7.5439,7.5089,7.4852,7.5574,7.5747,7.6577,7.872,7.9053,7.9909,8.1977,8.2194,8.2194,8.2194,8.2194,8.2194,8.2194,8.2194,8.2194,8.2194,8.2194,8.2194,8.2194,8.2194,8.2194,8.2194,8.2194,8.2194,8.2194,8.2194,8.2194,0.0,0.0,5.2604,4.7616,0.0,0.0,0.0,0.0,0.0,0.0,0.0,0.0,0.0,0.0,0.0,0.0,0.0,0.0,0.0,0.0,0.0,0.0,0.0,0.0,0.0,0.0,0.0,0.0,4.9653,0.0,0.0,6.1037,6.2753,6.3477,6.4918,6.6282,6.7523,6.8064,6.918,7.0928,7.1165,7.1436,7.1672,7.1672,7.1672,7.1639,7.1154,7.0646,7.0139,6.9417,6.8639,6.7895,6.7624,6.7242,6.6859,6.7377,6.7715,6.8064,6.9113,6.9958,7.0567,7.0567,7.0894,7.13,7.13,7.13,7.13,7.13,7.13,7.13,7.13,7.13,7.13,7.13,7.1503,7.1943,7.2913,7.3522,7.4153,7.5134,7.4728,7.4525,7.554,7.5089,7.4852,7.5574,7.63,7.7015,7.7779,7.8536,7.9536,8.0973,8.1142,8.1431,8.2145,8.2194,8.2194,8.2194,8.2194,8.2194,8.2194,8.2194,8.2194,8.2194,8.2194,8.2194,8.2194,8.2194,8.2194,8.2194,8.2194,8.2194,5.6224,5.5962,0.0,5.0871,4.8612,0.0,4.1333,0.0,0.0,0.0,0.0,0.0,0.0,0.0,0.0,0.0,0.0,0.0,0.0,0.0,0.0,0.0,0.0,0.0,0.0,0.0,4.2516,4.6027,4.6508,0.0,0.0,0.0,6.0723,6.2236,6.4005,6.5865,6.7895,6.8199,6.935,7.13,7.103,7.0906,7.0894,7.0624,7.0353,7.0049,6.9586,6.9214,6.8944,6.847,6.7996,6.7512,6.7512,6.7208,6.6802,6.6802,6.7286,6.7963,6.8504,6.936,7.0206,7.0206,7.0703,7.13,7.13,7.13,7.13,7.13,7.13,7.13,7.13,7.13,7.13,7.13,7.1706,7.2326,7.3285,7.3894,7.4571,7.5506,7.5089,7.4818,7.5574,7.5089,7.4852,7.5574,7.6289,7.6871,7.7259,7.7939,7.8832,7.9918,8.0376,8.1045,8.2121,8.2194,8.2194,8.2194,8.2194,8.2194,8.2194,8.2194,8.2194,8.2194,8.2194,8.2194,8.2194,8.2194,8.2194,8.2194,8.2194,8.2194]},{"header":{"parameterUnit":"m.s-1","parameterCategory":1,"la1":30.6,"la2":29.2853,"lo1":-89.7004,"lo2":-87.6739,"dy":0.0162,"dx":0.0183,"nx":112,"ny":82,"refTime":"2025-11-22T12:00:00:Z","depth":0,"parameterNumber":3,"parameterNumberName":"V-component_of_WINDS"},"data":[0.0,0.0,0.0,0.0,0.0,0.0,0.0,0.0,0.0,0.0,0.0,0.0,0.0,0.0,0.0,0.0,0.0,0.0,0.0,0.0,0.0,0.0,0.0,0.0,0.0,0.0,0.0,0.0,0.0,0.0,0.0,0.0,0.0,0.0,0.0,0.0,0.0,0.0,0.0,0.0,0.0,0.0,0.0,0.0,0.0,0.0,0.0,0.0,0.0,0.0,0.0,0.0,0.0,0.0,0.0,0.0,0.0,0.0,0.0,0.0,0.0,0.0,0.0,0.0,0.0,0.0,0.0,0.0,0.0,0.0,0.0,0.0,0.0,0.0,0.0,0.0,0.0,0.0,0.0,0.0,0.0,0.0,0.0,0.0,0.0,0.0,0.0,0.0,0.0,0.0,0.0,0.8335,0.9252,0.9746,0.9604,0.9429,0.8838,0.7672,0.0,0.0,0.0,0.0,0.0,0.0,0.0,0.0,0.0,0.0,0.0,0.0,0.0,0.0,0.0,0.0,0.0,0.0,0.0,0.0,0.0,0.0,0.0,0.0,0.0,0.0,0.0,0.0,0.0,0.0,0.0,0.0,0.0,0.0,0.0,0.0,0.0,0.0,0.0,0.0,0.0,0.0,0.0,0.0,0.0,0.0,0.0,0.0,0.0,0.0,0.0,0.0,0.0,0.0,0.0,0.0,0.0,0.0,0.0,0.0,0.0,0.0,0.0,0.0,0.0,0.0,0.0,0.0,0.0,0.0,0.0,0.0,0.0,0.0,0.0,0.0,0.0,0.0,0.0,0.0,0.0,0.0,0.0,0.0,0.0,0.0,0.0,0.0,0.0,0.0,0.0,0.0,0.0,0.0,0.0,0.0,0.0,0.0,0.0,0.0,0.0,0.0,0.0,0.0,0.7357,0.89,0.9503,0.9746,0.9604,0.921,0.8574,0.7658,0.0,0.0,0.0,0.0,0.0,0.0,0.0,0.0,0.0,0.0,0.0,0.0,0.0,0.0,0.0,0.0,0.0,0.0,0.0,0.0,0.0,0.0,0.0,0.0,0.0,0.0,0.0,0.0,0.0,0.0,0.0,0.0,0.0,0.0,0.0,0.0,0.0,0.0,0.0,0.0,0.0,0.0,0.0,0.0,0.0,0.0,0.0,0.0,0.0,0.0,0.0,0.0,0.0,0.0,0.0,0.0,0.0,0.0,0.0,0.0,0.0,0.0,0.0,0.0,0.0,0.0,0.0,0.0,0.0,0.0,0.0,0.0,0.0,0.0,0.0,0.0,0.0,0.0,0.0,0.0,0.0,0.0,0.0,0.0,0.0,0.0,0.0,0.0,0.0,0.0,0.0,0.0,0.0,0.0,0.0,0.0,0.0,0.0,0.0,0.0,0.0,0.0,0.0,0.729,0.8022,0.9179,0.9605,0.9746,0.9604,0.9169,0.8527,0.7658,0.6896,0.0,0.0,0.0,0.0,0.0,0.0,0.0,0.0,0.0,0.0,0.0,0.0,0.0,0.0,0.0,0.0,0.0,0.0,0.0,0.0,0.0,0.0,0.0,0.0,0.0,0.0,0.0,0.0,0.0,0.0,0.0,0.0,0.0,0.0,0.0,0.0,0.0,0.0,0.0,0.0,0.0,0.0,0.0,0.0,0.0,0.0,0.0,0.0,0.0,0.0,0.0,0.0,0.0,0.0,0.0,0.0,0.0,0.0,0.0,0.0,0.0,0.0,0.0,0.0,0.0,0.0,0.0,0.0,0.0,0.0,0.0,0.0,0.0,0.0,0.0,0.0,0.0,0.0,0.0,0.0,0.0,0.0,0.0,0.0,0.0,0.0,0.0,0.0,0.0,0.0,0.0,0.0,0.0,0.0,0.0,0.0,0.0,0.0,0.0,0.0,0.0,0.0,0.8106,0.8689,0.9328,0.9612,0.9698,0.9564,0.9021,0.8344,0.7531,0.6641,0.0,0.0,0.0,0.0,0.0,0.0,0.0,0.0,0.0,0.0,0.0,0.0,0.0,0.0,0.0,0.0,0.0,0.0,0.0,0.0,0.0,0.0,0.0,0.0,0.0,0.0,0.0,0.0,0.0,0.0,0.0,0.0,0.0,0.0,0.0,0.0,0.0,0.0,0.0,0.0,0.0,0.0,0.0,0.0,0.0,0.0,0.0,0.0,0.0,0.0,0.0,0.0,0.0,0.0,0.0,0.0,0.0,0.0,0.0,0.0,0.0,0.0,0.0,0.0,0.0,0.0,0.0,0.0,0.0,0.0,0.0,0.0,0.0,0.0,0.0,0.0,0.0,0.0,0.0,0.0,0.0,0.0,0.0,0.0,0.0,0.0,0.0,0.0,0.0,0.0,0.0,0.0,0.0,0.0,0.0,0.0,0.0,0.0,0.0,0.0,0.0,0.0,0.8149,0.9001,0.9362,0.953,0.9564,0.9423,0.8588,0.7798,0.7177,0.6197,0.0,0.0,0.0,0.0,0.0,0.0,0.0,0.0,0.0,0.0,0.0,0.0,0.0,0.0,0.0,0.0,0.0,0.0,0.0,0.0,0.0,0.0,0.0,0.0,0.0,0.0,0.0,0.0,0.0,0.0,0.0,0.0,0.0,0.0,0.0,0.0,0.0,0.0,0.0,0.0,0.0,0.0,0.0,0.0,0.0,0.0,0.0,0.0,0.0,0.0,0.0,0.0,0.0,0.0,0.0,0.0,0.0,0.0,0.0,0.0,0.0,0.0,0.0,0.0,0.0,0.0,0.0,0.0,0.0,0.0,0.0,0.0,0.0,0.0,0.0,0.0,0.0,0.0,0.0,0.0,0.0,0.0,0.0,0.0,0.0,0.0,0.0,0.0,0.0,0.0,0.0,0.0,0.0,0.0,0.0,0.0,0.0,0.0,0.0,0.0,0.0,0.0,0.7938,0.8757,0.0,0.9517,0.9551,0.9409,0.8811,0.8054,0.7152,0.0,0.0,0.0,0.0,0.0,0.0,0.0,0.0,0.0,0.0,0.0,0.0,0.0,0.0,0.0,0.0,0.0,0.0,0.0,0.0,0.0,0.0,0.0,0.0,0.0,0.0,0.0,0.0,0.0,0.0,0.0,0.0,0.0,0.0,0.0,0.0,0.0,0.0,0.0,0.0,0.0,0.0,0.0,0.0,0.0,0.0,0.0,0.0,0.0,0.0,0.0,0.0,0.0,0.0,0.0,0.0,0.0,0.0,0.0,0.0,0.0,0.0,0.0,0.0,0.0,0.0,0.0,0.0,0.0,0.0,0.0,0.0,0.0,0.0,0.0,0.0,0.0,0.0,0.0,0.0,0.0,0.0,0.0,0.0,0.0,0.0,0.0,0.0,0.0,0.0,0.0,0.0,0.0,0.0,0.0,0.0,0.0,0.0,0.0,0.0,0.0,0.0,0.6988,0.791,0.8743,0.0,0.9585,0.9617,0.953,0.8933,0.8147,0.7163,0.0,0.0,0.0,0.0,0.0,0.0,0.0,0.0,0.0,0.0,0.0,0.0,0.0,0.0,0.0,0.0,0.0,0.0,0.0,0.0,0.0,0.0,0.0,0.0,0.0,0.0,0.0,0.0,0.0,0.0,0.0,0.0,0.0,0.0,0.0,0.0,0.0,0.0,0.0,0.0,0.0,0.0,0.0,0.0,0.0,0.0,0.0,0.0,0.0,0.0,0.0,0.0,0.0,0.0,0.0,0.0,0.0,0.0,0.0,0.0,0.0,0.0,0.0,0.0,0.0,0.0,0.0,0.0,0.0,0.0,0.0,0.0,0.0,0.0,0.0,0.0,0.0,0.0,0.0,0.0,0.0,0.0,0.0,0.0,0.0,0.0,0.0,0.0,0.0,0.0,0.0,0.0,0.0,0.0,0.0,0.0,0.0,0.0,0.0,0.0,0.0,0.0,0.7035,0.8163,0.9088,0.9549,0.9725,0.9807,0.9807,0.8886,0.7962,0.0,0.0,0.0,0.0,0.0,0.0,0.0,0.0,0.0,0.0,0.0,0.0,0.0,0.0,0.0,0.0,0.0,0.0,0.0,0.0,0.0,0.0,0.0,0.0,0.0,0.0,0.0,0.0,0.0,0.0,0.0,0.0,0.0,0.0,0.0,0.0,0.0,0.0,0.0,0.0,0.0,0.0,0.0,0.0,0.0,0.0,0.0,0.0,0.0,0.0,0.0,0.0,0.0,0.0,0.0,0.0,0.0,0.0,0.0,0.0,0.0,0.0,0.0,0.0,0.0,0.0,0.0,0.0,0.0,0.0,0.0,0.0,0.0,0.0,0.0,0.0,0.0,0.0,0.0,0.0,0.0,0.0,0.0,0.0,0.0,0.0,0.0,0.0,0.0,0.0,0.0,0.0,0.0,0.0,0.0,0.0,0.0,0.0,0.0,0.0,0.0,0.0,0.0,0.0,0.8506,0.9407,0.9839,0.9911,0.9907,0.9814,0.9143,0.8317,0.7378,0.0,0.0,0.0,0.0,0.0,0.0,0.0,0.0,0.0,0.0,0.0,0.0,0.0,0.0,0.0,0.0,0.0,0.0,0.0,0.0,0.0,0.0,0.0,0.0,0.0,0.0,0.0,0.0,0.0,0.0,0.0,0.0,0.0,0.0,0.0,0.0,0.0,0.0,0.0,0.0,0.0,0.0,0.0,0.0,0.0,0.0,0.0,0.0,0.0,0.0,0.0,0.0,0.0,0.0,0.0,0.0,0.0,0.0,0.0,0.0,0.0,0.0,0.0,0.0,0.0,0.0,0.0,0.0,0.0,0.0,0.0,0.0,0.0,0.0,0.0,0.0,0.0,0.0,0.0,0.0,0.0,0.0,0.0,0.0,0.0,0.0,0.0,0.0,0.0,0.0,0.0,0.0,0.0,0.0,0.0,0.0,0.0,0.0,0.0,0.0,0.0,0.0,0.8174,0.8986,0.9646,1.0062,1.0125,1.0049,0.9893,0.9393,0.8642,0.7548,0.0,0.0,0.0,0.0,0.0,0.0,0.0,0.0,0.0,0.0,0.0,0.0,0.0,0.0,0.0,0.0,0.0,0.0,0.0,0.0,0.0,0.0,0.0,0.0,0.0,0.0,0.0,0.0,0.0,0.0,0.0,0.0,0.0,0.0,0.0,0.0,0.0,0.0,0.0,0.0,0.0,0.0,0.0,0.0,0.0,0.0,0.0,0.0,0.0,0.0,0.0,0.0,0.0,0.0,0.0,0.0,0.0,0.0,0.0,0.0,0.0,0.0,0.0,0.0,0.0,0.0,0.0,0.0,0.0,0.0,0.0,0.0,0.0,0.0,0.0,0.0,0.0,0.0,0.0,0.0,0.0,0.0,0.0,0.0,0.0,0.0,0.0,0.0,0.0,0.0,0.0,0.0,0.0,0.0,0.0,0.0,0.0,0.0,0.0,0.0,0.0,0.0,0.9088,0.9463,0.9822,1.0292,1.0326,1.0229,1.0019,0.9637,0.8913,0.7719,0.0,0.0,0.0,0.0,0.0,0.0,0.0,0.0,0.0,0.0,0.0,0.0,0.0,0.0,0.0,0.0,0.0,0.0,0.0,0.0,0.0,0.0,0.0,0.0,0.0,0.0,0.0,0.0,0.0,0.0,0.0,0.0,0.0,0.0,0.0,0.0,0.0,0.0,0.0,0.0,0.0,0.0,0.0,0.0,0.0,0.0,0.0,0.0,0.0,0.0,0.0,0.0,0.0,0.0,0.0,0.0,0.0,0.0,0.0,0.0,1.3337,0.0,0.0,0.0,0.0,0.0,0.0,0.0,0.0,0.0,0.0,0.0,0.0,0.0,0.0,0.0,0.0,0.0,0.0,0.0,0.0,0.0,0.0,0.0,0.0,0.0,0.0,0.0,0.0,0.0,0.0,0.0,0.0,0.0,0.0,0.0,0.0,0.0,0.0,0.0,0.0,0.0,0.8469,0.9325,1.0096,1.0559,1.0521,1.0337,1.0026,0.9732,0.9082,0.7986,0.0,0.0,0.0,0.0,0.0,0.0,0.0,0.0,0.0,0.0,0.0,0.0,0.0,0.0,0.0,0.0,0.0,0.0,0.0,0.0,0.0,0.0,0.0,0.0,0.0,0.0,0.0,0.0,0.0,0.0,0.0,0.0,0.0,0.0,0.0,0.0,0.0,0.0,0.0,0.0,0.0,0.0,0.0,0.0,0.0,0.0,0.0,0.0,0.0,0.0,0.0,0.0,0.0,0.0,0.0,0.0,0.0,0.0,0.0,0.0,0.0,1.416,0.0,0.0,0.0,0.0,0.0,0.0,0.0,0.0,0.0,0.0,0.0,0.0,0.0,0.0,0.0,0.0,0.0,0.0,0.0,0.0,0.0,0.0,0.0,0.0,0.0,0.0,0.0,0.0,0.0,0.0,0.0,0.0,0.0,0.0,0.0,0.0,0.0,0.0,0.0,0.0,1.1207,1.1312,1.1458,1.1898,1.1018,1.0608,1.1116,1.0197,0.9595,0.9588,0.8286,0.0,0.0,0.0,0.0,0.0,0.0,0.0,0.0,0.0,0.0,0.0,0.0,0.0,0.0,0.0,0.0,0.0,0.0,0.0,0.0,0.0,0.0,0.0,0.0,0.0,0.0,0.0,0.0,0.0,0.0,0.0,0.0,0.0,0.0,0.0,0.0,0.0,0.0,0.0,0.0,0.0,0.0,0.0,0.0,0.0,0.0,0.0,0.0,0.0,0.0,0.0,0.0,0.0,1.8557,1.9011,1.9185,1.9518,1.9637,1.9474,1.7209,1.6394,1.6543,0.0,0.0,0.0,0.0,0.0,0.0,0.0,0.0,0.0,0.0,0.0,0.0,0.0,0.0,0.0,0.0,0.0,0.0,0.0,0.0,0.0,0.0,0.0,0.0,0.0,1.1553,1.1083,0.0,0.0,0.0,0.0,0.0,0.0,0.0,0.0,0.0,0.0,0.0,0.0,1.4279,1.3693,1.329,1.3654,1.2186,1.1493,1.2302,1.0967,1.0332,1.0896,0.9476,0.8304,0.0,0.0,0.0,0.0,0.0,0.0,0.0,0.0,0.0,0.0,0.0,0.0,0.0,0.0,0.0,0.0,0.0,0.0,0.0,0.0,0.0,0.0,0.0,0.0,0.0,0.0,0.0,0.0,0.0,0.0,0.0,0.0,1.3157,1.3043,0.0,0.0,0.0,0.0,0.0,0.0,0.0,0.0,0.0,0.0,0.0,0.0,0.0,0.0,1.8476,1.9599,2.0189,2.0258,2.1841,2.2348,2.1908,2.2451,2.2592,2.2342,2.1985,0.0,1.8183,1.7888,0.0,0.0,0.0,0.0,0.0,0.0,0.0,0.0,0.0,0.0,0.0,0.0,0.0,0.0,0.0,0.0,0.0,0.0,0.0,0.0,0.0,0.0,1.4512,1.4294,1.4366,1.4339,0.0,1.0209,0.7971,1.1001,0.0,0.0,0.0,0.0,0.0,0.0,0.0,0.0,1.387,1.4558,1.5019,1.5197,1.4874,1.3992,1.2352,1.2117,1.1302,0.9582,1.0457,1.022,0.8427,0.8836,0.0,0.0,0.0,0.0,0.0,0.0,0.0,0.0,0.0,0.0,0.0,0.0,0.0,0.0,0.0,0.0,0.0,0.0,0.0,0.0,0.0,0.0,0.0,0.0,0.0,0.0,0.0,0.0,0.0,1.3093,1.4269,1.3978,1.4327,1.4271,0.0,0.0,0.0,0.0,0.0,0.0,0.0,0.0,0.0,1.912,1.9427,2.0082,2.1138,2.1817,2.2164,2.2161,2.3269,2.3594,2.3193,2.3621,2.3661,2.3415,2.3415,2.2569,2.112,2.0149,1.8772,1.7222,0.0,0.0,0.0,0.0,1.6674,1.706,1.7756,1.7702,0.0,0.0,0.0,0.0,0.0,0.0,0.0,0.0,0.0,0.0,0.0,0.0,0.0,1.6771,1.6766,1.6826,1.6679,1.4019,1.2063,0.0,1.2666,1.1884,1.214,0.0,0.0,0.0,0.0,0.0,1.6581,1.6811,1.6892,1.6955,1.5966,1.5217,1.5037,1.4174,1.3689,1.38,1.3529,1.2931,1.1969,1.1015,1.0085,0.0,0.0,0.0,0.0,0.0,0.0,0.0,0.0,0.0,0.0,0.0,0.0,0.0,0.0,0.0,0.0,0.0,0.0,0.0,0.0,0.0,0.0,0.0,0.0,0.0,0.0,0.0,0.0,1.4333,1.5494,1.5017,1.5752,1.5925,0.0,0.0,0.0,0.0,0.0,0.0,1.8451,1.8837,1.9745,2.1325,2.1563,2.2164,2.3211,2.3434,2.3559,2.3639,2.4084,2.4195,2.4013,2.4209,2.4195,2.4013,2.4013,2.3821,2.3416,2.1964,2.0479,1.9116,1.8918,1.8651,1.8465,1.8704,1.9011,1.9427,2.0363,2.0403,1.9947,1.9454,0.0,1.7514,1.6152,0.0,0.0,0.0,0.0,1.7367,1.8531,1.9213,1.9463,1.8899,1.8792,1.8762,1.8653,1.7391,1.6217,0.0,1.5135,1.4314,1.3989,0.0,0.0,0.0,0.0,1.7849,1.9063,1.8875,1.8638,1.8638,1.7322,1.6644,1.7114,1.5993,1.5673,1.662,1.5877,1.5171,1.4619,1.3335,1.2148,0.0,0.0,0.0,0.0,0.0,0.0,0.0,0.0,0.0,0.0,0.0,0.0,0.0,0.0,0.0,0.0,0.0,0.0,0.0,0.0,0.0,0.0,0.0,0.0,0.0,0.0,0.0,0.0,0.0,0.0,1.631,1.7702,0.0,0.0,0.0,0.0,1.8264,1.9132,2.0,2.0882,2.147,2.2218,2.3149,2.3172,2.3496,2.4128,2.4155,2.4284,2.4532,2.4559,2.4572,2.4559,2.4572,2.4572,2.4559,2.4559,2.4404,2.4102,2.3443,2.2789,2.2175,2.2161,2.1991,2.17,2.1149,2.1165,2.1368,2.0873,2.067,2.0753,2.1261,2.0474,1.9267,1.9174,1.8358,0.0,0.0,1.853,1.9321,1.9639,1.9945,2.0222,2.0509,2.0332,2.0102,2.0102,1.9608,1.9171,0.0,1.7348,1.6049,1.6843,0.0,1.6458,1.7274,1.7729,1.8489,1.9957,2.0108,2.0087,2.0087,1.9777,1.8881,1.7156,1.7059,1.6395,1.4838,1.6212,1.6339,1.4673,1.5653,1.4617,1.1168,1.0127,0.0,0.0,0.0,0.0,0.0,0.0,0.0,0.0,0.0,0.0,0.0,0.0,0.0,0.0,0.0,0.0,0.0,0.0,0.0,0.0,0.0,0.0,0.0,0.0,0.0,0.0,0.0,0.0,1.7956,1.9358,0.0,0.0,1.9682,2.0231,2.071,2.1392,2.2101,2.2796,2.2846,2.3243,2.4106,2.3963,2.4244,2.5018,2.4658,2.4618,2.4917,2.4917,2.4917,2.493,2.5098,2.5178,2.5178,2.501,2.4863,2.4761,2.4311,2.3679,2.2989,2.2989,2.2922,2.2802,2.2602,2.2726,2.296,2.2525,2.2261,2.2064,2.1719,2.11,2.0454,2.0298,1.9788,1.9291,1.9397,1.9531,1.972,1.9985,2.013,2.0224,2.0346,2.0292,2.0197,2.0197,2.0052,1.9905,1.9905,1.8651,1.7662,1.7982,1.801,1.8023,1.8157,1.8876,1.961,2.013,2.0386,2.0374,1.9985,1.9867,1.9473,1.8617,1.8384,1.8185,1.7963,1.8372,1.8416,1.7961,1.709,1.59,1.435,1.1509,0.9388,0.0,0.0,0.0,0.0,0.0,0.0,0.0,0.0,0.0,0.0,0.0,0.0,0.0,0.0,0.0,0.0,0.0,0.0,0.0,0.0,0.0,0.0,0.0,0.0,0.0,0.0,1.9117,1.9316,2.0733,2.151,2.0984,2.1606,2.2198,2.2569,2.2987,2.3429,2.3906,2.3803,2.4057,2.4751,2.4671,2.493,2.5485,2.5112,2.5018,2.5224,2.5224,2.5224,2.5237,2.5424,2.5499,2.5485,2.5304,2.5224,2.5197,2.4903,2.4431,2.3915,2.3772,2.3732,2.3737,2.3643,2.3754,2.3879,2.3443,2.3176,2.293,2.2251,2.1807,2.1496,2.1218,2.0924,2.0639,2.0546,2.0306,2.0134,2.0319,2.0225,2.0079,2.0079,1.9998,1.9932,1.9932,1.9932,1.9958,2.0052,1.9466,1.8958,1.9065,1.9144,1.9171,1.9092,1.9812,2.0332,2.021,2.0386,2.0334,1.9853,1.972,1.9627,1.9534,1.9065,1.9051,1.976,1.9252,1.9052,1.9345,1.793,1.6691,1.5739,1.2417,1.0155,0.903,0.0,0.0,0.0,0.0,0.0,0.0,0.0,0.0,0.0,0.0,0.0,0.0,0.0,0.0,0.0,0.0,0.0,0.0,0.0,0.0,0.0,0.0,0.0,1.73,1.9494,2.0906,2.0357,2.1857,2.2809,2.2508,2.2783,2.3215,2.3817,2.3839,2.3973,2.4235,2.4497,2.4778,2.5122,2.5371,2.5499,2.5545,2.5499,2.5518,2.5531,2.5531,2.5531,2.5531,2.5512,2.5545,2.5545,2.5512,2.5531,2.5485,2.5211,2.5109,2.5069,2.4738,2.4599,2.4572,2.4297,2.4209,2.4128,2.3536,2.3319,2.3269,2.2983,2.2689,2.2361,2.2071,2.181,2.1529,2.1189,2.0911,2.0699,2.0699,2.0256,1.9813,1.9813,1.9614,1.9428,1.9428,1.9428,1.9494,1.976,1.9813,1.9907,2.0157,1.9972,1.9893,2.0157,2.0481,0.0,2.0224,2.0184,2.0092,1.9826,1.9561,1.9522,1.9773,1.9026,1.8878,1.972,1.8663,1.8169,1.8504,1.8196,1.7075,1.507,1.2914,1.1029,0.9439,0.0,0.0,0.0,0.0,0.0,0.0,0.0,0.0,0.0,0.0,0.0,0.0,0.0,0.0,0.0,0.0,0.0,0.0,0.0,0.0,0.0,0.0,1.9867,1.9452,2.0577,2.1713,2.2375,2.3273,2.3986,2.4315,2.4441,2.4641,2.501,2.5037,2.5064,2.5144,2.5205,2.5411,2.5743,2.5585,2.5718,2.6146,2.5718,2.5625,2.5858,2.5858,2.5858,2.5858,2.6052,2.6146,2.6132,2.5938,2.5858,2.5831,2.5518,2.5277,2.5069,2.4738,2.4599,2.4586,2.4524,2.4364,2.4182,2.4022,2.3821,2.3585,2.3067,2.284,2.2662,2.2154,2.181,2.1529,2.1189,2.0911,2.0643,2.0399,2.0197,2.0077,2.0077,2.0039,1.9985,1.9985,1.9985,1.9998,2.0079,2.0077,2.0104,2.0184,1.9972,1.9893,2.0157,2.0277,0.0,1.996,1.9905,1.9878,1.9813,1.9733,1.972,1.9786,1.94,1.9146,0.0,1.865,1.849,1.8784,1.8517,1.7515,1.5693,1.4816,1.3755,0.0,0.0,0.0,0.0,0.0,0.0,0.0,0.0,0.0,0.0,0.0,0.0,0.0,0.0,0.0,0.0,0.0,0.0,0.0,0.0,0.0,0.0,2.0628,2.2028,2.2038,2.2418,2.2943,2.359,2.4209,2.4703,2.5069,2.5203,2.5331,2.5504,2.5499,2.5499,2.5499,2.5625,2.5804,2.5998,2.5925,2.6039,2.6406,2.6052,2.5972,2.6172,2.6172,2.6172,2.6165,2.6339,2.6406,0.0,2.6232,2.6172,2.6139,2.5844,2.5617,0.0,0.0,0.0,0.0,0.0,2.4492,2.4337,2.4102,2.3933,2.371,2.3094,2.2796,2.2609,2.2141,2.181,2.1529,2.1189,2.0911,2.0672,2.0468,2.0306,2.0197,2.0197,2.0197,2.0197,2.0197,2.0197,2.0197,2.0197,0.0,0.0,2.0197,2.0201,2.0267,2.0546,2.0586,2.0479,2.0201,2.0189,2.012,1.9985,1.9972,2.0065,2.0321,1.9761,0.0,0.0,0.0,1.8571,1.8731,1.845,0.0,0.0,0.0,0.0,0.0,0.0,0.0,0.0,0.9698,0.8821,0.0,0.0,0.0,0.0,0.0,0.0,0.0,0.0,0.0,0.0,0.0,0.0,0.0,0.0,0.0,0.0,2.2508,2.3763,2.4492,2.4431,2.4289,2.4262,2.4743,2.5109,2.5149,2.5384,2.5571,2.5611,2.5592,2.5592,2.5592,0.0,0.0,0.0,0.0,2.6406,2.6406,2.6406,2.6406,2.6406,2.6406,2.6406,2.6406,2.6406,2.6406,2.6406,2.6406,2.6406,2.6393,2.6125,2.6024,2.5944,2.5363,2.497,2.4693,2.4666,2.4626,2.4538,2.4026,0.0,0.0,2.3094,2.2659,2.2335,2.2047,2.177,2.1475,2.1189,2.0922,2.0737,2.0737,2.0519,2.0304,2.0304,2.0304,2.0304,2.0304,2.0304,2.0304,2.0304,2.0304,2.0304,2.0304,2.0494,2.0708,2.096,2.1,2.0922,2.067,2.0643,2.0535,2.0277,0.0,0.0,2.104,2.0176,2.0002,2.1002,1.9599,1.8758,1.8758,1.8489,1.8476,1.8745,1.9011,1.8687,1.7775,1.8099,1.7634,1.6377,1.2405,1.0369,0.0,0.0,0.0,0.0,0.0,0.0,0.0,0.0,0.0,0.0,0.0,0.0,0.0,0.0,0.0,2.1961,2.3607,2.4716,2.4613,2.4796,2.4823,2.4546,2.4863,2.5189,2.5411,2.5711,2.5992,2.6199,2.6226,2.6226,2.6226,2.6299,0.0,2.6326,2.6379,2.6406,2.6406,2.6406,2.6406,2.6406,0.0,0.0,2.6406,2.6406,2.6406,2.6406,2.6406,2.6406,2.6406,2.6353,2.6212,2.5957,2.5571,2.5379,2.5298,2.5077,2.4818,2.4546,2.4217,2.3986,2.371,2.3094,2.2659,2.2308,2.1823,2.1446,0.0,2.1122,2.1053,2.1029,2.1029,2.096,2.092,2.092,2.092,2.092,2.092,2.092,2.092,2.092,2.092,2.092,2.092,2.0586,2.0304,2.0357,2.037,2.0357,2.029,2.0306,2.0372,2.0575,2.0603,2.0735,2.1066,2.0909,2.0762,2.0777,2.0456,2.0269,2.0269,2.0428,2.0428,2.0269,2.0535,2.046,2.0064,2.0352,1.9886,1.8672,1.4689,1.2761,0.0,0.0,0.0,0.0,0.0,0.0,0.0,0.0,0.0,0.0,0.0,1.825,0.0,0.0,2.2489,2.3959,2.5082,2.5657,2.5331,2.5443,2.5323,2.4684,2.5005,2.5358,2.5504,2.5919,2.6259,2.6393,2.6406,2.6406,2.6406,2.6406,2.6406,2.6406,2.6406,2.6406,2.6406,2.6406,2.6406,2.6406,2.6406,2.6406,2.6406,2.6406,2.6406,2.6406,2.6406,2.6406,2.6406,2.6406,2.6326,2.6179,2.6012,2.5772,2.5464,2.5024,2.4751,2.4519,2.395,2.3656,2.3474,2.3041,2.2659,2.2348,2.2071,2.1793,2.1523,2.1392,2.1352,2.1352,2.1352,2.1352,2.1379,2.151,2.155,2.155,2.155,2.155,2.155,2.155,2.155,2.1513,2.1365,2.1098,2.0895,2.0895,2.0762,2.0706,2.0869,2.0746,2.0719,2.0882,2.0895,2.1122,2.1694,2.1897,2.182,2.1379,2.1221,2.1141,2.1141,2.1288,2.1419,2.155,2.1847,2.1991,2.2004,2.2298,2.2155,2.1527,1.8586,1.6091,0.0,0.0,0.0,0.0,0.0,0.0,0.0,0.0,1.7328,1.8264,1.9199,2.0372,2.2114,2.3027,2.4071,2.5797,2.6353,2.6433,2.6051,2.5998,2.5644,2.4706,2.5085,2.5432,2.5485,2.5985,2.6353,2.6406,2.6406,2.6406,2.6406,2.6406,2.6406,2.6406,2.6406,2.6406,2.6406,2.6406,2.6406,2.6406,2.6406,2.6406,2.6406,2.6406,2.6406,2.6406,2.6406,2.6406,2.6406,2.6406,2.6406,2.6406,2.6406,2.6066,2.5531,2.4978,2.4693,2.4479,2.3683,2.3323,2.3193,2.2957,2.2659,2.2402,2.2402,2.2218,2.1954,2.1743,2.1679,2.1679,2.1679,2.1679,2.1729,2.1954,2.2007,2.2007,2.2007,2.2007,2.2007,2.2007,2.2007,2.1927,2.1703,2.1679,2.1636,2.1515,2.1269,2.1189,2.1462,2.1325,2.1189,2.1189,2.1243,2.1617,2.2432,2.285,2.2867,2.2382,2.2144,2.204,2.204,2.204,2.2238,2.2655,2.293,2.3184,2.3389,2.3665,2.383,2.383,2.1877,1.9195,1.3137,1.344,0.0,1.5288,1.5832,1.6713,0.0,0.0,2.0105,2.1272,2.2435,2.3398,2.3861,2.4882,2.581,2.6286,2.6821,2.6921,2.6105,2.5998,2.5644,2.4706,2.493,2.5243,2.5491,2.5831,2.6125,2.6373,2.6406,2.6406,2.6406,2.6406,2.6406,2.6406,2.6406,2.6406,2.6406,2.6406,2.6406,2.6406,2.6406,2.6406,2.6406,2.6406,2.6406,2.6406,2.6406,2.6406,2.6406,2.6406,2.6406,2.6406,2.6406,2.6205,2.5904,2.5531,2.5072,2.4519,2.3941,2.3384,2.2947,2.2907,2.2659,2.2402,2.2402,2.2218,2.1994,2.1967,2.1954,2.1954,2.1954,2.1954,2.1967,2.1994,2.2007,2.2007,2.2007,2.2007,2.2007,2.2007,2.2007,2.1994,2.1954,2.1954,2.178,2.1243,2.112,2.1107,2.1149,2.1379,2.1542,2.1542,2.1753,2.2154,2.28,2.3375,2.3669,2.3598,2.3576,2.3562,2.3562,2.3562,2.3589,2.3638,2.3683,2.3705,2.3745,2.3772,2.3919,2.4119,2.2105,2.0826,1.5177,0.0,0.0,0.0,1.849,1.9466,2.0922,2.1523,2.2061,2.3073,2.3808,2.4476,2.5122,2.5791,2.6379,0.0,2.7148,2.7055,2.6326,2.6105,2.559,2.4502,2.4618,2.4978,2.5464,2.5804,2.6118,2.6393,2.6406,2.6406,2.6406,2.6406,2.6406,2.6406,2.6406,2.6406,2.6406,2.6406,2.6406,2.6386,2.656,2.6547,2.6419,2.656,2.6547,2.6406,2.6406,2.6406,2.6406,2.6406,2.6406,2.6406,2.6406,2.6232,2.5944,2.5457,2.4978,2.4492,2.375,2.334,2.31,2.296,2.2813,2.2689,2.2689,2.2609,2.2475,2.2285,2.2231,2.2231,2.2231,2.2231,2.2285,2.2475,2.2515,2.2515,2.2515,2.2515,2.2515,2.2515,2.2515,2.2462,2.2271,2.2231,2.2098,2.1683,2.1617,2.1617,2.1617,2.174,2.1836,2.1836,2.2251,2.2626,2.288,2.326,2.3581,2.379,2.3625,2.3514,2.3514,2.3692,2.3866,2.404,2.4022,2.4275,2.4783,2.4628,2.4676,2.4951,2.4101,2.3667,1.6513,0.0,0.0,1.9481,2.0684,2.1764,2.2445,2.2943,2.3478,2.4275,2.4591,2.4983,2.5724,2.6165,0.0,2.7195,2.7355,2.7168,2.65,2.6185,2.5537,2.4342,2.4297,2.4604,2.5192,2.5611,2.5978,2.6272,2.6366,2.6406,2.6406,2.6406,2.6406,2.6406,2.6466,2.6466,2.6406,2.6466,2.6466,2.6386,2.666,2.6687,2.652,2.67,2.6687,2.6507,2.6507,2.6507,2.6507,2.6507,2.6466,2.6406,2.6406,2.6179,2.5804,2.5377,2.4938,2.4492,2.371,2.3376,2.3256,2.3,2.2893,2.2893,2.2893,2.2893,2.2853,2.2622,2.2539,2.2539,2.2539,2.2539,2.2592,2.284,2.2893,2.2893,2.2893,2.2893,2.2893,2.2893,2.2893,2.2827,2.2579,2.2539,2.2472,2.2275,2.2248,2.2181,2.2021,2.2058,2.2154,2.2235,2.2702,2.301,2.301,2.3273,2.3541,2.3772,2.3567,2.351,2.3639,2.3888,2.4182,2.4556,2.4569,2.4877,2.5499,2.5304,2.5304,2.5499,2.5499,2.5558,0.0,0.0,1.9562,2.0445,2.177,2.3081,2.3941,2.4155,2.4329,2.4949,2.5082,2.5176,2.5464,2.5999,2.6607,2.7195,2.7516,2.7388,2.6507,2.6185,2.5537,2.4342,2.3986,2.404,0.0,2.5165,2.5651,2.5984,2.6246,2.6406,2.6406,2.6406,2.6406,2.6406,2.6647,2.666,2.6386,2.6667,2.6667,2.6386,2.666,2.6794,2.6794,2.6794,2.6794,2.6794,2.6794,2.6794,2.6794,2.6794,2.662,2.6406,2.6406,2.6039,2.5499,2.5485,2.5112,2.4519,2.3955,2.3567,2.3256,2.3,2.2893,2.2893,2.2893,2.2893,2.2893,2.288,2.288,2.288,2.288,2.288,2.288,2.2893,2.2893,2.2893,2.2893,2.2893,2.2893,2.2893,2.2893,2.2893,2.288,2.288,2.288,2.2867,2.2867,2.2666,2.2074,2.2231,2.2512,2.284,2.3126,2.3296,2.3296,2.3581,2.379,2.3803,2.3785,2.4026,2.4532,2.4572,2.4839,2.5445,2.5459,2.5472,2.5499,2.5485,2.5485,2.5499,2.5499,2.5665,0.0,0.0,2.1114,2.2164,2.31,2.3928,2.4641,2.4636,2.4644,2.5251,2.4756,2.432,2.4596,2.4938,2.5392,2.6012,2.668,2.7081,2.7008,2.674,2.6172,2.5184,2.4983,0.0,0.0,0.0,0.0,2.5944,2.6091,2.6205,2.6393,2.6406,2.6406,2.6406,2.648,2.6587,2.666,2.6587,2.6587,2.668,2.6754,2.7007,2.7402,2.7201,2.7141,2.7128,2.6907,2.6807,2.6794,2.6613,2.648,2.6406,2.6406,2.6026,2.5499,2.5499,2.5125,2.4546,2.4195,2.3879,2.3567,2.3273,2.305,2.2893,2.2893,2.2893,2.2893,2.2893,2.2893,2.2893,2.2893,2.2893,2.2893,2.2893,2.2893,2.2893,2.2893,2.2893,2.2893,2.2893,2.2893,2.2893,2.2893,2.305,2.3166,2.3166,2.301,2.2827,2.2626,2.2693,2.2769,2.288,2.297,2.3197,2.3598,2.375,2.3959,2.4297,2.4324,2.4324,2.4324,2.4511,2.4805,2.5243,2.5224,2.5518,2.6092,2.5925,2.5925,2.6092,2.6092,2.6165,0.0,2.1234,2.2345,2.3483,2.4137,2.4636,2.513,2.4898,2.4679,2.4983,2.4022,2.3237,2.3514,2.3443,2.379,2.5144,2.5825,2.6453,2.7202,2.7014,2.6513,2.5758,2.5491,0.0,0.0,0.0,0.0,2.5764,2.6005,2.6259,2.6533,2.6547,2.6587,2.6714,2.68,2.6894,2.6987,2.6894,2.6947,2.7114,2.7114,2.7314,2.7696,2.7529,2.7436,2.7422,2.7108,2.6987,2.6961,2.6667,2.648,2.6406,2.6406,2.6026,2.5499,2.5499,2.5125,2.4559,2.4284,2.4008,2.3745,2.3403,2.3113,2.2893,2.2893,2.2893,2.292,2.301,2.305,2.305,2.305,2.305,2.305,2.305,2.305,2.3077,2.3201,2.3215,2.3215,2.3215,2.3215,2.3215,2.3215,2.3354,2.3487,2.3487,2.3331,2.3148,2.292,2.2893,2.2893,2.2893,2.3,2.3251,2.3763,2.3803,2.404,2.4559,2.4417,2.4382,2.4516,2.4578,2.4898,2.555,2.5564,2.5951,2.6727,2.656,2.656,2.6727,2.6727,2.6727,2.1264,2.2291,2.3224,2.4337,2.485,2.5149,2.5411,2.4991,2.4484,2.4177,2.3008,2.206,0.0,0.0,2.203,2.4588,2.5096,2.5671,2.7148,2.7068,2.668,0.0,0.0,0.0,0.0,0.0,0.0,2.5518,0.0,2.6493,2.6767,2.6794,2.6947,2.7248,2.7542,2.7549,2.7315,2.7562,2.7696,2.7696,2.7696,2.7709,2.7722,2.7722,2.7722,2.7709,2.7436,2.7302,2.7262,2.6947,2.6633,2.6406,2.6373,2.6012,2.5499,2.5472,2.5112,2.4559,2.4311,2.4035,2.3772,2.3443,2.3153,2.292,2.2934,2.2934,2.2987,2.3243,2.3336,2.3336,2.3336,2.3336,2.3336,2.3336,2.3336,2.3403,2.3732,2.3803,2.3803,2.3803,2.3803,2.3785,2.383,2.383,2.383,2.383,2.383,2.3616,2.3014,2.2947,2.2947,2.2947,2.318,2.3474,2.3812,2.3826,2.408,2.4586,2.4142,2.4227,2.5042,2.4791,2.5192,2.6366,2.6419,2.6714,2.7309,2.7309,2.7309,2.7309,2.7309,2.7309,2.2158,2.3197,2.3981,2.4484,2.4653,2.4751,2.4813,2.4391,2.3866,2.3348,2.2614,2.1739,0.0,0.0,0.0,2.3614,2.505,0.0,2.7791,2.7898,0.0,0.0,0.0,2.6239,2.5898,2.581,0.0,0.0,2.6024,2.6219,2.648,2.6687,2.6834,2.6914,2.7248,2.7462,2.7609,2.7669,2.7696,2.7696,2.7696,2.7837,2.8072,2.8072,2.8072,2.8058,2.7743,2.7489,2.7262,2.6947,2.6633,2.6393,2.6165,2.5858,2.5491,2.5277,2.4957,2.4586,2.4519,2.4324,2.4075,2.4008,2.3616,2.3229,2.3491,2.3398,2.3256,2.3567,2.3679,2.3679,2.3679,2.3679,2.3679,2.3679,2.3679,2.3692,2.3772,2.3803,2.3803,2.3803,2.3803,2.3852,2.4062,2.4088,2.4088,2.4088,2.4088,2.3973,2.3616,2.3576,2.3576,2.3576,2.3625,2.3861,2.4351,2.4404,2.4551,2.4943,2.4842,2.4761,2.4738,2.5085,2.5531,2.6091,2.6493,2.6894,2.7309,2.7309,2.7309,2.7309,2.7309,2.7309,2.317,2.3915,2.4646,2.5764,2.5906,2.5814,2.5854,2.4987,2.3871,2.2878,2.1328,0.0,0.0,0.0,0.0,0.0,0.0,0.0,2.7369,2.771,2.8022,0.0,2.7533,0.0,2.8871,2.8104,2.7489,0.0,2.668,2.6372,2.6767,2.6954,2.7134,2.7409,2.7603,2.7777,2.7917,2.7917,2.7917,2.7917,2.7917,2.8018,2.82,2.82,2.82,2.8186,0.0,2.7602,2.7449,2.7001,2.6633,2.6379,2.6105,2.5711,2.5304,2.5163,2.489,2.4599,2.4599,2.4492,2.4351,2.4249,2.3888,2.3554,2.3732,2.3665,2.3581,2.3892,2.3986,2.3986,2.3986,2.3986,2.3986,2.3986,2.3986,2.4013,2.4128,2.4155,2.4155,2.4155,2.4155,2.4209,2.4351,2.4377,2.4377,2.4377,2.4502,2.4476,2.4195,2.3946,2.3803,2.3803,2.3906,2.4142,2.4559,2.4599,2.4911,2.5631,2.531,2.5203,2.5379,2.5459,2.5772,2.6339,2.6653,2.7094,2.7697,2.7697,2.7697,2.7697,2.7697,2.7617,2.4444,2.4691,2.5302,2.7703,2.7739,2.7238,2.7379,2.5922,2.4115,2.2553,0.0,0.0,1.8869,0.0,1.9105,2.1518,0.0,2.4725,2.7059,2.7663,2.8513,3.0273,2.8947,2.8993,3.1872,3.0572,2.9549,2.9549,2.7928,2.7027,2.7215,2.7282,2.7576,2.8186,2.82,2.82,2.82,2.82,2.82,2.82,2.82,2.82,2.82,2.82,2.82,2.8186,0.0,0.0,2.7655,2.7148,2.6747,2.6413,2.6131,2.5663,2.5149,2.5069,2.4863,2.4599,2.4599,2.4599,2.4559,2.4324,2.4062,2.3852,2.3892,2.3879,2.3906,2.4182,2.4244,2.4244,2.4244,2.4244,2.4244,2.4244,2.4244,2.4311,2.4546,2.4599,2.4599,2.4599,2.4639,2.4671,2.4671,2.4693,2.4719,2.4719,2.497,2.505,2.4764,2.4315,2.3986,2.3906,2.4142,2.4409,2.4586,2.4639,2.5112,2.6146,2.555,2.5497,2.6259,2.5865,2.5979,2.678,2.6874,2.7335,2.82,2.82,2.8186,2.8125,2.8186,2.8031,2.6532,2.6237,2.6179,2.9613,2.8573,2.6741,2.6824,2.5555,0.0,0.0,0.0,1.9502,2.0042,2.0002,0.0,2.3195,0.0,0.0,0.0,0.0,3.0981,0.0,0.0,0.0,0.0,0.0,0.0,0.0,0.0,2.8933,2.6988,2.7155,2.7576,2.8186,2.82,2.82,2.82,2.82,2.82,2.82,2.82,2.82,2.82,2.82,2.82,2.82,2.8146,0.0,2.7696,2.7589,2.7208,2.6674,2.6179,2.5764,2.5384,2.4871,2.4639,2.4599,2.4599,2.4599,2.4586,2.4546,2.4351,2.4168,2.4391,2.4297,2.4195,2.4457,2.4519,2.4519,2.4519,2.4519,2.4519,2.4519,2.4519,2.4532,2.4586,2.4599,2.4599,2.4599,2.4818,2.4997,2.4997,2.5197,2.5339,2.5339,2.5379,2.5424,2.5352,2.5258,2.5005,2.4506,2.4756,2.485,2.4613,2.4845,2.5109,2.531,2.5384,2.5504,2.5665,2.6039,2.6426,2.6794,2.7295,2.777,2.82,2.82,2.8058,2.7797,2.8072,2.8031,2.876,2.8461,2.7972,3.1568,3.0899,2.916,2.8387,0.0,0.0,0.0,0.0,1.9116,1.9758,0.0,0.0,0.0,0.0,0.0,0.0,0.0,0.0,0.0,0.0,0.0,0.0,0.0,0.0,0.0,0.0,3.287,3.0756,2.9871,2.9042,2.8242,2.82,2.82,2.82,2.82,2.82,2.82,2.82,2.82,2.82,2.82,2.82,2.82,2.82,0.0,2.7965,2.7762,2.7268,2.656,2.6139,2.5604,2.5005,2.4706,2.4599,2.4599,2.4599,2.4599,2.4599,2.4599,2.4506,2.4431,2.4559,2.4506,2.4431,2.4559,2.4599,2.4599,2.4599,2.4738,2.4823,2.4639,2.4738,2.4903,2.5045,2.5072,2.5072,2.5072,2.5211,2.5304,2.5304,2.5424,2.5499,2.5499,2.5651,2.5711,2.5512,2.5899,2.5953,2.5384,2.5604,2.5638,2.5344,2.547,2.5617,2.5778,2.5764,2.5898,2.6166,2.6447,2.6827,2.7248,2.773,2.8171,2.8604,2.8604,2.8537,2.8382,2.8537,2.8457,3.0945,3.0847,3.0251,3.3679,3.3194,3.1461,2.9964,2.7374,0.0,0.0,0.0,1.8682,1.9738,0.0,0.0,0.0,0.0,0.0,0.0,0.0,0.0,0.0,0.0,0.0,0.0,0.0,0.0,0.0,0.0,0.0,3.4329,3.2405,3.0848,2.9642,2.9118,2.9097,2.96,2.867,2.8431,2.888,2.841,2.82,2.82,2.82,2.82,2.82,2.82,0.0,0.0,2.7917,2.7348,2.6627,2.6299,2.5657,2.4885,2.4751,2.4711,2.4711,2.4711,2.4733,2.4786,2.4786,2.4706,2.4599,2.4599,2.4599,2.4613,2.4698,2.4671,2.4626,2.4746,2.4957,2.5056,2.4845,2.4978,2.5237,2.5445,2.5499,2.5499,2.5499,2.5558,2.5611,2.5611,2.5665,2.5705,2.5705,2.5925,2.5978,2.5732,2.634,2.6653,2.6205,2.6312,2.6259,2.5911,2.5957,2.6091,2.6299,2.6185,2.6299,2.678,2.686,2.7188,2.781,2.8125,2.8532,2.9001,2.9001,2.8961,2.893,2.8961,2.8863,3.2909,3.3213,3.2937,3.6158,3.4329,3.1347,2.9916,0.0,0.0,0.0,2.0303,1.9483,2.1341,2.0347,0.0,0.0,0.0,0.0,0.0,0.0,0.0,0.0,0.0,0.0,0.0,0.0,0.0,0.0,0.0,0.0,3.4442,3.2405,3.2237,3.4042,3.2155,3.2073,3.4083,3.0191,2.9181,3.1076,2.9118,2.82,2.82,2.82,2.82,2.82,2.82,0.0,0.0,2.8173,2.7938,2.7522,2.6941,2.6373,2.581,2.5256,2.5056,2.5056,2.5056,2.5211,2.5419,2.5419,2.5058,2.4599,2.4599,2.4599,2.4653,2.4957,2.4818,2.4719,2.5272,2.5251,2.5144,2.5371,2.5432,2.5459,2.5485,2.5499,2.5499,2.5499,2.5751,2.5957,2.5957,2.6152,2.6326,2.6326,2.6333,2.6353,2.6306,2.6613,2.678,2.6727,2.6533,2.6159,2.5579,2.5818,2.6011,2.6038,2.6246,2.6493,2.6794,2.7081,2.755,2.8138,2.8425,2.8703,2.9001,2.9001,2.8876,2.8636,2.889,2.8863,3.4597,3.5285,3.4779,3.6806,3.5397,3.2824,3.0208,0.0,2.4976,2.2432,2.0871,2.027,2.1286,2.033,1.995,2.1755,2.1447,2.2889,2.8358,0.0,0.0,0.0,0.0,0.0,0.0,0.0,0.0,0.0,0.0,0.0,3.8446,3.6435,3.5117,3.4712,3.3839,3.3165,3.2715,3.0993,2.992,2.9474,2.8621,2.82,2.82,2.82,2.82,2.82,2.82,0.0,0.0,2.82,2.7783,2.7127,2.6887,2.636,2.5665,2.5424,2.5344,2.5344,2.5344,2.5411,2.5499,2.5499,2.5339,2.5138,2.5138,2.5018,2.497,2.5264,2.5232,2.5192,2.5432,2.5424,2.5464,2.5932,2.5925,2.5844,2.5999,2.6039,2.6039,2.6039,2.6152,2.6372,2.672,2.6694,2.6774,2.7121,2.6881,2.6653,2.6653,2.6727,2.6727,2.6587,2.6794,2.6767,2.6313,2.6593,2.6787,2.6787,2.7034,2.7308,2.7623,2.793,2.827,2.8671,2.8978,2.9272,2.9544,2.9544,2.949,2.9392,2.949,2.9477,3.5177,3.6391,3.6178,3.6758,3.543,3.316,0.0,0.0,2.452,2.2354,2.1202,2.0693,2.0967,2.0536,2.04,2.1214,2.1062,2.2398,2.686,0.0,0.0,0.0,0.0,0.0,0.0,0.0,0.0,0.0,0.0,0.0,0.0,3.9708,3.8192,3.6662,3.6,3.5218,3.4306,3.2366,3.0972,3.0107,2.8817,2.82,2.82,2.82,2.82,2.82,0.0,0.0,0.0,2.82,2.7817,2.7201,2.7028,2.65,2.5859,2.5705,2.5638,2.5638,2.5638,2.5705,2.5772,2.5772,2.5718,2.5665,2.5745,2.5504,2.5283,2.5558,2.5705,2.5758,2.5665,2.5705,2.5879,2.6293,2.6259,2.6185,2.6366,2.6406,2.644,2.6633,2.6673,2.6861,2.7469,2.7369,2.7348,2.7783,2.7502,2.7148,2.6974,2.7108,2.7001,2.6473,2.7008,2.7222,2.6714,2.6961,2.7195,2.7296,2.7556,2.789,2.8312,2.8577,2.885,2.9143,2.9459,2.9713,2.9891,3.0007,3.0007,2.9891,3.0078,3.0127,3.4293,3.633,3.7092,3.6233,3.4101,3.1636,0.0,2.6269,2.3449,2.2169,2.1202,2.0605,2.0605,2.1299,2.1875,2.1884,2.3997,2.6402,2.8573,3.0767,0.0,0.0,0.0,0.0,0.0,0.0,0.0,0.0,0.0,0.0,0.0,4.1172,4.1152,4.1133,3.9001,3.8922,4.1075,3.4651,3.2505,3.457,3.026,2.82,2.82,2.82,2.82,0.0,0.0,0.0,0.0,2.82,2.8179,2.8133,2.7536,2.7101,2.6714,2.6179,2.5998,2.5998,2.5998,2.6185,2.6386,2.6386,2.6205,2.6051,2.6312,2.5972,2.5571,2.5904,2.6198,2.6339,2.6065,2.6179,2.6386,2.6406,2.6406,2.6406,2.6406,2.6406,2.658,2.7168,2.7296,2.7483,2.8093,2.82,2.82,2.8179,2.82,2.7965,2.7376,2.7817,2.7724,2.654,2.7175,2.7348,2.6486,2.6653,2.6947,2.7282,2.7556,2.7976,2.8577,2.8863,2.9157,2.9495,2.9766,2.9891,2.9891,3.023,3.023,2.9904,3.0515,3.0658,3.0679,3.2164,3.2773,3.2187,3.0976,2.9453,2.7617,2.5644,2.3848,2.2567,2.1866,2.1485,2.1485,2.1445,2.2196,2.4601,2.5379,0.0,0.0,0.0,0.0,0.0,0.0,0.0,0.0,0.0,0.0,0.0,0.0,0.0,0.0,4.1191,4.1191,4.1191,4.0509,3.9786,3.8961,3.6882,3.546,3.4672,3.3304,3.2648,3.2587,3.1076,0.0,0.0,0.0,0.0,0.0,2.82,2.8072,2.7823,2.7456,2.7101,2.6754,2.6386,2.6272,2.6272,2.6272,2.6339,2.6406,2.6406,2.6353,2.6286,2.6379,2.6139,2.5898,2.6192,2.6339,2.6393,2.6299,2.6339,2.6406,2.6406,2.6406,2.6406,2.6406,2.6727,2.7061,2.7269,2.7449,2.7816,2.8617,2.8438,2.8393,2.9008,2.8732,2.839,2.8203,2.8205,2.7965,2.7348,2.7535,2.7428,2.6727,2.7134,2.7569,2.7884,2.8337,2.877,2.9192,2.9673,3.0016,3.011,3.039,3.0515,3.0515,3.0608,3.0631,3.0515,3.0702,3.0742,0.0,2.9637,3.0307,2.9824,2.8828,2.7643,2.6413,2.4871,2.3465,2.2665,2.2168,2.1846,2.168,2.1669,2.2342,2.4375,2.5398,0.0,0.0,0.0,0.0,0.0,0.0,0.0,0.0,0.0,0.0,0.0,0.0,0.0,0.0,4.1269,4.1191,4.1191,4.1191,4.0529,3.9158,3.833,3.7221,3.59,3.5076,3.4692,3.4611,3.2422,0.0,0.0,0.0,0.0,0.0,2.82,2.8005,2.7669,2.7395,2.7101,2.6767,2.6493,2.6406,2.6406,2.6406,2.6406,2.6406,2.6406,2.6406,2.6406,2.6406,2.6286,2.6198,2.6353,2.6406,2.6406,2.6406,2.6406,2.6406,2.6406,2.6406,2.6406,2.6406,2.676,2.7181,2.7409,2.769,2.8171,2.9037,2.8804,2.8773,2.9526,2.9245,2.8898,2.877,2.8791,2.8585,2.7957,2.8184,2.8136,2.7528,2.7722,2.8064,2.8478,2.9045,2.9477,2.9829,3.0297,3.0551,3.0551,3.0702,3.0795,3.0795,3.0795,3.0925,3.1139,3.0925,3.0849,0.0,2.8132,2.8953,2.8502,2.7226,2.5977,2.5581,2.3903,0.0,2.2489,2.2207,2.1827,2.1425,2.1971,2.2461,2.2335,0.0,0.0,0.0,0.0,0.0,0.0,0.0,0.0,0.0,0.0,0.0,0.0,0.0,0.0,0.0,4.1484,4.125,4.1191,4.123,4.123,4.1191,3.9158,3.8114,3.8094,3.6121,3.5157,3.5076,3.2858,0.0,0.0,0.0,0.0,0.0,2.82,2.8018,2.7716,2.7409,2.7115,2.6794,2.6507,2.6406,2.6406,2.6406,2.6406,2.6406,2.6406,2.6406,2.6406,2.6406,2.6406,2.6386,2.6413,2.64,2.6386,2.6413,2.64,2.6406,2.6406,2.64,2.6413,2.6386,2.6667,2.7047,2.7602,2.8005,2.8486,2.9321,2.9183,2.9183,2.9771,2.9659,2.9392,2.9095,2.9557,2.9486,2.8406,2.9035,2.9259,2.8711,2.8412,2.8478,2.8988,2.9584,3.0047,3.04,3.0684,3.0822,3.0822,3.0849,3.0849,3.0849,3.0849,3.1166,3.1674,3.1139,3.0996,2.244,0.0,2.3683,2.3566,2.3253,2.3019,0.0,2.2626,2.2129,0.0,0.0,2.2441,2.2667,2.2598,2.3329,0.0,0.0,0.0,0.0,0.0,0.0,0.0,0.0,0.0,0.0,0.0,0.0,0.0,0.0,0.0,4.1816,4.1992,4.1836,4.1211,4.1504,4.1523,4.1191,4.0685,4.0412,4.0412,3.9903,3.9668,3.959,3.7379,0.0,0.0,0.0,0.0,2.82,2.82,2.8138,2.8031,2.751,2.7248,2.7115,2.6593,2.6406,2.6406,2.6406,2.6406,2.6406,2.6406,2.6406,2.6406,2.6406,2.6406,2.644,2.6653,2.656,2.644,2.6647,2.656,2.6406,2.6406,2.656,2.6653,2.644,2.7168,2.7844,2.7722,2.8136,2.8644,2.905,2.8876,2.8911,2.9499,2.9548,2.9561,2.9664,2.9811,2.9726,2.924,2.9374,2.9454,2.9285,2.9005,2.8991,2.9352,2.9713,3.0047,3.04,3.0849,3.1106,3.1106,3.1366,3.1487,3.1487,3.1487,3.1554,3.1687,3.1554,3.1527,2.0908,2.169,2.2502,2.2461,2.2461,2.256,2.2765,0.0,0.0,0.0,0.0,0.0,2.2599,0.0,0.0,0.0,0.0,0.0,0.0,0.0,0.0,0.0,0.0,0.0,0.0,0.0,0.0,0.0,0.0,4.2617,4.2422,4.2402,4.2109,4.1504,4.168,4.1601,4.1191,4.1191,4.1191,4.1191,4.1191,4.1191,4.1094,3.7876,3.5799,0.0,0.0,0.0,2.82,2.82,2.8039,2.775,2.7429,2.7128,2.6847,2.6526,2.6406,2.6406,2.6406,2.6406,2.6406,2.6406,2.6406,2.6406,2.6406,2.6406,2.6426,2.6587,2.6507,2.6426,2.6587,2.6507,2.6426,2.656,2.6687,2.6794,2.6821,2.7422,2.7917,2.7743,2.8091,2.8484,2.877,2.8591,2.8666,2.9401,2.9259,2.9285,2.9824,2.9806,2.9713,2.9686,2.9686,2.9762,2.9896,2.9762,2.9713,2.9896,3.0287,3.0595,3.0755,3.1183,3.1423,3.1423,3.1607,3.1687,3.1687,3.1687,3.1687,3.1687,3.1687,3.1687,2.0752,2.2023,2.3205,2.2878,2.2938,2.3099,2.3099,0.0,0.0,0.0,0.0,0.0,0.0,0.0,0.0,0.0,0.0,0.0,0.0,0.0,0.0,0.0,0.0,0.0,0.0,0.0,0.0,0.0,0.0,4.3165,4.3106,4.2793,4.2382,4.1914,4.1953,4.1758,4.1289,4.123,4.1191,4.1191,4.1191,4.1191,4.1075,3.704,3.5016,0.0,0.0,0.0,2.82,2.82,2.7898,2.7429,2.7349,2.6981,2.654,2.6426,2.6406,2.6406,2.6406,2.6406,2.6406,2.6406,2.6406,2.6419,2.644,2.6453,2.6466,2.6526,2.6473,2.6433,2.6547,2.652,2.6533,2.6814,2.69,2.6994,2.7248,2.7556,2.7749,2.7709,2.7957,2.8272,2.8484,2.8366,2.846,2.9254,2.9005,2.9005,2.9731,2.9673,2.9659,2.9953,2.9918,3.006,3.0417,3.0497,3.0511,3.0511,3.0955,3.1226,3.1266,3.1554,3.1687,3.1687,3.1687,3.1687,3.1687,3.1687,3.1714,3.1754,3.1714,3.1714,2.1505,2.2667,2.3351,2.1863,2.2049,2.2617,0.0,0.0,0.0,0.0,0.0,0.0,0.0,0.0,0.0,0.0,0.0,0.0,0.0,0.0,0.0,0.0,0.0,0.0,0.0,0.0,0.0,0.0,0.0,0.0,4.3126,4.334,4.3124,4.2324,4.2695,4.252,4.1719,4.1367,4.1191,4.1191,4.1191,4.1191,4.1113,3.8568,3.6422,0.0,0.0,2.9878,2.82,2.82,2.8146,2.8005,2.7496,2.7235,2.7088,2.6593,2.6406,2.6406,2.6406,2.6406,2.6406,2.6406,2.6406,2.644,2.666,2.674,2.6814,2.7075,2.6794,2.656,2.7308,2.7134,2.6807,2.7141,2.7409,2.7509,2.7349,2.7737,2.8045,2.777,2.7957,2.8226,2.8245,2.824,2.8326,2.8684,2.9085,2.9406,2.9539,2.9726,2.9967,3.0283,3.0074,3.014,3.0675,3.0955,3.1066,3.1066,3.1146,3.1343,3.162,3.166,3.1687,3.1687,3.1687,3.1687,3.1687,3.1687,3.1821,3.2024,3.1808,3.1821,2.0791,2.1923,2.3066,2.2947,2.358,2.4176,0.0,0.0,0.0,0.0,0.0,0.0,0.0,0.0,0.0,0.0,0.0,0.0,0.0,0.0,0.0,0.0,0.0,0.0,0.0,0.0,0.0,0.0,0.0,0.0,4.3418,4.3594,4.3418,4.2793,4.2989,4.2676,4.1816,4.1836,4.1621,4.1191,4.1191,4.1191,4.1133,3.8922,3.7361,3.6322,0.0,3.2742,3.1938,3.0519,2.9982,2.9849,2.8016,2.7181,2.6987,2.672,2.672,2.6887,2.6887,2.6887,2.6887,2.6887,2.6887,2.6914,2.7028,2.7068,2.7121,2.7436,2.7208,2.6981,2.7382,2.7288,2.7155,2.7449,2.7602,2.773,2.7777,2.7991,2.8138,2.8005,2.8085,2.82,2.82,2.82,2.8286,2.8564,2.8719,2.9013,2.9633,2.97,2.9913,3.0551,3.0474,3.0568,3.0996,3.1132,3.1266,3.145,3.1463,3.1554,3.1687,3.1687,3.1687,3.1687,3.1687,3.1767,3.1928,3.1767,3.1928,3.2356,3.1901,3.1848,2.0371,2.1416,2.2802,0.0,0.0,0.0,0.0,0.0,0.0,0.0,0.0,0.0,0.0,0.0,0.0,0.0,0.0,0.0,0.0,0.0,0.0,0.0,0.0,0.0,0.0,0.0,0.0,0.0,0.0,0.0,4.3711,4.3711,4.3555,4.3263,4.3243,4.2812,4.1953,4.2363,4.2148,4.1348,4.1348,4.1348,4.1269,3.9051,3.804,3.794,3.5862,3.5167,3.5279,3.3186,3.2319,3.2078,2.9711,2.8267,2.7476,2.7075,2.7088,2.7309,2.7309,2.7309,2.7309,2.7309,2.7309,2.7302,2.7369,2.7382,2.7449,2.7743,2.7663,2.751,2.751,2.7456,2.7462,2.7756,2.7823,2.789,2.8138,2.82,2.82,2.82,2.82,2.82,2.82,2.82,2.8272,2.8492,2.8438,2.8732,2.9686,2.9686,2.9927,3.0795,3.0835,3.0942,3.1303,3.133,3.1423,3.1674,3.1687,3.1687,3.1687,3.1687,3.1687,3.1687,3.1767,3.1877,3.2104,3.1968,3.2193,3.2688,3.2166,3.2048,2.1436,2.2109,2.2802,2.4079,0.0,0.0,0.0,0.0,0.0,0.0,0.0,0.0,0.0,0.0,0.0,0.0,0.0,0.0,0.0,0.0,0.0,0.0,0.0,0.0,0.0,0.0,0.0,0.0,0.0,0.0,4.3711,4.3711,4.3691,4.3652,4.3652,4.3242,4.2382,4.2812,4.2598,4.1758,4.1758,4.1758,4.1699,3.9477,3.8457,3.8374,3.6569,3.5846,3.5808,3.5254,3.4805,3.4403,3.3482,3.1736,2.9473,2.7858,2.7282,2.7309,2.7309,2.7309,2.7309,2.7309,2.7309,2.7362,2.7609,2.7669,2.7743,2.8072,2.816,2.8146,2.8146,2.789,2.7749,2.8085,2.8152,2.8186,2.8179,2.82,2.82,2.82,2.82,2.82,2.82,2.82,2.8213,2.824,2.8631,2.909,2.9495,2.9726,3.0198,3.1079,3.0955,3.1022,3.1607,3.166,3.1674,3.1687,3.1687,3.1687,3.1687,3.1687,3.1687,3.1687,3.1931,3.2078,3.2104,3.2382,3.2688,3.2957,3.2674,3.2688,2.0527,2.1768,2.337,2.5176,0.0,0.0,0.0,0.0,0.0,0.0,0.0,0.0,0.0,0.0,0.0,0.0,0.0,0.0,0.0,0.0,0.0,0.0,0.0,0.0,0.0,0.0,0.0,0.0,0.0,0.0,0.0,4.3457,4.3437,4.3691,4.3711,4.3418,4.2832,4.3262,4.3164,4.2618,4.2324,4.2167,4.2148,4.1309,4.0929,4.0889,4.0233,4.0112,4.0232,3.8464,3.7784,3.7643,3.5325,3.3836,3.2741,3.044,2.9721,2.9667,2.8323,2.7857,2.7857,2.7857,2.7857,2.7871,2.7978,2.8018,2.8045,2.8152,2.82,2.82,2.82,2.8098,2.8045,2.8186,2.82,2.82,2.82,2.82,2.82,2.82,2.82,2.82,2.82,2.82,2.8245,2.8425,2.8756,2.9263,2.9962,3.0274,3.0728,3.1447,3.1236,3.1156,3.137,3.1396,3.1476,3.1687,3.1687,3.1687,3.1687,3.1687,3.1687,3.1687,3.1957,3.2198,3.2409,3.2541,3.281,3.324,3.2784,3.2755,2.0313,2.1621,2.3488,0.0,0.0,0.0,0.0,0.0,0.0,0.0,0.0,0.0,0.0,0.0,0.0,0.0,0.0,0.0,0.0,0.0,0.0,0.0,0.0,0.0,0.0,0.0,0.0,0.0,0.0,0.0,0.0,4.3321,4.3262,4.3691,4.3574,4.338,4.3106,4.3359,4.3359,4.3106,4.291,4.2734,4.2616,4.2616,4.2616,4.2637,4.2753,4.3008,4.314,4.1212,4.0431,4.0132,3.7192,3.5588,3.4678,3.2212,3.0984,3.0299,2.8732,2.82,2.82,2.82,2.82,2.82,2.82,2.82,2.82,2.82,2.82,2.82,2.82,2.82,2.82,2.82,2.82,2.82,2.82,2.82,2.82,2.82,2.82,2.82,2.82,2.8272,2.8385,2.8577,2.8916,2.9472,3.0283,3.0631,3.0982,3.15,3.1263,3.1106,3.1199,3.1199,3.1356,3.1674,3.1687,3.1687,3.1687,3.1687,3.1741,3.1821,3.2115,3.2409,3.2728,3.2822,3.3051,3.34,3.3024,3.2944,2.12,2.1854,0.0,0.0,0.0,0.0,0.0,0.0,0.0,0.0,0.0,0.0,0.0,0.0,0.0,0.0,0.0,0.0,0.0,0.0,0.0,0.0,0.0,0.0,0.0,0.0,0.0,0.0,0.0,0.0,0.0,4.3321,4.3282,4.3672,4.3302,4.3087,4.3106,4.3106,4.3106,4.3106,4.3496,4.3476,4.3106,4.3106,4.3106,4.3126,4.3516,4.3691,4.3672,4.3282,4.2578,4.1579,3.9394,3.716,3.4912,3.2812,3.0587,2.8593,2.8307,2.82,2.82,2.82,2.82,2.82,2.82,2.82,2.82,2.82,2.82,2.82,2.82,2.82,2.82,2.82,2.82,2.82,2.82,2.82,2.82,2.82,2.82,2.82,2.8213,2.8425,2.8604,2.8617,2.9112,2.9735,3.0323,3.0644,3.0902,3.1173,3.0969,3.0902,3.1173,3.1199,3.1343,3.1674,3.1687,3.1687,3.1687,3.1687,3.1821,3.2091,3.2423,3.2741,3.2998,3.3267,3.3414,3.3414,3.3414,3.3414,2.12,2.2724,0.0,0.0,0.0,0.0,0.0,0.0,0.0,0.0,0.0,0.0,0.0,0.0,0.0,0.0,0.0,0.0,0.0,0.0,0.0,0.0,0.0,0.0,0.0,0.0,0.0,0.0,0.0,0.0,0.0,4.2402,4.2363,4.2773,4.2656,4.2773,4.3087,4.3106,4.3243,4.3516,4.3652,4.3476,4.3106,4.3106,4.3106,4.3106,4.3223,4.3437,4.3691,4.3574,4.3203,4.2635,4.1623,4.0656,3.9337,3.5347,3.3467,3.2437,2.9286,2.82,2.82,2.82,2.82,2.82,2.82,2.82,2.82,2.82,2.82,2.82,2.82,2.82,2.82,2.82,2.82,2.82,2.82,2.82,2.82,2.82,2.82,2.8259,2.8452,2.8551,2.8818,2.941,2.9882,3.0426,3.1206,3.1169,3.1026,3.0929,3.0684,3.0551,3.0631,3.0808,3.1049,3.1343,3.158,3.1687,3.1687,3.1687,3.1727,3.1821,3.234,3.2634,3.2728,3.3173,3.3414,3.3414,3.3414,3.3414,2.2858,0.0,0.0,0.0,0.0,0.0,0.0,0.0,0.0,0.0,0.0,0.0,0.0,0.0,0.0,0.0,0.0,0.0,0.0,0.0,0.0,0.0,0.0,0.0,0.0,0.0,0.0,0.0,0.0,0.0,0.0,4.2031,4.1972,4.2402,4.2246,4.2363,4.2812,4.2656,4.2793,4.3183,4.3183,4.2969,4.2598,4.295,4.3184,4.3341,4.3341,4.3476,4.3711,4.3711,4.3457,4.3067,4.2793,4.186,4.0219,3.6363,3.4355,3.3046,2.9453,2.82,2.82,2.82,2.82,2.82,2.82,2.82,2.82,2.82,2.82,2.82,2.82,2.82,2.82,2.82,2.82,2.82,2.82,2.82,2.8219,2.8353,2.8345,2.8438,2.8703,2.8871,2.9138,2.9659,3.0123,3.0641,3.1259,3.1062,3.0808,3.0658,3.0377,3.0257,3.04,3.0537,3.0795,3.1173,3.1289,3.1447,3.1687,3.1687,3.1808,3.2059,3.242,3.2701,3.2917,3.324,3.3414,3.3414,3.3414,3.3414,0.0,0.0,0.0,0.0,0.0,0.0,0.0,0.0,0.0,0.0,0.0,0.0,0.0,0.0,0.0,0.0,0.0,0.0,0.0,0.0,0.0,0.0,0.0,0.0,0.0,0.0,0.0,0.0,0.0,0.0,0.0,4.1953,4.1914,4.2285,4.1953,4.1953,4.2343,4.1992,4.1992,4.2402,4.2402,4.2207,4.1875,4.2637,4.3164,4.3535,4.3574,4.3574,4.3516,4.3496,4.3223,4.2872,4.2911,4.1366,3.8809,3.6211,3.3909,3.1691,2.9089,2.82,2.82,2.82,2.82,2.82,2.82,2.82,2.82,2.82,2.82,2.82,2.82,2.82,2.82,2.82,2.82,2.82,2.82,2.8226,2.8312,2.8551,2.8631,2.8716,2.901,2.9312,2.9521,2.9575,3.0069,3.0511,3.0755,3.0564,3.04,3.04,3.01,3.002,3.0323,3.0386,3.0604,3.1092,3.0929,3.1059,3.1594,3.1607,3.1901,3.2541,3.2554,3.281,3.3374,3.34,3.3414,3.3414,3.3414,3.3414,0.0,0.0,0.0,0.0,0.0,0.0,0.0,0.0,0.0,0.0,0.0,0.0,0.0,0.0,0.0,0.0,0.0,0.0,0.0,0.0,0.0,0.0,0.0,0.0,0.0,0.0,0.0,0.0,0.0,0.0,4.1445,4.1367,4.1367,4.1465,4.1367,4.1523,4.1933,4.1836,4.1992,0.0,4.2402,4.2363,4.2265,4.2148,4.2129,4.2226,4.2538,4.2499,4.2187,4.1875,4.1465,4.1113,4.1465,4.1035,3.9753,3.6155,3.4502,3.3522,2.9572,2.82,2.82,2.82,2.82,2.82,2.82,2.82,2.82,2.82,2.82,2.82,2.82,2.82,2.82,2.82,2.82,2.82,2.82,2.8379,2.8524,2.8591,2.877,2.9023,2.9339,2.9446,2.9668,3.0145,3.0497,3.0715,3.0782,3.0564,3.04,3.04,3.01,2.9918,3.0007,3.0243,3.0467,3.0564,3.0725,3.0849,3.1005,3.0982,3.1393,3.2185,3.2198,3.2516,3.3091,3.3293,3.3414,3.3414,3.3414,3.3414,0.0,0.0,0.0,0.0,0.0,0.0,0.0,0.0,0.0,0.0,0.0,0.0,0.0,0.0,0.0,0.0,0.0,0.0,0.0,0.0,0.0,0.0,0.0,0.0,0.0,0.0,0.0,0.0,0.0,4.1191,4.1191,4.1191,4.1191,4.1191,4.1191,4.1289,4.1523,4.1523,4.1621,4.1836,4.1836,4.1836,4.1836,4.2012,4.1875,4.1543,4.1953,4.1894,4.1504,4.1289,4.0918,4.0547,4.1015,4.0898,4.0144,3.7296,3.5581,3.4225,3.0889,2.9069,2.82,2.82,2.82,2.82,2.82,2.82,2.82,2.82,2.82,2.82,2.82,2.82,2.82,2.82,2.82,2.824,2.8358,2.8497,2.8698,2.8978,2.9152,2.9352,2.9646,2.9686,2.9793,3.01,3.0274,3.0368,3.0368,3.0234,3.0154,3.0154,3.0007,2.9891,2.9891,3.006,3.023,3.04,3.039,3.0501,3.0782,3.0528,3.0915,3.2078,3.2104,3.2385,3.2998,3.3267,3.3334,3.32,3.3347,3.3414,0.0,0.0,0.0,0.0,0.0,0.0,0.0,0.0,0.0,0.0,0.0,0.0,0.0,0.0,0.0,0.0,0.0,0.0,0.0,0.0,0.0,0.0,0.0,0.0,0.0,0.0,0.0,0.0,0.0,4.1191,4.1191,4.1191,4.1191,4.1191,4.1191,4.1191,4.1191,4.1191,4.1191,4.1191,4.1191,4.1152,4.1094,4.1777,4.1719,4.1094,4.1348,4.123,4.0839,4.0781,4.0527,4.0234,4.0781,4.0742,4.0201,3.8521,3.6782,3.4874,3.2299,3.0489,2.9202,2.8431,2.8452,2.867,2.8305,2.82,2.82,2.82,2.82,2.82,2.82,2.82,2.82,2.82,2.82,2.8259,2.847,2.8604,2.8831,2.9312,2.9486,2.9633,2.9851,2.9891,2.9891,2.9891,2.9891,2.9891,2.9891,2.9891,2.9891,2.9891,2.9891,2.9891,2.9891,2.9891,3.002,3.0297,3.0047,3.0118,3.0621,3.0181,3.0518,3.1851,3.1971,3.2358,3.3078,3.324,3.3187,3.2931,3.3093,3.316,0.0,0.0,0.0,0.0,0.0,0.0,0.0,0.0,0.0,0.0,0.0,0.0,0.0,0.0,0.0,0.0,0.0,0.0,0.0,0.0,0.0,0.0,0.0,0.0,0.0,0.0,0.0,0.0,4.0957,4.1191,4.1191,4.1191,4.1191,4.1191,4.1191,4.1191,4.1191,4.1191,4.1191,4.1191,4.1191,4.0996,4.0586,4.0703,4.0703,4.0567,4.0293,3.9883,3.9434,3.9081,3.8905,3.8944,3.9746,4.0039,3.9812,3.841,3.7717,3.6882,3.2797,3.2484,3.3222,2.9432,2.9474,3.0619,2.8754,2.82,2.82,2.82,2.82,2.82,2.82,2.82,2.82,2.82,2.82,2.8213,2.8253,2.8617,2.8961,2.9041,2.949,2.9873,2.9891,2.9891,2.9891,2.9891,2.9891,2.9891,2.9891,2.9891,2.9891,2.9891,2.9891,2.9891,2.9891,2.9891,2.9918,2.9944,2.9918,2.9931,3.0034,2.9931,3.0247,3.0955,3.1487,3.2289,3.336,3.3146,3.2917,3.2648,3.2385,3.2144,2.4051,0.0,0.0,0.0,0.0,0.0,0.0,0.0,0.0,0.0,0.0,0.0,0.0,0.0,0.0,0.0,0.0,0.0,0.0,0.0,0.0,0.0,0.0,0.0,0.0,0.0,0.0,0.0,4.0918,4.1191,4.1191,4.1191,4.1191,4.1191,4.1191,4.1191,4.1191,4.1191,4.1191,4.1191,4.1191,4.0937,4.0489,4.0273,4.002,3.9747,3.959,3.9258,3.8846,3.8671,3.8729,3.8984,3.9648,4.0039,4.0198,3.987,3.8961,3.7637,3.5702,3.4894,3.4185,3.1014,3.0619,3.0993,2.8859,2.82,2.82,2.82,2.82,2.82,2.82,2.82,2.82,2.82,2.82,2.82,2.82,2.8617,2.9095,2.945,2.9717,2.9891,2.9891,2.9891,2.9891,2.9891,2.9891,2.9891,2.9891,2.9891,2.9891,2.9891,2.9891,2.9891,2.9891,2.9891,2.9891,2.9891,2.9891,2.9891,2.9891,2.9891,3.0171,3.0782,3.1072,3.1517,3.216,3.2583,3.2436,3.181,3.2209,3.2128,0.0,0.0,0.0,0.0,0.0,0.0,0.0,0.0,0.0,0.0,0.0,0.0,0.0,0.0,0.0,0.0,0.0,0.0,0.0,0.0,0.0,0.0,0.0,0.0,0.0,0.0,0.0,0.0,4.0703,4.0976,4.0879,4.1074,4.1133,4.1035,4.1133,4.1133,4.1035,4.1035,4.1035,4.1035,4.1133,4.0898,4.0332,4.0039,3.959,3.9043,3.9043,3.8885,3.8592,3.8592,3.8768,3.9101,3.9668,4.0098,4.043,4.0996,4.0158,3.8647,3.8094,3.7221,3.59,3.3145,3.2628,3.2653,3.0509,2.9857,2.9732,2.916,2.9006,2.8901,2.8347,2.82,2.82,2.82,2.82,2.8226,2.8286,2.8617,2.9077,2.9664,2.9806,2.9833,2.9878,2.9891,2.9891,2.9891,2.9891,2.9891,2.9891,2.9891,2.9891,2.9891,2.9891,2.9891,2.9891,2.9891,2.9891,2.9891,2.9891,2.9891,2.9891,2.9891,3.0127,3.0568,3.0568,3.0822,3.1343,3.1955,3.1861,3.1106,3.1741,3.1764,0.0,0.0,0.0,2.8424,0.0,0.0,0.0,0.0,0.0,0.0,0.0,0.0,0.0,0.0,0.0,0.0,0.0,0.0,0.0,0.0,0.0,0.0,0.0,0.0,0.0,0.0,0.0,0.0,4.0059,4.0371,3.998,4.0742,4.0996,4.0547,4.0957,4.0996,4.0547,4.0547,4.0547,4.0547,4.0996,4.0761,3.9922,3.9902,3.9452,3.8631,3.8631,3.8612,3.8592,3.8592,3.8612,3.871,3.9569,3.9902,4.0019,4.0879,4.1133,4.0743,3.8627,3.9198,4.0157,3.592,3.5903,3.7162,3.5016,3.4347,3.392,3.1825,3.1241,3.0765,2.8733,2.82,2.82,2.82,2.82,2.8272,2.8524,2.8604,2.8804,2.9392,2.9521,2.9593,2.9873,2.9891,2.9891,2.9891,2.9891,2.9891,2.9891,2.9891,2.9891,2.9891,2.9891,2.9891,2.9891,2.9891,2.9891,2.9891,2.9891,2.9891,2.9891,2.9891,2.9904,2.9967,2.9967,3.0515,3.1674,3.141,3.1129,3.0808,3.0604,3.0323,0.0,0.0,0.0,2.7077,2.9135,3.0947,0.0,0.0,0.0,0.0,0.0,0.0,0.0,0.0,0.0,0.0,0.0,0.0,0.0,0.0,0.0,0.0,0.0,0.0,0.0,0.0,0.0,0.0,0.0,4.0157,4.0274,4.0567,4.082,4.0957,4.1113,4.0859,4.0137,4.0371,4.0215,3.9669,4.041,4.0293,3.9453,3.9453,3.9139,3.8592,3.8592,3.8592,3.8592,3.8592,3.8749,3.9061,3.9648,4.0059,4.0352,4.0976,4.1191,4.1094,4.0294,4.0529,4.0704,3.7717,3.7261,3.7498,3.5339,3.4692,3.453,3.3737,3.2505,3.1221,3.0447,2.9223,2.82,2.82,2.82,2.824,2.8326,2.8617,2.8983,2.9428,2.9508,2.9601,2.9838,2.9891,2.9824,2.9673,2.9793,2.9847,2.9659,2.9806,2.9891,2.9891,2.9891,2.9891,2.9891,2.9891,2.9891,2.9891,2.9891,2.9891,2.9891,2.9891,2.9891,2.9891,2.9891,3.0105,3.0541,3.0822,3.0702,3.0234,3.0515,3.0381,0.0,0.0,0.0,0.0,0.0,2.8367,3.1143,0.0,3.375,0.0,0.0,0.0,0.0,0.0,0.0,0.0,0.0,0.0,0.0,0.0,0.0,0.0,0.0,0.0,0.0,0.0,0.0,0.0,0.0,0.0,3.9863,4.0254,4.0723,4.1191,4.0918,4.041,3.9668,4.0098,3.9941,3.9219,4.0079,4.0118,3.9434,3.9277,3.8965,3.8592,3.8592,3.8592,3.8612,3.8749,3.8885,3.9062,3.9805,4.0176,4.0371,4.0976,4.1191,4.1191,4.1191,4.1191,4.0958,3.9492,3.9001,3.8744,3.7319,3.6882,3.6722,3.598,3.4712,3.3431,3.2674,3.1448,3.0385,3.0385,3.0385,3.0413,3.0536,2.9605,2.8831,2.9125,2.9272,2.9432,2.9726,2.9824,2.9824,2.9659,2.9793,2.9847,2.9659,2.9793,2.9891,2.9891,2.9891,2.9891,2.9891,2.9891,2.9891,2.9891,2.9891,2.9891,2.9891,2.9891,2.9891,2.9891,2.9891,2.9891,2.9891,3.0301,3.0301,2.9904,3.0314,3.0287,0.0,0.0,0.0,0.0,0.0,0.0,2.9643,0.0,3.1504,3.4082,3.5296,0.0,0.0,0.0,0.0,0.0,0.0,0.0,0.0,0.0,0.0,0.0,0.0,0.0,0.0,0.0,0.0,0.0,3.8965,3.9022,3.8631,3.9824,4.0723,4.1152,4.0371,3.9687,3.9219,3.9687,3.9668,3.9219,4.0059,4.0254,3.9863,3.9394,3.8965,3.8592,3.8612,3.8612,3.8651,3.9023,3.8983,3.8768,4.0001,4.0254,4.0019,4.0879,4.1191,4.1191,4.1191,4.1191,4.1191,4.1191,4.1191,4.1191,4.1191,4.1191,4.0763,3.8587,3.7955,3.7419,3.5258,3.4692,3.4692,3.4692,3.4692,3.4811,3.52,3.1652,2.8484,2.8778,2.9017,2.93,2.9653,2.9927,3.0093,2.999,2.999,2.9967,2.99,2.9878,2.9878,2.9891,2.9891,2.9891,2.9891,2.9891,2.9891,2.9891,2.9891,2.9891,2.9891,2.9891,2.9891,2.9891,2.9891,2.9891,2.9891,2.9891,2.9891,2.9891,2.9891,2.9891,1.7902,0.0,0.0,0.0,0.0,0.0,0.0,0.0,0.0,3.1782,3.3304,3.4534,0.0,0.0,0.0,0.0,0.0,0.0,0.0,0.0,0.0,0.0,0.0,0.0,0.0,0.0,0.0,0.0,3.8866,3.8846,3.9023,3.998,4.0567,4.0684,4.045,4.0118,3.9707,4.0118,3.9942,3.9199,3.9785,3.9824,3.9375,3.8964,3.871,3.8612,3.8905,3.9023,3.9043,3.916,3.9336,3.959,4.0254,4.043,4.0391,4.0996,4.1191,4.1191,4.1191,4.1191,4.1191,4.1191,4.1191,4.1191,4.1191,4.1191,4.1075,4.0451,3.9119,3.7419,3.5258,3.4692,3.4692,3.4692,3.4692,3.4725,3.4844,3.3822,3.3166,3.407,3.4022,3.4058,3.4668,3.4834,3.4252,3.2361,3.2055,3.1456,2.9814,2.9606,2.9686,2.9878,2.9891,2.9891,2.9891,2.9891,2.9891,2.9891,2.9891,2.9891,2.9891,2.9891,2.9891,2.9891,2.9891,2.9891,2.9891,2.9891,2.9891,2.9891,2.9891,2.9891,0.0,0.0,0.0,0.0,0.0,0.0,0.0,2.5457,0.0,0.0,3.1601,3.2832,3.4378,3.5371,0.0,0.0,0.0,0.0,0.0,0.0,0.0,0.0,0.0,0.0,0.0,3.8729,3.869,3.8926,3.8729,3.8768,3.918,3.9669,4.0059,4.0235,4.0059,3.9844,3.9609,4.002,3.9981,3.9492,3.9941,3.9922,3.9492,3.9257,3.8944,3.8612,3.9042,3.9316,3.9492,3.9492,3.9648,3.9961,4.0566,4.0664,4.0567,4.1035,4.1191,4.1191,4.1191,4.1191,4.1191,4.1191,4.1191,4.1191,4.1191,4.1191,4.1191,4.1191,4.0275,3.8981,3.7737,3.7419,3.7419,3.7419,3.7419,3.7454,3.7614,3.765,3.7266,3.5962,3.5696,3.5835,3.6264,3.6611,3.5967,3.3496,3.3118,3.2259,2.997,2.9659,2.9726,2.9878,2.9891,2.9891,2.9891,2.9891,2.9891,2.9891,2.9891,2.9891,2.9891,2.9891,2.9891,2.9891,2.9891,2.9891,2.9891,2.9891,2.9891,2.9891,2.9891,2.9891,0.0,0.0,0.0,0.0,0.0,0.0,2.4157,2.4508,2.498,0.0,2.9584,3.06,3.1988,3.2984,3.3844,3.4645,0.0,0.0,0.0,0.0,0.0,0.0,0.0,0.0,3.8592,3.8592,3.8592,3.8592,3.8592,3.8768,3.9101,3.918,3.9394,3.9805,3.9473,3.9277,3.9277,3.9726,3.9961,3.9961,4.0332,4.0313,3.9961,3.9961,3.9531,3.8827,3.9238,3.9648,4.0039,4.0039,4.0039,4.0117,4.0898,4.0957,4.0625,4.1054,4.1191,4.1191,4.1191,4.1191,4.1191,4.1191,4.1191,4.1191,4.1191,4.1191,4.1191,4.1191,4.1191,4.1191,4.1191,4.1191,4.1191,4.1191,4.1191,4.1289,4.166,4.1758,4.0554,3.6302,3.6057,3.6542,3.6593,3.7128,3.6787,3.4504,3.392,3.2889,3.058,3.0043,2.9887,2.9891,2.9891,2.9891,2.9891,2.9891,2.9891,2.9891,2.9891,2.9891,2.9891,2.9891,2.9891,2.9891,2.9891,2.9891,2.9891,2.9891,2.9891,2.9891,2.9891,2.9891,0.0,0.0,0.0,0.0,0.0,0.0,0.0,2.122,2.2323,0.0,2.5109,2.6289,2.8327,2.9676,3.0537,3.0713,3.2922,3.5287,0.0,0.0,0.0,0.0,0.0,0.0,3.8592,3.8592,3.8592,3.8592,3.8592,3.8631,3.871,3.9023,3.9238,3.9336,3.9609,3.9766,3.9766,4.0195,4.0391,4.0391,4.0469,4.045,4.0391,4.0391,4.0293,4.0157,4.0605,4.0859,4.0937,4.0937,4.0937,4.0957,4.1133,4.1133,4.1074,4.1172,4.1191,4.1191,4.1191,4.1191,4.1191,4.1191,4.1191,4.1191,4.1191,4.1191,4.1191,4.1191,4.1191,4.1191,4.1191,4.1191,4.1191,4.1191,4.1191,4.1211,4.1289,4.1562,4.1521,4.0594,4.108,4.1763,4.2085,4.2254,4.1577,3.931,3.7159,3.5058,3.2991,3.0884,2.9659,2.9864,2.9891,2.9891,2.9891,2.9891,2.9891,2.9891,2.9891,2.9891,2.9891,2.9891,2.9891,2.9891,2.9891,2.9891,2.9891,2.9891,2.9891,2.9891,2.9891,2.9891,0.0,0.0,0.0,2.1622,0.0,0.0,0.0,0.0,0.0,2.3147,2.3477,2.4062,2.604,2.7083,2.7871,2.8542,3.083,3.2789,3.3633,0.0,0.0,0.0,0.0,0.0,3.8223,3.8242,3.8358,3.8573,3.8592,3.8592,3.8592,3.8788,3.8905,3.8905,3.9139,3.9472,3.9883,4.0098,4.043,4.084,4.084,4.084,4.0859,4.1074,4.1055,4.0879,4.1308,4.1387,4.1191,4.1191,4.1191,4.1191,4.1191,4.1191,4.1191,4.1191,4.1191,4.1191,4.1191,4.1191,4.1191,4.1191,4.1191,4.1191,4.1191,4.1191,4.1191,4.1191,4.1191,4.1191,4.1191,4.1191,4.1191,4.1191,4.1191,4.1191,4.1191,4.166,4.2089,4.2089,4.2812,4.3398,4.3398,4.3574,4.2927,4.0638,3.8198,3.5816,3.3672,3.1242,2.9753,2.9878,2.9891,2.9891,2.9891,2.9891,2.9891,2.9891,2.9891,2.9891,2.9891,2.9891,2.9891,2.9891,2.9891,2.9891,2.9891,2.9891,2.9891,2.9891,2.9891,2.9891,0.0,0.0,0.0,0.0,0.0,2.1641,0.0,0.0,0.0,0.0,0.0,0.0,0.0,0.0,0.0,0.0,0.0,0.0,0.0,0.0,0.0,0.0,0.0,0.0,3.7385,3.7267,3.75,3.8299,3.8045,3.8026,3.8436,3.8553,3.8592,3.8592,3.8592,3.8944,3.9629,3.9805,4.0234,4.0957,4.1113,4.123,4.1328,4.1738,4.1777,4.1582,4.1894,4.1816,4.1426,4.1269,4.1152,4.1074,4.1152,4.1133,4.1074,4.1172,4.1133,4.1074,4.1172,4.1191,4.1191,4.1191,4.1191,4.1191,4.1191,4.1191,4.1191,4.1191,4.1191,4.1191,4.1191,4.1191,4.1191,4.1191,4.1191,4.1191,4.1191,4.1836,4.2402,4.2402,4.3026,4.3496,4.3263,4.3476,4.3072,4.1223,3.897,3.6658,3.4351,3.2019,3.0392,2.9958,2.9891,2.9891,2.9891,2.9891,2.9891,2.9891,2.9891,2.9891,2.9891,2.9891,2.9891,2.9891,2.9891,2.9891,2.9891,2.9891,2.9891,2.9891,2.9891,2.9891,0.0,0.0,0.0,0.0,2.3864,0.0,0.0,0.0,0.0,0.0,0.0,0.0,0.0,0.0,0.0,0.0,0.0,0.0,0.0,2.8313,0.0,0.0,0.0,0.0,0.0,3.4997,3.5349,3.7285,3.6016,3.5976,3.7873,3.8359,3.8592,3.8592,3.8592,3.865,3.8749,3.9512,3.9941,4.0059,4.0839,4.1387,4.1738,4.2148,4.2519,4.2891,4.293,4.2676,4.2207,4.1504,4.0937,4.0625,4.1035,4.0957,4.0625,4.1054,4.0937,4.0625,4.1054,4.1191,4.1191,4.1191,4.1191,4.1191,4.1191,4.1191,4.1191,4.1191,4.1191,4.1191,4.1191,4.1191,4.1191,4.1191,4.1191,4.1191,4.1191,4.1836,4.2402,4.2402,4.2812,4.3282,4.3574,4.3672,4.3609,4.3361,4.137,3.9055,3.6701,3.4417,3.2219,3.0115,2.9891,2.9891,2.9891,2.9891,2.9891,2.9891,2.9891,2.9891,2.9891,2.9891,2.9891,2.9891,2.9891,2.9891,2.9891,2.9891,2.9891,2.9891,2.9891,2.9891,0.0,0.0,0.0,0.0,0.0,0.0,0.0,0.0,2.0449,0.0,0.0,0.0,0.0,0.0,0.0,0.0,0.0,0.0,0.0,0.0,0.0,0.0,0.0,0.0,0.0,0.0,0.0,0.0,3.4899,3.529,3.7441,3.7969,3.832,3.8592,3.8592,3.8846,3.9354,3.9707,4.0137,4.0664,4.1015,4.1523,4.2148,4.2324,4.2773,4.3438,4.3204,4.2832,4.2363,4.1777,4.1133,4.0528,4.0723,4.0527,4.0176,4.0371,4.0469,4.0528,4.0723,4.0957,4.1191,4.1191,4.1191,4.1191,4.1191,4.1191,4.1191,4.1191,4.1191,4.1191,4.1191,4.1191,4.1191,4.1191,4.1191,4.1269,4.1504,4.2012,4.248,4.2754,4.2969,4.3223,4.3633,4.3496,4.3418,4.3672,4.0614,3.7904,3.6938,3.3622,3.0981,3.0003,2.9891,2.9891,2.9891,2.9891,2.9891,2.9891,2.9891,2.9891,2.9891,2.9891,2.9891,2.9891,2.9891,2.9891,2.9891,2.9891,2.9891,2.9891,2.9891,2.9891,2.6607,0.0,0.0,0.0,0.0,0.0,0.0,0.0,0.0,0.0,0.0,0.0,0.0,0.0,0.0,0.0,0.0,0.0,0.0,0.0,0.0,0.0,0.0,0.0,0.0,3.0937,0.0,0.0,0.0,3.3824,3.6445,3.7092,3.758,3.8065,3.8299,3.8788,3.955,3.9766,4.0273,4.1015,4.1133,4.1562,4.2246,4.2246,4.2577,4.3164,4.2851,4.2402,4.1855,4.1445,4.084,4.0137,4.002,3.9805,3.957,3.9805,4.0,4.0176,4.041,4.0801,4.1191,4.1191,4.1191,4.1191,4.1191,4.1191,4.1191,4.1191,4.1191,4.1191,4.1191,4.1191,4.1191,4.1191,4.1269,4.1445,4.1738,4.2226,4.2695,4.3028,4.3008,4.3066,4.3613,4.338,4.3243,4.3633,4.0845,3.8225,3.696,3.387,3.1301,3.0048,2.9891,2.9891,2.9891,2.9891,2.9891,2.9891,2.9891,2.9891,2.9891,2.9891,2.9891,2.9891,2.9891,2.9891,2.9891,2.9891,2.9891,2.9891,2.9891,2.9891,0.0,0.0,0.0,0.0,0.0,0.0,0.0,0.0,2.2736,0.0,0.0,0.0,0.0,0.0,0.0,0.0,0.0,0.0,0.0,0.0,0.0,0.0,0.0,0.0,0.0,2.7539,2.7988,0.0,3.0025,0.0,3.457,3.5605,3.6289,3.6753,3.7519,3.8146,3.8631,3.9491,4.0117,4.0528,4.0976,4.1426,4.1816,4.1816,4.1836,4.1855,4.1855,4.1348,4.0528,4.0137,3.9668,3.9199,3.8807,3.8651,3.8729,3.9608,3.9609,3.9375,4.0215,4.0801,4.1191,4.1191,4.1191,4.1191,4.1191,4.1191,4.1191,4.1191,4.1191,4.1191,4.1191,4.1191,4.1191,4.1191,4.1504,4.1777,4.1797,4.2461,4.3087,4.3106,4.2734,4.2695,4.3555,4.338,4.3243,4.3633,4.3567,4.1848,3.739,3.668,3.4875,3.037,2.9891,2.9891,2.9891,2.9891,2.9891,2.9891,2.9891,2.9891,2.9891,2.9891,2.9891,2.9891,2.9891,2.9891,2.9891,2.9891,2.9891,2.9891,2.9891,2.9891,0.0,0.0,3.0371,2.7526,0.0,0.0,0.0,0.0,0.0,0.0,0.0,0.0,0.0,0.0,0.0,0.0,0.0,0.0,0.0,0.0,0.0,0.0,0.0,0.0,0.0,0.0,0.0,0.0,2.8685,0.0,0.0,3.5218,3.623,3.6695,3.748,3.8244,3.8984,3.9297,3.9941,4.0976,4.1113,4.1269,4.1406,4.1406,4.1406,4.1387,4.1055,4.0762,4.0469,4.0078,3.9629,3.9199,3.9043,3.8846,3.865,3.8925,3.912,3.9297,3.9902,4.0391,4.0742,4.0742,4.0957,4.1191,4.1191,4.1191,4.1191,4.1191,4.1191,4.1191,4.1191,4.1191,4.1191,4.1191,4.1308,4.1562,4.207,4.2421,4.2812,4.3379,4.3144,4.3027,4.3613,4.338,4.3243,4.3633,4.243,4.0869,3.931,3.7775,3.562,3.2536,3.2219,3.159,3.0025,2.9891,2.9891,2.9891,2.9891,2.9891,2.9891,2.9891,2.9891,2.9891,2.9891,2.9891,2.9891,2.9891,2.9891,2.9891,2.9891,2.9891,3.2461,3.2289,0.0,2.9389,2.8066,0.0,2.3878,0.0,0.0,0.0,0.0,0.0,0.0,0.0,0.0,0.0,0.0,0.0,0.0,0.0,0.0,0.0,0.0,0.0,0.0,0.0,2.4562,2.6607,2.6868,0.0,0.0,0.0,3.5059,3.5954,3.6953,3.8027,3.9199,3.9375,4.0039,4.1191,4.1035,4.0937,4.0957,4.08,4.0644,4.0468,4.0176,3.9961,3.9805,3.9531,3.9258,3.9003,3.9003,3.8827,3.8592,3.8592,3.8848,3.9238,3.9551,4.002,4.0508,4.0508,4.082,4.1191,4.1191,4.1191,4.1191,4.1191,4.1191,4.1191,4.1191,4.1191,4.1191,4.1191,4.1426,4.1758,4.2285,4.2636,4.3026,4.3594,4.338,4.3223,4.3633,4.338,4.3243,4.3633,4.2451,4.1223,4.0406,3.8992,3.7153,3.4853,3.3885,3.2462,3.0093,2.9891,2.9891,2.9891,2.9891,2.9891,2.9891,2.9891,2.9891,2.9891,2.9891,2.9891,2.9891,2.9891,2.9891,2.9891,2.9891,2.9891]}]]